<?xml version="1.0" encoding="UTF-8" standalone="no" ?>
<gpx xmlns="http://www.topografix.com/GPX/1/1" xmlns:xsi="http://www.w3.org/2001/XMLSchema-instance" xsi:schemaLocation="http://www.topografix.com/GPX/1/1 http://www.topografix.com/GPX/1/1/gpx.xsd" version="1.1" creator="VisuGPX - https://www.visugpx.com">
  <metadata>
    <name>Traversée du Néron</name>
    <desc><![CDATA[Sud -> Nord]]></desc>
  </metadata>
  <trk>
    <name><![CDATA[Trail alpin au Néron]]></name>
    <trkseg>
      <trkpt lat="45.21415" lon="5.70964">
        <ele>441</ele>
        <time>2015-11-14T07:12:10Z</time>
      </trkpt>
      <trkpt lat="45.21416" lon="5.70963">
        <ele>441</ele>
        <time>2015-11-14T07:12:12Z</time>
      </trkpt>
      <trkpt lat="45.21418" lon="5.7096">
        <ele>441</ele>
        <time>2015-11-14T07:12:15Z</time>
      </trkpt>
      <trkpt lat="45.21419" lon="5.70958">
        <ele>441</ele>
        <time>2015-11-14T07:12:17Z</time>
      </trkpt>
      <trkpt lat="45.2142" lon="5.70955">
        <ele>441</ele>
        <time>2015-11-14T07:12:19Z</time>
      </trkpt>
      <trkpt lat="45.21423" lon="5.70954">
        <ele>441</ele>
        <time>2015-11-14T07:12:21Z</time>
      </trkpt>
      <trkpt lat="45.21425" lon="5.70954">
        <ele>442</ele>
        <time>2015-11-14T07:12:23Z</time>
      </trkpt>
      <trkpt lat="45.21428" lon="5.70954">
        <ele>442</ele>
        <time>2015-11-14T07:12:25Z</time>
      </trkpt>
      <trkpt lat="45.21431" lon="5.70954">
        <ele>442</ele>
        <time>2015-11-14T07:12:27Z</time>
      </trkpt>
      <trkpt lat="45.21433" lon="5.70955">
        <ele>442</ele>
        <time>2015-11-14T07:12:28Z</time>
      </trkpt>
      <trkpt lat="45.21435" lon="5.70957">
        <ele>442</ele>
        <time>2015-11-14T07:12:29Z</time>
      </trkpt>
      <trkpt lat="45.21436" lon="5.70958">
        <ele>442</ele>
        <time>2015-11-14T07:12:30Z</time>
      </trkpt>
      <trkpt lat="45.21438" lon="5.7096">
        <ele>442</ele>
        <time>2015-11-14T07:12:31Z</time>
      </trkpt>
      <trkpt lat="45.2144" lon="5.70963">
        <ele>442</ele>
        <time>2015-11-14T07:12:32Z</time>
      </trkpt>
      <trkpt lat="45.21448" lon="5.70973">
        <ele>443</ele>
        <time>2015-11-14T07:12:36Z</time>
      </trkpt>
      <trkpt lat="45.21454" lon="5.70983">
        <ele>443</ele>
        <time>2015-11-14T07:12:40Z</time>
      </trkpt>
      <trkpt lat="45.21461" lon="5.70994">
        <ele>444</ele>
        <time>2015-11-14T07:12:44Z</time>
      </trkpt>
      <trkpt lat="45.21466" lon="5.71006">
        <ele>444</ele>
        <time>2015-11-14T07:12:48Z</time>
      </trkpt>
      <trkpt lat="45.21473" lon="5.71016">
        <ele>445</ele>
        <time>2015-11-14T07:12:52Z</time>
      </trkpt>
      <trkpt lat="45.21478" lon="5.71022">
        <ele>446</ele>
        <time>2015-11-14T07:12:57Z</time>
      </trkpt>
      <trkpt lat="45.21481" lon="5.71025">
        <ele>454</ele>
        <time>2015-11-14T07:13:11Z</time>
      </trkpt>
      <trkpt lat="45.21483" lon="5.71026">
        <ele>455.2</ele>
        <time>2015-11-14T07:13:14Z</time>
      </trkpt>
      <trkpt lat="45.21484" lon="5.71025">
        <ele>457</ele>
        <time>2015-11-14T07:13:22Z</time>
      </trkpt>
      <trkpt lat="45.21484" lon="5.71022">
        <ele>457</ele>
        <time>2015-11-14T07:13:26Z</time>
      </trkpt>
      <trkpt lat="45.21484" lon="5.7102">
        <ele>457</ele>
        <time>2015-11-14T07:13:29Z</time>
      </trkpt>
      <trkpt lat="45.21483" lon="5.71016">
        <ele>457</ele>
        <time>2015-11-14T07:13:32Z</time>
      </trkpt>
      <trkpt lat="45.21484" lon="5.71014">
        <ele>457</ele>
        <time>2015-11-14T07:13:34Z</time>
      </trkpt>
      <trkpt lat="45.21486" lon="5.71012">
        <ele>457</ele>
        <time>2015-11-14T07:13:37Z</time>
      </trkpt>
      <trkpt lat="45.21487" lon="5.7101">
        <ele>457.2</ele>
        <time>2015-11-14T07:13:39Z</time>
      </trkpt>
      <trkpt lat="45.21488" lon="5.71006">
        <ele>458</ele>
        <time>2015-11-14T07:13:45Z</time>
      </trkpt>
      <trkpt lat="45.21489" lon="5.71003">
        <ele>458</ele>
        <time>2015-11-14T07:13:47Z</time>
      </trkpt>
      <trkpt lat="45.21491" lon="5.71003">
        <ele>459</ele>
        <time>2015-11-14T07:13:50Z</time>
      </trkpt>
      <trkpt lat="45.21493" lon="5.71">
        <ele>459</ele>
        <time>2015-11-14T07:13:53Z</time>
      </trkpt>
      <trkpt lat="45.21494" lon="5.70998">
        <ele>459</ele>
        <time>2015-11-14T07:13:56Z</time>
      </trkpt>
      <trkpt lat="45.21496" lon="5.70998">
        <ele>459</ele>
        <time>2015-11-14T07:13:58Z</time>
      </trkpt>
      <trkpt lat="45.21498" lon="5.70997">
        <ele>459</ele>
        <time>2015-11-14T07:14:00Z</time>
      </trkpt>
      <trkpt lat="45.215" lon="5.70995">
        <ele>459</ele>
        <time>2015-11-14T07:14:03Z</time>
      </trkpt>
      <trkpt lat="45.21502" lon="5.70994">
        <ele>459.2</ele>
        <time>2015-11-14T07:14:06Z</time>
      </trkpt>
      <trkpt lat="45.21504" lon="5.70994">
        <ele>460</ele>
        <time>2015-11-14T07:14:09Z</time>
      </trkpt>
      <trkpt lat="45.21506" lon="5.70993">
        <ele>460</ele>
        <time>2015-11-14T07:14:12Z</time>
      </trkpt>
      <trkpt lat="45.21507" lon="5.70991">
        <ele>460</ele>
        <time>2015-11-14T07:14:15Z</time>
      </trkpt>
      <trkpt lat="45.21509" lon="5.7099">
        <ele>461</ele>
        <time>2015-11-14T07:14:18Z</time>
      </trkpt>
      <trkpt lat="45.21513" lon="5.70989">
        <ele>462</ele>
        <time>2015-11-14T07:14:23Z</time>
      </trkpt>
      <trkpt lat="45.21515" lon="5.70987">
        <ele>463</ele>
        <time>2015-11-14T07:14:26Z</time>
      </trkpt>
      <trkpt lat="45.21517" lon="5.70987">
        <ele>463.2</ele>
        <time>2015-11-14T07:14:29Z</time>
      </trkpt>
      <trkpt lat="45.21519" lon="5.70987">
        <ele>464</ele>
        <time>2015-11-14T07:14:32Z</time>
      </trkpt>
      <trkpt lat="45.21521" lon="5.70985">
        <ele>464</ele>
        <time>2015-11-14T07:14:36Z</time>
      </trkpt>
      <trkpt lat="45.21523" lon="5.70983">
        <ele>465</ele>
        <time>2015-11-14T07:14:39Z</time>
      </trkpt>
      <trkpt lat="45.21525" lon="5.70982">
        <ele>465.9</ele>
        <time>2015-11-14T07:14:42Z</time>
      </trkpt>
      <trkpt lat="45.21527" lon="5.70981">
        <ele>466</ele>
        <time>2015-11-14T07:14:45Z</time>
      </trkpt>
      <trkpt lat="45.21528" lon="5.70979">
        <ele>467</ele>
        <time>2015-11-14T07:14:48Z</time>
      </trkpt>
      <trkpt lat="45.21533" lon="5.70978">
        <ele>467</ele>
        <time>2015-11-14T07:14:57Z</time>
      </trkpt>
      <trkpt lat="45.21536" lon="5.70976">
        <ele>468</ele>
        <time>2015-11-14T07:15:00Z</time>
      </trkpt>
      <trkpt lat="45.21538" lon="5.70975">
        <ele>469</ele>
        <time>2015-11-14T07:15:03Z</time>
      </trkpt>
      <trkpt lat="45.2154" lon="5.70973">
        <ele>470</ele>
        <time>2015-11-14T07:15:06Z</time>
      </trkpt>
      <trkpt lat="45.21543" lon="5.70972">
        <ele>471</ele>
        <time>2015-11-14T07:15:09Z</time>
      </trkpt>
      <trkpt lat="45.21546" lon="5.70973">
        <ele>472</ele>
        <time>2015-11-14T07:15:14Z</time>
      </trkpt>
      <trkpt lat="45.21548" lon="5.70971">
        <ele>473</ele>
        <time>2015-11-14T07:15:17Z</time>
      </trkpt>
      <trkpt lat="45.21549" lon="5.7097">
        <ele>473.1</ele>
        <time>2015-11-14T07:15:19Z</time>
      </trkpt>
      <trkpt lat="45.21551" lon="5.70969">
        <ele>474</ele>
        <time>2015-11-14T07:15:21Z</time>
      </trkpt>
      <trkpt lat="45.21553" lon="5.70968">
        <ele>474.2</ele>
        <time>2015-11-14T07:15:23Z</time>
      </trkpt>
      <trkpt lat="45.21555" lon="5.70967">
        <ele>475</ele>
        <time>2015-11-14T07:15:26Z</time>
      </trkpt>
      <trkpt lat="45.21557" lon="5.70963">
        <ele>476</ele>
        <time>2015-11-14T07:15:31Z</time>
      </trkpt>
      <trkpt lat="45.21559" lon="5.70962">
        <ele>476.2</ele>
        <time>2015-11-14T07:15:34Z</time>
      </trkpt>
      <trkpt lat="45.21561" lon="5.7096">
        <ele>477</ele>
        <time>2015-11-14T07:15:37Z</time>
      </trkpt>
      <trkpt lat="45.21562" lon="5.70957">
        <ele>477</ele>
        <time>2015-11-14T07:15:39Z</time>
      </trkpt>
      <trkpt lat="45.21564" lon="5.70956">
        <ele>478</ele>
        <time>2015-11-14T07:15:42Z</time>
      </trkpt>
      <trkpt lat="45.21566" lon="5.70955">
        <ele>479</ele>
        <time>2015-11-14T07:15:44Z</time>
      </trkpt>
      <trkpt lat="45.21567" lon="5.70953">
        <ele>479</ele>
        <time>2015-11-14T07:15:47Z</time>
      </trkpt>
      <trkpt lat="45.2157" lon="5.70948">
        <ele>480</ele>
        <time>2015-11-14T07:15:55Z</time>
      </trkpt>
      <trkpt lat="45.21571" lon="5.70946">
        <ele>481</ele>
        <time>2015-11-14T07:15:57Z</time>
      </trkpt>
      <trkpt lat="45.21573" lon="5.70944">
        <ele>481</ele>
        <time>2015-11-14T07:15:59Z</time>
      </trkpt>
      <trkpt lat="45.21573" lon="5.70941">
        <ele>482</ele>
        <time>2015-11-14T07:16:01Z</time>
      </trkpt>
      <trkpt lat="45.21574" lon="5.70938">
        <ele>483</ele>
        <time>2015-11-14T07:16:04Z</time>
      </trkpt>
      <trkpt lat="45.21576" lon="5.70936">
        <ele>483.2</ele>
        <time>2015-11-14T07:16:07Z</time>
      </trkpt>
      <trkpt lat="45.21577" lon="5.70933">
        <ele>484</ele>
        <time>2015-11-14T07:16:10Z</time>
      </trkpt>
      <trkpt lat="45.21578" lon="5.70931">
        <ele>485</ele>
        <time>2015-11-14T07:16:12Z</time>
      </trkpt>
      <trkpt lat="45.2158" lon="5.70928">
        <ele>485.2</ele>
        <time>2015-11-14T07:16:15Z</time>
      </trkpt>
      <trkpt lat="45.21581" lon="5.70926">
        <ele>486</ele>
        <time>2015-11-14T07:16:17Z</time>
      </trkpt>
      <trkpt lat="45.21584" lon="5.70922">
        <ele>488</ele>
        <time>2015-11-14T07:16:22Z</time>
      </trkpt>
      <trkpt lat="45.21586" lon="5.7092">
        <ele>489</ele>
        <time>2015-11-14T07:16:25Z</time>
      </trkpt>
      <trkpt lat="45.21587" lon="5.70918">
        <ele>489.1</ele>
        <time>2015-11-14T07:16:27Z</time>
      </trkpt>
      <trkpt lat="45.21589" lon="5.70915">
        <ele>490</ele>
        <time>2015-11-14T07:16:30Z</time>
      </trkpt>
      <trkpt lat="45.21591" lon="5.70913">
        <ele>491</ele>
        <time>2015-11-14T07:16:33Z</time>
      </trkpt>
      <trkpt lat="45.21596" lon="5.70906">
        <ele>493</ele>
        <time>2015-11-14T07:16:42Z</time>
      </trkpt>
      <trkpt lat="45.21598" lon="5.70904">
        <ele>494</ele>
        <time>2015-11-14T07:16:44Z</time>
      </trkpt>
      <trkpt lat="45.21602" lon="5.70895">
        <ele>496</ele>
        <time>2015-11-14T07:16:50Z</time>
      </trkpt>
      <trkpt lat="45.21603" lon="5.70893">
        <ele>496</ele>
        <time>2015-11-14T07:16:52Z</time>
      </trkpt>
      <trkpt lat="45.21605" lon="5.7089">
        <ele>497</ele>
        <time>2015-11-14T07:16:55Z</time>
      </trkpt>
      <trkpt lat="45.21607" lon="5.70888">
        <ele>498</ele>
        <time>2015-11-14T07:16:58Z</time>
      </trkpt>
      <trkpt lat="45.21609" lon="5.70886">
        <ele>498.1</ele>
        <time>2015-11-14T07:17:00Z</time>
      </trkpt>
      <trkpt lat="45.2161" lon="5.70884">
        <ele>499</ele>
        <time>2015-11-14T07:17:02Z</time>
      </trkpt>
      <trkpt lat="45.2161" lon="5.70881">
        <ele>499</ele>
        <time>2015-11-14T07:17:05Z</time>
      </trkpt>
      <trkpt lat="45.21611" lon="5.70878">
        <ele>500</ele>
        <time>2015-11-14T07:17:07Z</time>
      </trkpt>
      <trkpt lat="45.21612" lon="5.70875">
        <ele>500.9</ele>
        <time>2015-11-14T07:17:09Z</time>
      </trkpt>
      <trkpt lat="45.21613" lon="5.70873">
        <ele>501</ele>
        <time>2015-11-14T07:17:11Z</time>
      </trkpt>
      <trkpt lat="45.21613" lon="5.7087">
        <ele>501.1</ele>
        <time>2015-11-14T07:17:13Z</time>
      </trkpt>
      <trkpt lat="45.21614" lon="5.70868">
        <ele>502</ele>
        <time>2015-11-14T07:17:15Z</time>
      </trkpt>
      <trkpt lat="45.21615" lon="5.70865">
        <ele>502.1</ele>
        <time>2015-11-14T07:17:17Z</time>
      </trkpt>
      <trkpt lat="45.21615" lon="5.70862">
        <ele>503</ele>
        <time>2015-11-14T07:17:19Z</time>
      </trkpt>
      <trkpt lat="45.21616" lon="5.70858">
        <ele>504</ele>
        <time>2015-11-14T07:17:21Z</time>
      </trkpt>
      <trkpt lat="45.21617" lon="5.70855">
        <ele>504.2</ele>
        <time>2015-11-14T07:17:23Z</time>
      </trkpt>
      <trkpt lat="45.21617" lon="5.70853">
        <ele>505</ele>
        <time>2015-11-14T07:17:25Z</time>
      </trkpt>
      <trkpt lat="45.21619" lon="5.7085">
        <ele>505.2</ele>
        <time>2015-11-14T07:17:28Z</time>
      </trkpt>
      <trkpt lat="45.21619" lon="5.70848">
        <ele>506</ele>
        <time>2015-11-14T07:17:30Z</time>
      </trkpt>
      <trkpt lat="45.21619" lon="5.70845">
        <ele>506.1</ele>
        <time>2015-11-14T07:17:32Z</time>
      </trkpt>
      <trkpt lat="45.21619" lon="5.70842">
        <ele>507</ele>
        <time>2015-11-14T07:17:34Z</time>
      </trkpt>
      <trkpt lat="45.2162" lon="5.70839">
        <ele>507.2</ele>
        <time>2015-11-14T07:17:36Z</time>
      </trkpt>
      <trkpt lat="45.2162" lon="5.70836">
        <ele>508</ele>
        <time>2015-11-14T07:17:38Z</time>
      </trkpt>
      <trkpt lat="45.21621" lon="5.70834">
        <ele>509</ele>
        <time>2015-11-14T07:17:40Z</time>
      </trkpt>
      <trkpt lat="45.21621" lon="5.70831">
        <ele>509</ele>
        <time>2015-11-14T07:17:42Z</time>
      </trkpt>
      <trkpt lat="45.21622" lon="5.70827">
        <ele>511</ele>
        <time>2015-11-14T07:17:45Z</time>
      </trkpt>
      <trkpt lat="45.21622" lon="5.70823">
        <ele>512</ele>
        <time>2015-11-14T07:17:48Z</time>
      </trkpt>
      <trkpt lat="45.21622" lon="5.7082">
        <ele>512</ele>
        <time>2015-11-14T07:17:50Z</time>
      </trkpt>
      <trkpt lat="45.21622" lon="5.70818">
        <ele>512.9</ele>
        <time>2015-11-14T07:17:52Z</time>
      </trkpt>
      <trkpt lat="45.21622" lon="5.70815">
        <ele>513</ele>
        <time>2015-11-14T07:17:54Z</time>
      </trkpt>
      <trkpt lat="45.21622" lon="5.70811">
        <ele>513.2</ele>
        <time>2015-11-14T07:17:56Z</time>
      </trkpt>
      <trkpt lat="45.21622" lon="5.70808">
        <ele>514</ele>
        <time>2015-11-14T07:17:58Z</time>
      </trkpt>
      <trkpt lat="45.21621" lon="5.70804">
        <ele>515</ele>
        <time>2015-11-14T07:18:01Z</time>
      </trkpt>
      <trkpt lat="45.2162" lon="5.70801">
        <ele>515</ele>
        <time>2015-11-14T07:18:03Z</time>
      </trkpt>
      <trkpt lat="45.21621" lon="5.70797">
        <ele>516</ele>
        <time>2015-11-14T07:18:05Z</time>
      </trkpt>
      <trkpt lat="45.21621" lon="5.70794">
        <ele>516</ele>
        <time>2015-11-14T07:18:07Z</time>
      </trkpt>
      <trkpt lat="45.21621" lon="5.70791">
        <ele>517</ele>
        <time>2015-11-14T07:18:09Z</time>
      </trkpt>
      <trkpt lat="45.21621" lon="5.70787">
        <ele>517</ele>
        <time>2015-11-14T07:18:11Z</time>
      </trkpt>
      <trkpt lat="45.21621" lon="5.70784">
        <ele>517</ele>
        <time>2015-11-14T07:18:13Z</time>
      </trkpt>
      <trkpt lat="45.21621" lon="5.70781">
        <ele>518</ele>
        <time>2015-11-14T07:18:15Z</time>
      </trkpt>
      <trkpt lat="45.21622" lon="5.70778">
        <ele>518</ele>
        <time>2015-11-14T07:18:17Z</time>
      </trkpt>
      <trkpt lat="45.21624" lon="5.70772">
        <ele>522</ele>
        <time>2015-11-14T07:18:33Z</time>
      </trkpt>
      <trkpt lat="45.21626" lon="5.70774">
        <ele>526</ele>
        <time>2015-11-14T07:19:30Z</time>
      </trkpt>
      <trkpt lat="45.21628" lon="5.70774">
        <ele>527</ele>
        <time>2015-11-14T07:19:34Z</time>
      </trkpt>
      <trkpt lat="45.21631" lon="5.70774">
        <ele>527</ele>
        <time>2015-11-14T07:19:37Z</time>
      </trkpt>
      <trkpt lat="45.21632" lon="5.70776">
        <ele>527</ele>
        <time>2015-11-14T07:19:41Z</time>
      </trkpt>
      <trkpt lat="45.21636" lon="5.7078">
        <ele>528.2</ele>
        <time>2015-11-14T07:19:48Z</time>
      </trkpt>
      <trkpt lat="45.21638" lon="5.7078">
        <ele>529</ele>
        <time>2015-11-14T07:19:51Z</time>
      </trkpt>
      <trkpt lat="45.21644" lon="5.70781">
        <ele>531</ele>
        <time>2015-11-14T07:20:01Z</time>
      </trkpt>
      <trkpt lat="45.21646" lon="5.70783">
        <ele>531</ele>
        <time>2015-11-14T07:20:05Z</time>
      </trkpt>
      <trkpt lat="45.21652" lon="5.70786">
        <ele>533.2</ele>
        <time>2015-11-14T07:20:15Z</time>
      </trkpt>
      <trkpt lat="45.21654" lon="5.70786">
        <ele>534</ele>
        <time>2015-11-14T07:20:18Z</time>
      </trkpt>
      <trkpt lat="45.21657" lon="5.70791">
        <ele>537</ele>
        <time>2015-11-14T07:20:29Z</time>
      </trkpt>
      <trkpt lat="45.21659" lon="5.70795">
        <ele>538</ele>
        <time>2015-11-14T07:20:34Z</time>
      </trkpt>
      <trkpt lat="45.21661" lon="5.70797">
        <ele>539</ele>
        <time>2015-11-14T07:20:37Z</time>
      </trkpt>
      <trkpt lat="45.21664" lon="5.70801">
        <ele>540</ele>
        <time>2015-11-14T07:20:42Z</time>
      </trkpt>
      <trkpt lat="45.21665" lon="5.70803">
        <ele>541</ele>
        <time>2015-11-14T07:20:45Z</time>
      </trkpt>
      <trkpt lat="45.21667" lon="5.70804">
        <ele>542</ele>
        <time>2015-11-14T07:20:48Z</time>
      </trkpt>
      <trkpt lat="45.21669" lon="5.70806">
        <ele>542</ele>
        <time>2015-11-14T07:20:51Z</time>
      </trkpt>
      <trkpt lat="45.21669" lon="5.70809">
        <ele>543</ele>
        <time>2015-11-14T07:20:54Z</time>
      </trkpt>
      <trkpt lat="45.21671" lon="5.70812">
        <ele>544</ele>
        <time>2015-11-14T07:20:58Z</time>
      </trkpt>
      <trkpt lat="45.21673" lon="5.70813">
        <ele>545</ele>
        <time>2015-11-14T07:21:01Z</time>
      </trkpt>
      <trkpt lat="45.21674" lon="5.70816">
        <ele>546</ele>
        <time>2015-11-14T07:21:04Z</time>
      </trkpt>
      <trkpt lat="45.21676" lon="5.70817">
        <ele>547</ele>
        <time>2015-11-14T07:21:07Z</time>
      </trkpt>
      <trkpt lat="45.21678" lon="5.70819">
        <ele>548</ele>
        <time>2015-11-14T07:21:11Z</time>
      </trkpt>
      <trkpt lat="45.2168" lon="5.7082">
        <ele>549</ele>
        <time>2015-11-14T07:21:14Z</time>
      </trkpt>
      <trkpt lat="45.21682" lon="5.70821">
        <ele>550</ele>
        <time>2015-11-14T07:21:17Z</time>
      </trkpt>
      <trkpt lat="45.21683" lon="5.70823">
        <ele>551</ele>
        <time>2015-11-14T07:21:21Z</time>
      </trkpt>
      <trkpt lat="45.21685" lon="5.70823">
        <ele>552.2</ele>
        <time>2015-11-14T07:21:25Z</time>
      </trkpt>
      <trkpt lat="45.21687" lon="5.70824">
        <ele>554</ele>
        <time>2015-11-14T07:21:28Z</time>
      </trkpt>
      <trkpt lat="45.21689" lon="5.70825">
        <ele>555</ele>
        <time>2015-11-14T07:21:31Z</time>
      </trkpt>
      <trkpt lat="45.21691" lon="5.70825">
        <ele>555.2</ele>
        <time>2015-11-14T07:21:33Z</time>
      </trkpt>
      <trkpt lat="45.21693" lon="5.70827">
        <ele>556</ele>
        <time>2015-11-14T07:21:36Z</time>
      </trkpt>
      <trkpt lat="45.21697" lon="5.70827">
        <ele>558</ele>
        <time>2015-11-14T07:21:41Z</time>
      </trkpt>
      <trkpt lat="45.21698" lon="5.70829">
        <ele>559</ele>
        <time>2015-11-14T07:21:44Z</time>
      </trkpt>
      <trkpt lat="45.21703" lon="5.70834">
        <ele>562</ele>
        <time>2015-11-14T07:21:54Z</time>
      </trkpt>
      <trkpt lat="45.21705" lon="5.70836">
        <ele>562</ele>
        <time>2015-11-14T07:21:57Z</time>
      </trkpt>
      <trkpt lat="45.21707" lon="5.70837">
        <ele>564</ele>
        <time>2015-11-14T07:22:02Z</time>
      </trkpt>
      <trkpt lat="45.21709" lon="5.7084">
        <ele>565.2</ele>
        <time>2015-11-14T07:22:05Z</time>
      </trkpt>
      <trkpt lat="45.2171" lon="5.70842">
        <ele>567</ele>
        <time>2015-11-14T07:22:08Z</time>
      </trkpt>
      <trkpt lat="45.21715" lon="5.70845">
        <ele>569</ele>
        <time>2015-11-14T07:22:17Z</time>
      </trkpt>
      <trkpt lat="45.2172" lon="5.70846">
        <ele>571.2</ele>
        <time>2015-11-14T07:22:26Z</time>
      </trkpt>
      <trkpt lat="45.21727" lon="5.70848">
        <ele>574.2</ele>
        <time>2015-11-14T07:22:34Z</time>
      </trkpt>
      <trkpt lat="45.21728" lon="5.70849">
        <ele>575</ele>
        <time>2015-11-14T07:22:36Z</time>
      </trkpt>
      <trkpt lat="45.2173" lon="5.70849">
        <ele>575</ele>
        <time>2015-11-14T07:22:40Z</time>
      </trkpt>
      <trkpt lat="45.21733" lon="5.7085">
        <ele>577</ele>
        <time>2015-11-14T07:22:45Z</time>
      </trkpt>
      <trkpt lat="45.21735" lon="5.70852">
        <ele>578</ele>
        <time>2015-11-14T07:22:48Z</time>
      </trkpt>
      <trkpt lat="45.2174" lon="5.70853">
        <ele>580.9</ele>
        <time>2015-11-14T07:22:56Z</time>
      </trkpt>
      <trkpt lat="45.21743" lon="5.70852">
        <ele>583</ele>
        <time>2015-11-14T07:23:03Z</time>
      </trkpt>
      <trkpt lat="45.21748" lon="5.7085">
        <ele>587.9</ele>
        <time>2015-11-14T07:23:15Z</time>
      </trkpt>
      <trkpt lat="45.21753" lon="5.70852">
        <ele>592</ele>
        <time>2015-11-14T07:23:27Z</time>
      </trkpt>
      <trkpt lat="45.21757" lon="5.70853">
        <ele>594.2</ele>
        <time>2015-11-14T07:23:36Z</time>
      </trkpt>
      <trkpt lat="45.21759" lon="5.70855">
        <ele>595</ele>
        <time>2015-11-14T07:23:39Z</time>
      </trkpt>
      <trkpt lat="45.21763" lon="5.70857">
        <ele>598</ele>
        <time>2015-11-14T07:23:49Z</time>
      </trkpt>
      <trkpt lat="45.21765" lon="5.70857">
        <ele>599</ele>
        <time>2015-11-14T07:23:51Z</time>
      </trkpt>
      <trkpt lat="45.21771" lon="5.70861">
        <ele>601</ele>
        <time>2015-11-14T07:23:59Z</time>
      </trkpt>
      <trkpt lat="45.21772" lon="5.70863">
        <ele>601.2</ele>
        <time>2015-11-14T07:24:01Z</time>
      </trkpt>
      <trkpt lat="45.21774" lon="5.70864">
        <ele>602</ele>
        <time>2015-11-14T07:24:04Z</time>
      </trkpt>
      <trkpt lat="45.21775" lon="5.70866">
        <ele>603</ele>
        <time>2015-11-14T07:24:07Z</time>
      </trkpt>
      <trkpt lat="45.21777" lon="5.70867">
        <ele>604</ele>
        <time>2015-11-14T07:24:10Z</time>
      </trkpt>
      <trkpt lat="45.21778" lon="5.7087">
        <ele>604.2</ele>
        <time>2015-11-14T07:24:13Z</time>
      </trkpt>
      <trkpt lat="45.21779" lon="5.70873">
        <ele>605.2</ele>
        <time>2015-11-14T07:24:16Z</time>
      </trkpt>
      <trkpt lat="45.21782" lon="5.70881">
        <ele>608</ele>
        <time>2015-11-14T07:24:26Z</time>
      </trkpt>
      <trkpt lat="45.21786" lon="5.70884">
        <ele>611</ele>
        <time>2015-11-14T07:24:36Z</time>
      </trkpt>
      <trkpt lat="45.21787" lon="5.70886">
        <ele>612</ele>
        <time>2015-11-14T07:24:39Z</time>
      </trkpt>
      <trkpt lat="45.21791" lon="5.70891">
        <ele>615.1</ele>
        <time>2015-11-14T07:24:49Z</time>
      </trkpt>
      <trkpt lat="45.21793" lon="5.70893">
        <ele>616</ele>
        <time>2015-11-14T07:24:51Z</time>
      </trkpt>
      <trkpt lat="45.21794" lon="5.70896">
        <ele>616.2</ele>
        <time>2015-11-14T07:24:53Z</time>
      </trkpt>
      <trkpt lat="45.21797" lon="5.70897">
        <ele>617</ele>
        <time>2015-11-14T07:24:56Z</time>
      </trkpt>
      <trkpt lat="45.21801" lon="5.70899">
        <ele>620</ele>
        <time>2015-11-14T07:25:03Z</time>
      </trkpt>
      <trkpt lat="45.21804" lon="5.70905">
        <ele>624</ele>
        <time>2015-11-14T07:25:16Z</time>
      </trkpt>
      <trkpt lat="45.21806" lon="5.70908">
        <ele>625</ele>
        <time>2015-11-14T07:25:19Z</time>
      </trkpt>
      <trkpt lat="45.21809" lon="5.70908">
        <ele>626</ele>
        <time>2015-11-14T07:25:23Z</time>
      </trkpt>
      <trkpt lat="45.21811" lon="5.70909">
        <ele>627</ele>
        <time>2015-11-14T07:25:26Z</time>
      </trkpt>
      <trkpt lat="45.21813" lon="5.70909">
        <ele>627</ele>
        <time>2015-11-14T07:25:29Z</time>
      </trkpt>
      <trkpt lat="45.21814" lon="5.70913">
        <ele>636</ele>
        <time>2015-11-14T07:27:57Z</time>
      </trkpt>
      <trkpt lat="45.21816" lon="5.70913">
        <ele>636</ele>
        <time>2015-11-14T07:27:59Z</time>
      </trkpt>
      <trkpt lat="45.21819" lon="5.70913">
        <ele>636</ele>
        <time>2015-11-14T07:28:01Z</time>
      </trkpt>
      <trkpt lat="45.21821" lon="5.70913">
        <ele>636</ele>
        <time>2015-11-14T07:28:02Z</time>
      </trkpt>
      <trkpt lat="45.21823" lon="5.70914">
        <ele>636</ele>
        <time>2015-11-14T07:28:03Z</time>
      </trkpt>
      <trkpt lat="45.21826" lon="5.70913">
        <ele>636</ele>
        <time>2015-11-14T07:28:05Z</time>
      </trkpt>
      <trkpt lat="45.21829" lon="5.70912">
        <ele>636</ele>
        <time>2015-11-14T07:28:07Z</time>
      </trkpt>
      <trkpt lat="45.21832" lon="5.70911">
        <ele>637</ele>
        <time>2015-11-14T07:28:09Z</time>
      </trkpt>
      <trkpt lat="45.21834" lon="5.70911">
        <ele>637</ele>
        <time>2015-11-14T07:28:11Z</time>
      </trkpt>
      <trkpt lat="45.21837" lon="5.70909">
        <ele>637</ele>
        <time>2015-11-14T07:28:13Z</time>
      </trkpt>
      <trkpt lat="45.21838" lon="5.70908">
        <ele>637</ele>
        <time>2015-11-14T07:28:15Z</time>
      </trkpt>
      <trkpt lat="45.21841" lon="5.70908">
        <ele>638</ele>
        <time>2015-11-14T07:28:17Z</time>
      </trkpt>
      <trkpt lat="45.21843" lon="5.70907">
        <ele>638</ele>
        <time>2015-11-14T07:28:19Z</time>
      </trkpt>
      <trkpt lat="45.21845" lon="5.70906">
        <ele>638</ele>
        <time>2015-11-14T07:28:21Z</time>
      </trkpt>
      <trkpt lat="45.21847" lon="5.70905">
        <ele>638.2</ele>
        <time>2015-11-14T07:28:24Z</time>
      </trkpt>
      <trkpt lat="45.2185" lon="5.70906">
        <ele>639</ele>
        <time>2015-11-14T07:28:27Z</time>
      </trkpt>
      <trkpt lat="45.21855" lon="5.7091">
        <ele>640</ele>
        <time>2015-11-14T07:28:34Z</time>
      </trkpt>
      <trkpt lat="45.21857" lon="5.70911">
        <ele>640</ele>
        <time>2015-11-14T07:28:36Z</time>
      </trkpt>
      <trkpt lat="45.21863" lon="5.70913">
        <ele>642</ele>
        <time>2015-11-14T07:28:45Z</time>
      </trkpt>
      <trkpt lat="45.21865" lon="5.70914">
        <ele>642</ele>
        <time>2015-11-14T07:28:47Z</time>
      </trkpt>
      <trkpt lat="45.21867" lon="5.70916">
        <ele>642.2</ele>
        <time>2015-11-14T07:28:49Z</time>
      </trkpt>
      <trkpt lat="45.21873" lon="5.70919">
        <ele>644</ele>
        <time>2015-11-14T07:28:56Z</time>
      </trkpt>
      <trkpt lat="45.21875" lon="5.70919">
        <ele>644</ele>
        <time>2015-11-14T07:28:58Z</time>
      </trkpt>
      <trkpt lat="45.21878" lon="5.7092">
        <ele>645</ele>
        <time>2015-11-14T07:29:01Z</time>
      </trkpt>
      <trkpt lat="45.2188" lon="5.7092">
        <ele>646.2</ele>
        <time>2015-11-14T07:29:03Z</time>
      </trkpt>
      <trkpt lat="45.21882" lon="5.70919">
        <ele>647</ele>
        <time>2015-11-14T07:29:06Z</time>
      </trkpt>
      <trkpt lat="45.21884" lon="5.70918">
        <ele>648</ele>
        <time>2015-11-14T07:29:08Z</time>
      </trkpt>
      <trkpt lat="45.21886" lon="5.70917">
        <ele>648.2</ele>
        <time>2015-11-14T07:29:10Z</time>
      </trkpt>
      <trkpt lat="45.21888" lon="5.70917">
        <ele>649</ele>
        <time>2015-11-14T07:29:12Z</time>
      </trkpt>
      <trkpt lat="45.2189" lon="5.70919">
        <ele>649</ele>
        <time>2015-11-14T07:29:14Z</time>
      </trkpt>
      <trkpt lat="45.21891" lon="5.70921">
        <ele>649.9</ele>
        <time>2015-11-14T07:29:16Z</time>
      </trkpt>
      <trkpt lat="45.21893" lon="5.70923">
        <ele>650</ele>
        <time>2015-11-14T07:29:18Z</time>
      </trkpt>
      <trkpt lat="45.21895" lon="5.70924">
        <ele>650.2</ele>
        <time>2015-11-14T07:29:20Z</time>
      </trkpt>
      <trkpt lat="45.21897" lon="5.70925">
        <ele>651</ele>
        <time>2015-11-14T07:29:22Z</time>
      </trkpt>
      <trkpt lat="45.21899" lon="5.70926">
        <ele>651.2</ele>
        <time>2015-11-14T07:29:24Z</time>
      </trkpt>
      <trkpt lat="45.21902" lon="5.70927">
        <ele>652</ele>
        <time>2015-11-14T07:29:26Z</time>
      </trkpt>
      <trkpt lat="45.21904" lon="5.70927">
        <ele>653</ele>
        <time>2015-11-14T07:29:28Z</time>
      </trkpt>
      <trkpt lat="45.21906" lon="5.70927">
        <ele>653</ele>
        <time>2015-11-14T07:29:32Z</time>
      </trkpt>
      <trkpt lat="45.2191" lon="5.7093">
        <ele>654.2</ele>
        <time>2015-11-14T07:29:37Z</time>
      </trkpt>
      <trkpt lat="45.21912" lon="5.70932">
        <ele>655</ele>
        <time>2015-11-14T07:29:40Z</time>
      </trkpt>
      <trkpt lat="45.21918" lon="5.70934">
        <ele>657</ele>
        <time>2015-11-14T07:29:47Z</time>
      </trkpt>
      <trkpt lat="45.2192" lon="5.70934">
        <ele>658</ele>
        <time>2015-11-14T07:29:50Z</time>
      </trkpt>
      <trkpt lat="45.21922" lon="5.70934">
        <ele>658</ele>
        <time>2015-11-14T07:29:53Z</time>
      </trkpt>
      <trkpt lat="45.21925" lon="5.70935">
        <ele>659.1</ele>
        <time>2015-11-14T07:29:58Z</time>
      </trkpt>
      <trkpt lat="45.21927" lon="5.70935">
        <ele>660</ele>
        <time>2015-11-14T07:30:00Z</time>
      </trkpt>
      <trkpt lat="45.21929" lon="5.70935">
        <ele>661</ele>
        <time>2015-11-14T07:30:02Z</time>
      </trkpt>
      <trkpt lat="45.21932" lon="5.70936">
        <ele>661.2</ele>
        <time>2015-11-14T07:30:04Z</time>
      </trkpt>
      <trkpt lat="45.21933" lon="5.70937">
        <ele>662</ele>
        <time>2015-11-14T07:30:06Z</time>
      </trkpt>
      <trkpt lat="45.21935" lon="5.70938">
        <ele>663</ele>
        <time>2015-11-14T07:30:08Z</time>
      </trkpt>
      <trkpt lat="45.21938" lon="5.70939">
        <ele>663.2</ele>
        <time>2015-11-14T07:30:11Z</time>
      </trkpt>
      <trkpt lat="45.21941" lon="5.70939">
        <ele>664</ele>
        <time>2015-11-14T07:30:14Z</time>
      </trkpt>
      <trkpt lat="45.21943" lon="5.7094">
        <ele>664.2</ele>
        <time>2015-11-14T07:30:16Z</time>
      </trkpt>
      <trkpt lat="45.21944" lon="5.70941">
        <ele>665</ele>
        <time>2015-11-14T07:30:17Z</time>
      </trkpt>
      <trkpt lat="45.21947" lon="5.70943">
        <ele>665</ele>
        <time>2015-11-14T07:30:19Z</time>
      </trkpt>
      <trkpt lat="45.21949" lon="5.70942">
        <ele>666</ele>
        <time>2015-11-14T07:30:21Z</time>
      </trkpt>
      <trkpt lat="45.21953" lon="5.70942">
        <ele>666.2</ele>
        <time>2015-11-14T07:30:24Z</time>
      </trkpt>
      <trkpt lat="45.21963" lon="5.70943">
        <ele>668</ele>
        <time>2015-11-14T07:30:31Z</time>
      </trkpt>
      <trkpt lat="45.21966" lon="5.70944">
        <ele>669</ele>
        <time>2015-11-14T07:30:33Z</time>
      </trkpt>
      <trkpt lat="45.21968" lon="5.70944">
        <ele>669.2</ele>
        <time>2015-11-14T07:30:35Z</time>
      </trkpt>
      <trkpt lat="45.21974" lon="5.70946">
        <ele>671.1</ele>
        <time>2015-11-14T07:30:39Z</time>
      </trkpt>
      <trkpt lat="45.21976" lon="5.70948">
        <ele>672</ele>
        <time>2015-11-14T07:30:41Z</time>
      </trkpt>
      <trkpt lat="45.21979" lon="5.7095">
        <ele>673</ele>
        <time>2015-11-14T07:30:43Z</time>
      </trkpt>
      <trkpt lat="45.21981" lon="5.70951">
        <ele>673.2</ele>
        <time>2015-11-14T07:30:45Z</time>
      </trkpt>
      <trkpt lat="45.21981" lon="5.70954">
        <ele>680</ele>
        <time>2015-11-14T07:31:04Z</time>
      </trkpt>
      <trkpt lat="45.21984" lon="5.70954">
        <ele>682</ele>
        <time>2015-11-14T07:31:14Z</time>
      </trkpt>
      <trkpt lat="45.21987" lon="5.70957">
        <ele>686.2</ele>
        <time>2015-11-14T07:31:44Z</time>
      </trkpt>
      <trkpt lat="45.21987" lon="5.70951">
        <ele>687</ele>
        <time>2015-11-14T07:32:18Z</time>
      </trkpt>
      <trkpt lat="45.21987" lon="5.70947">
        <ele>688</ele>
        <time>2015-11-14T07:32:25Z</time>
      </trkpt>
      <trkpt lat="45.21986" lon="5.70945">
        <ele>688</ele>
        <time>2015-11-14T07:32:28Z</time>
      </trkpt>
      <trkpt lat="45.21987" lon="5.70941">
        <ele>689</ele>
        <time>2015-11-14T07:32:55Z</time>
      </trkpt>
      <trkpt lat="45.21988" lon="5.70939">
        <ele>689</ele>
        <time>2015-11-14T07:32:56Z</time>
      </trkpt>
      <trkpt lat="45.21989" lon="5.70936">
        <ele>689</ele>
        <time>2015-11-14T07:32:57Z</time>
      </trkpt>
      <trkpt lat="45.21991" lon="5.70932">
        <ele>689</ele>
        <time>2015-11-14T07:32:58Z</time>
      </trkpt>
      <trkpt lat="45.21992" lon="5.70929">
        <ele>689</ele>
        <time>2015-11-14T07:32:59Z</time>
      </trkpt>
      <trkpt lat="45.21993" lon="5.70925">
        <ele>689</ele>
        <time>2015-11-14T07:33:00Z</time>
      </trkpt>
      <trkpt lat="45.21994" lon="5.70921">
        <ele>689</ele>
        <time>2015-11-14T07:33:01Z</time>
      </trkpt>
      <trkpt lat="45.21996" lon="5.70918">
        <ele>689</ele>
        <time>2015-11-14T07:33:02Z</time>
      </trkpt>
      <trkpt lat="45.21997" lon="5.70914">
        <ele>689</ele>
        <time>2015-11-14T07:33:03Z</time>
      </trkpt>
      <trkpt lat="45.21998" lon="5.70911">
        <ele>689</ele>
        <time>2015-11-14T07:33:04Z</time>
      </trkpt>
      <trkpt lat="45.22" lon="5.70908">
        <ele>689</ele>
        <time>2015-11-14T07:33:05Z</time>
      </trkpt>
      <trkpt lat="45.22001" lon="5.70904">
        <ele>689</ele>
        <time>2015-11-14T07:33:06Z</time>
      </trkpt>
      <trkpt lat="45.22002" lon="5.70902">
        <ele>689</ele>
        <time>2015-11-14T07:33:07Z</time>
      </trkpt>
      <trkpt lat="45.22003" lon="5.709">
        <ele>689</ele>
        <time>2015-11-14T07:33:08Z</time>
      </trkpt>
      <trkpt lat="45.22005" lon="5.70896">
        <ele>689</ele>
        <time>2015-11-14T07:33:09Z</time>
      </trkpt>
      <trkpt lat="45.22006" lon="5.70893">
        <ele>689</ele>
        <time>2015-11-14T07:33:10Z</time>
      </trkpt>
      <trkpt lat="45.22007" lon="5.70889">
        <ele>689</ele>
        <time>2015-11-14T07:33:11Z</time>
      </trkpt>
      <trkpt lat="45.22009" lon="5.70887">
        <ele>689</ele>
        <time>2015-11-14T07:33:12Z</time>
      </trkpt>
      <trkpt lat="45.2201" lon="5.70883">
        <ele>689</ele>
        <time>2015-11-14T07:33:13Z</time>
      </trkpt>
      <trkpt lat="45.22011" lon="5.7088">
        <ele>689</ele>
        <time>2015-11-14T07:33:14Z</time>
      </trkpt>
      <trkpt lat="45.22012" lon="5.70876">
        <ele>689</ele>
        <time>2015-11-14T07:33:15Z</time>
      </trkpt>
      <trkpt lat="45.22013" lon="5.70873">
        <ele>689</ele>
        <time>2015-11-14T07:33:16Z</time>
      </trkpt>
      <trkpt lat="45.22015" lon="5.7087">
        <ele>689.1</ele>
        <time>2015-11-14T07:33:17Z</time>
      </trkpt>
      <trkpt lat="45.22016" lon="5.70867">
        <ele>690</ele>
        <time>2015-11-14T07:33:18Z</time>
      </trkpt>
      <trkpt lat="45.22018" lon="5.70864">
        <ele>690</ele>
        <time>2015-11-14T07:33:19Z</time>
      </trkpt>
      <trkpt lat="45.22027" lon="5.70855">
        <ele>690</ele>
        <time>2015-11-14T07:33:23Z</time>
      </trkpt>
      <trkpt lat="45.22036" lon="5.7085">
        <ele>690</ele>
        <time>2015-11-14T07:33:27Z</time>
      </trkpt>
      <trkpt lat="45.22046" lon="5.70847">
        <ele>690.2</ele>
        <time>2015-11-14T07:33:31Z</time>
      </trkpt>
      <trkpt lat="45.22054" lon="5.70841">
        <ele>691</ele>
        <time>2015-11-14T07:33:36Z</time>
      </trkpt>
      <trkpt lat="45.22062" lon="5.70835">
        <ele>693</ele>
        <time>2015-11-14T07:33:44Z</time>
      </trkpt>
      <trkpt lat="45.22069" lon="5.70826">
        <ele>695</ele>
        <time>2015-11-14T07:33:56Z</time>
      </trkpt>
      <trkpt lat="45.22066" lon="5.70812">
        <ele>698</ele>
        <time>2015-11-14T07:34:09Z</time>
      </trkpt>
      <trkpt lat="45.22068" lon="5.70805">
        <ele>699</ele>
        <time>2015-11-14T07:34:15Z</time>
      </trkpt>
      <trkpt lat="45.22066" lon="5.70812">
        <ele>702</ele>
        <time>2015-11-14T07:34:34Z</time>
      </trkpt>
      <trkpt lat="45.22067" lon="5.70805">
        <ele>704</ele>
        <time>2015-11-14T07:34:37Z</time>
      </trkpt>
      <trkpt lat="45.22067" lon="5.70801">
        <ele>704</ele>
        <time>2015-11-14T07:34:39Z</time>
      </trkpt>
      <trkpt lat="45.22067" lon="5.70798">
        <ele>704</ele>
        <time>2015-11-14T07:34:40Z</time>
      </trkpt>
      <trkpt lat="45.22067" lon="5.70794">
        <ele>705</ele>
        <time>2015-11-14T07:34:41Z</time>
      </trkpt>
      <trkpt lat="45.22067" lon="5.70791">
        <ele>705</ele>
        <time>2015-11-14T07:34:42Z</time>
      </trkpt>
      <trkpt lat="45.22068" lon="5.70787">
        <ele>705</ele>
        <time>2015-11-14T07:34:43Z</time>
      </trkpt>
      <trkpt lat="45.22068" lon="5.70783">
        <ele>705</ele>
        <time>2015-11-14T07:34:44Z</time>
      </trkpt>
      <trkpt lat="45.22068" lon="5.70779">
        <ele>705</ele>
        <time>2015-11-14T07:34:45Z</time>
      </trkpt>
      <trkpt lat="45.22069" lon="5.70776">
        <ele>705</ele>
        <time>2015-11-14T07:34:46Z</time>
      </trkpt>
      <trkpt lat="45.22069" lon="5.70773">
        <ele>705</ele>
        <time>2015-11-14T07:34:47Z</time>
      </trkpt>
      <trkpt lat="45.22069" lon="5.70769">
        <ele>705</ele>
        <time>2015-11-14T07:34:48Z</time>
      </trkpt>
      <trkpt lat="45.2207" lon="5.70765">
        <ele>705</ele>
        <time>2015-11-14T07:34:49Z</time>
      </trkpt>
      <trkpt lat="45.2207" lon="5.70762">
        <ele>705</ele>
        <time>2015-11-14T07:34:50Z</time>
      </trkpt>
      <trkpt lat="45.22071" lon="5.70759">
        <ele>705</ele>
        <time>2015-11-14T07:34:51Z</time>
      </trkpt>
      <trkpt lat="45.22071" lon="5.70756">
        <ele>705</ele>
        <time>2015-11-14T07:34:52Z</time>
      </trkpt>
      <trkpt lat="45.22071" lon="5.70753">
        <ele>705.2</ele>
        <time>2015-11-14T07:34:53Z</time>
      </trkpt>
      <trkpt lat="45.22071" lon="5.7075">
        <ele>706</ele>
        <time>2015-11-14T07:34:54Z</time>
      </trkpt>
      <trkpt lat="45.22071" lon="5.70747">
        <ele>706</ele>
        <time>2015-11-14T07:34:55Z</time>
      </trkpt>
      <trkpt lat="45.22071" lon="5.70745">
        <ele>706</ele>
        <time>2015-11-14T07:34:56Z</time>
      </trkpt>
      <trkpt lat="45.22072" lon="5.70741">
        <ele>707</ele>
        <time>2015-11-14T07:34:59Z</time>
      </trkpt>
      <trkpt lat="45.22072" lon="5.70736">
        <ele>707.2</ele>
        <time>2015-11-14T07:35:01Z</time>
      </trkpt>
      <trkpt lat="45.22072" lon="5.70734">
        <ele>708</ele>
        <time>2015-11-14T07:35:02Z</time>
      </trkpt>
      <trkpt lat="45.22072" lon="5.70731">
        <ele>708</ele>
        <time>2015-11-14T07:35:03Z</time>
      </trkpt>
      <trkpt lat="45.22072" lon="5.70728">
        <ele>709</ele>
        <time>2015-11-14T07:35:05Z</time>
      </trkpt>
      <trkpt lat="45.22073" lon="5.70725">
        <ele>709</ele>
        <time>2015-11-14T07:35:07Z</time>
      </trkpt>
      <trkpt lat="45.22073" lon="5.70722">
        <ele>709.2</ele>
        <time>2015-11-14T07:35:09Z</time>
      </trkpt>
      <trkpt lat="45.22073" lon="5.70719">
        <ele>710</ele>
        <time>2015-11-14T07:35:11Z</time>
      </trkpt>
      <trkpt lat="45.22073" lon="5.70716">
        <ele>710.2</ele>
        <time>2015-11-14T07:35:13Z</time>
      </trkpt>
      <trkpt lat="45.22074" lon="5.70713">
        <ele>711</ele>
        <time>2015-11-14T07:35:15Z</time>
      </trkpt>
      <trkpt lat="45.22074" lon="5.7071">
        <ele>711</ele>
        <time>2015-11-14T07:35:17Z</time>
      </trkpt>
      <trkpt lat="45.22075" lon="5.70706">
        <ele>712</ele>
        <time>2015-11-14T07:35:19Z</time>
      </trkpt>
      <trkpt lat="45.22075" lon="5.70703">
        <ele>712</ele>
        <time>2015-11-14T07:35:21Z</time>
      </trkpt>
      <trkpt lat="45.22075" lon="5.70699">
        <ele>712</ele>
        <time>2015-11-14T07:35:23Z</time>
      </trkpt>
      <trkpt lat="45.22076" lon="5.70697">
        <ele>713</ele>
        <time>2015-11-14T07:35:26Z</time>
      </trkpt>
      <trkpt lat="45.22077" lon="5.70694">
        <ele>713</ele>
        <time>2015-11-14T07:35:29Z</time>
      </trkpt>
      <trkpt lat="45.22078" lon="5.70691">
        <ele>714</ele>
        <time>2015-11-14T07:35:31Z</time>
      </trkpt>
      <trkpt lat="45.22078" lon="5.70688">
        <ele>714.2</ele>
        <time>2015-11-14T07:35:34Z</time>
      </trkpt>
      <trkpt lat="45.22079" lon="5.70685">
        <ele>715</ele>
        <time>2015-11-14T07:35:36Z</time>
      </trkpt>
      <trkpt lat="45.22079" lon="5.70683">
        <ele>716</ele>
        <time>2015-11-14T07:35:38Z</time>
      </trkpt>
      <trkpt lat="45.22079" lon="5.70679">
        <ele>716</ele>
        <time>2015-11-14T07:35:40Z</time>
      </trkpt>
      <trkpt lat="45.22079" lon="5.70675">
        <ele>717</ele>
        <time>2015-11-14T07:35:42Z</time>
      </trkpt>
      <trkpt lat="45.2208" lon="5.70672">
        <ele>717</ele>
        <time>2015-11-14T07:35:44Z</time>
      </trkpt>
      <trkpt lat="45.2208" lon="5.70669">
        <ele>717</ele>
        <time>2015-11-14T07:35:46Z</time>
      </trkpt>
      <trkpt lat="45.22081" lon="5.70667">
        <ele>718</ele>
        <time>2015-11-14T07:35:48Z</time>
      </trkpt>
      <trkpt lat="45.22082" lon="5.70663">
        <ele>718</ele>
        <time>2015-11-14T07:35:50Z</time>
      </trkpt>
      <trkpt lat="45.22081" lon="5.7066">
        <ele>718.2</ele>
        <time>2015-11-14T07:35:52Z</time>
      </trkpt>
      <trkpt lat="45.22081" lon="5.70657">
        <ele>719</ele>
        <time>2015-11-14T07:35:54Z</time>
      </trkpt>
      <trkpt lat="45.22081" lon="5.70653">
        <ele>719.2</ele>
        <time>2015-11-14T07:35:56Z</time>
      </trkpt>
      <trkpt lat="45.22082" lon="5.7065">
        <ele>720</ele>
        <time>2015-11-14T07:35:58Z</time>
      </trkpt>
      <trkpt lat="45.22082" lon="5.70647">
        <ele>720</ele>
        <time>2015-11-14T07:36:00Z</time>
      </trkpt>
      <trkpt lat="45.22082" lon="5.70644">
        <ele>721</ele>
        <time>2015-11-14T07:36:02Z</time>
      </trkpt>
      <trkpt lat="45.22083" lon="5.70641">
        <ele>721</ele>
        <time>2015-11-14T07:36:04Z</time>
      </trkpt>
      <trkpt lat="45.22084" lon="5.70638">
        <ele>721.2</ele>
        <time>2015-11-14T07:36:06Z</time>
      </trkpt>
      <trkpt lat="45.22084" lon="5.70632">
        <ele>722</ele>
        <time>2015-11-14T07:36:11Z</time>
      </trkpt>
      <trkpt lat="45.22084" lon="5.70629">
        <ele>722</ele>
        <time>2015-11-14T07:36:14Z</time>
      </trkpt>
      <trkpt lat="45.22084" lon="5.70621">
        <ele>723</ele>
        <time>2015-11-14T07:36:19Z</time>
      </trkpt>
      <trkpt lat="45.22084" lon="5.70617">
        <ele>723</ele>
        <time>2015-11-14T07:36:21Z</time>
      </trkpt>
      <trkpt lat="45.22084" lon="5.70613">
        <ele>723.2</ele>
        <time>2015-11-14T07:36:24Z</time>
      </trkpt>
      <trkpt lat="45.22085" lon="5.7061">
        <ele>724</ele>
        <time>2015-11-14T07:36:27Z</time>
      </trkpt>
      <trkpt lat="45.22085" lon="5.70596">
        <ele>725</ele>
        <time>2015-11-14T07:36:34Z</time>
      </trkpt>
      <trkpt lat="45.22087" lon="5.70582">
        <ele>727</ele>
        <time>2015-11-14T07:36:42Z</time>
      </trkpt>
      <trkpt lat="45.22084" lon="5.70569">
        <ele>729</ele>
        <time>2015-11-14T07:36:54Z</time>
      </trkpt>
      <trkpt lat="45.22084" lon="5.70555">
        <ele>730</ele>
        <time>2015-11-14T07:37:02Z</time>
      </trkpt>
      <trkpt lat="45.22081" lon="5.7054">
        <ele>731</ele>
        <time>2015-11-14T07:37:14Z</time>
      </trkpt>
      <trkpt lat="45.22079" lon="5.70523">
        <ele>734</ele>
        <time>2015-11-14T07:37:31Z</time>
      </trkpt>
      <trkpt lat="45.22078" lon="5.70518">
        <ele>733.8</ele>
        <time>2015-11-14T07:37:35Z</time>
      </trkpt>
      <trkpt lat="45.22078" lon="5.70513">
        <ele>731.8</ele>
        <time>2015-11-14T07:37:37Z</time>
      </trkpt>
      <trkpt lat="45.22079" lon="5.70509">
        <ele>730.8</ele>
        <time>2015-11-14T07:37:39Z</time>
      </trkpt>
      <trkpt lat="45.22079" lon="5.70506">
        <ele>730</ele>
        <time>2015-11-14T07:37:41Z</time>
      </trkpt>
      <trkpt lat="45.22079" lon="5.70498">
        <ele>729</ele>
        <time>2015-11-14T07:37:49Z</time>
      </trkpt>
      <trkpt lat="45.22078" lon="5.70496">
        <ele>730</ele>
        <time>2015-11-14T07:37:54Z</time>
      </trkpt>
      <trkpt lat="45.22075" lon="5.705">
        <ele>731</ele>
        <time>2015-11-14T07:39:09Z</time>
      </trkpt>
      <trkpt lat="45.22074" lon="5.70498">
        <ele>731</ele>
        <time>2015-11-14T07:39:11Z</time>
      </trkpt>
      <trkpt lat="45.22072" lon="5.70496">
        <ele>731</ele>
        <time>2015-11-14T07:39:14Z</time>
      </trkpt>
      <trkpt lat="45.22069" lon="5.70491">
        <ele>732</ele>
        <time>2015-11-14T07:39:41Z</time>
      </trkpt>
      <trkpt lat="45.22068" lon="5.70489">
        <ele>731.1</ele>
        <time>2015-11-14T07:39:43Z</time>
      </trkpt>
      <trkpt lat="45.22067" lon="5.70486">
        <ele>731</ele>
        <time>2015-11-14T07:39:46Z</time>
      </trkpt>
      <trkpt lat="45.22066" lon="5.70484">
        <ele>731</ele>
        <time>2015-11-14T07:39:48Z</time>
      </trkpt>
      <trkpt lat="45.22065" lon="5.70481">
        <ele>731</ele>
        <time>2015-11-14T07:39:50Z</time>
      </trkpt>
      <trkpt lat="45.22063" lon="5.70479">
        <ele>731</ele>
        <time>2015-11-14T07:39:52Z</time>
      </trkpt>
      <trkpt lat="45.22061" lon="5.70477">
        <ele>731</ele>
        <time>2015-11-14T07:39:54Z</time>
      </trkpt>
      <trkpt lat="45.22061" lon="5.70475">
        <ele>731</ele>
        <time>2015-11-14T07:39:56Z</time>
      </trkpt>
      <trkpt lat="45.22059" lon="5.70473">
        <ele>731.2</ele>
        <time>2015-11-14T07:39:59Z</time>
      </trkpt>
      <trkpt lat="45.22056" lon="5.70473">
        <ele>732</ele>
        <time>2015-11-14T07:40:01Z</time>
      </trkpt>
      <trkpt lat="45.22053" lon="5.70472">
        <ele>732</ele>
        <time>2015-11-14T07:40:03Z</time>
      </trkpt>
      <trkpt lat="45.22051" lon="5.70471">
        <ele>732</ele>
        <time>2015-11-14T07:40:05Z</time>
      </trkpt>
      <trkpt lat="45.22049" lon="5.70469">
        <ele>732</ele>
        <time>2015-11-14T07:40:07Z</time>
      </trkpt>
      <trkpt lat="45.22044" lon="5.70458">
        <ele>733</ele>
        <time>2015-11-14T07:40:17Z</time>
      </trkpt>
      <trkpt lat="45.22042" lon="5.70456">
        <ele>733</ele>
        <time>2015-11-14T07:40:20Z</time>
      </trkpt>
      <trkpt lat="45.2204" lon="5.70454">
        <ele>733</ele>
        <time>2015-11-14T07:40:23Z</time>
      </trkpt>
      <trkpt lat="45.22037" lon="5.70445">
        <ele>732</ele>
        <time>2015-11-14T07:40:49Z</time>
      </trkpt>
      <trkpt lat="45.22034" lon="5.70443">
        <ele>733</ele>
        <time>2015-11-14T07:41:19Z</time>
      </trkpt>
      <trkpt lat="45.22031" lon="5.70442">
        <ele>733</ele>
        <time>2015-11-14T07:41:21Z</time>
      </trkpt>
      <trkpt lat="45.22029" lon="5.70442">
        <ele>733</ele>
        <time>2015-11-14T07:41:23Z</time>
      </trkpt>
      <trkpt lat="45.22026" lon="5.70441">
        <ele>733</ele>
        <time>2015-11-14T07:41:26Z</time>
      </trkpt>
      <trkpt lat="45.22023" lon="5.70439">
        <ele>732.8</ele>
        <time>2015-11-14T07:41:30Z</time>
      </trkpt>
      <trkpt lat="45.22021" lon="5.70436">
        <ele>732</ele>
        <time>2015-11-14T07:41:34Z</time>
      </trkpt>
      <trkpt lat="45.2202" lon="5.70431">
        <ele>731</ele>
        <time>2015-11-14T07:41:37Z</time>
      </trkpt>
      <trkpt lat="45.22018" lon="5.70429">
        <ele>730</ele>
        <time>2015-11-14T07:41:39Z</time>
      </trkpt>
      <trkpt lat="45.22017" lon="5.70427">
        <ele>730</ele>
        <time>2015-11-14T07:41:41Z</time>
      </trkpt>
      <trkpt lat="45.22018" lon="5.70419">
        <ele>728</ele>
        <time>2015-11-14T07:42:34Z</time>
      </trkpt>
      <trkpt lat="45.22016" lon="5.70418">
        <ele>728</ele>
        <time>2015-11-14T07:42:37Z</time>
      </trkpt>
      <trkpt lat="45.22007" lon="5.70414">
        <ele>728</ele>
        <time>2015-11-14T07:42:48Z</time>
      </trkpt>
      <trkpt lat="45.21999" lon="5.70409">
        <ele>728</ele>
        <time>2015-11-14T07:43:48Z</time>
      </trkpt>
      <trkpt lat="45.21996" lon="5.70396">
        <ele>727</ele>
        <time>2015-11-14T07:44:27Z</time>
      </trkpt>
      <trkpt lat="45.21987" lon="5.70392">
        <ele>729</ele>
        <time>2015-11-14T07:44:40Z</time>
      </trkpt>
      <trkpt lat="45.21978" lon="5.70398">
        <ele>729</ele>
        <time>2015-11-14T07:44:46Z</time>
      </trkpt>
      <trkpt lat="45.21968" lon="5.70395">
        <ele>729</ele>
        <time>2015-11-14T07:44:56Z</time>
      </trkpt>
      <trkpt lat="45.2196" lon="5.70391">
        <ele>729</ele>
        <time>2015-11-14T07:45:11Z</time>
      </trkpt>
      <trkpt lat="45.21959" lon="5.70387">
        <ele>728</ele>
        <time>2015-11-14T07:45:23Z</time>
      </trkpt>
      <trkpt lat="45.21956" lon="5.70387">
        <ele>728</ele>
        <time>2015-11-14T07:45:27Z</time>
      </trkpt>
      <trkpt lat="45.21954" lon="5.70386">
        <ele>728</ele>
        <time>2015-11-14T07:45:30Z</time>
      </trkpt>
      <trkpt lat="45.21949" lon="5.70382">
        <ele>728</ele>
        <time>2015-11-14T07:45:46Z</time>
      </trkpt>
      <trkpt lat="45.21947" lon="5.70381">
        <ele>728</ele>
        <time>2015-11-14T07:45:48Z</time>
      </trkpt>
      <trkpt lat="45.21945" lon="5.70378">
        <ele>728.2</ele>
        <time>2015-11-14T07:45:52Z</time>
      </trkpt>
      <trkpt lat="45.21944" lon="5.70378">
        <ele>729</ele>
        <time>2015-11-14T07:45:59Z</time>
      </trkpt>
      <trkpt lat="45.21942" lon="5.70375">
        <ele>729</ele>
        <time>2015-11-14T07:46:02Z</time>
      </trkpt>
      <trkpt lat="45.2194" lon="5.70369">
        <ele>731</ele>
        <time>2015-11-14T07:46:10Z</time>
      </trkpt>
      <trkpt lat="45.21939" lon="5.70366">
        <ele>732</ele>
        <time>2015-11-14T07:46:12Z</time>
      </trkpt>
      <trkpt lat="45.21937" lon="5.70364">
        <ele>732</ele>
        <time>2015-11-14T07:46:14Z</time>
      </trkpt>
      <trkpt lat="45.21936" lon="5.70362">
        <ele>732</ele>
        <time>2015-11-14T07:46:16Z</time>
      </trkpt>
      <trkpt lat="45.21935" lon="5.70359">
        <ele>732.2</ele>
        <time>2015-11-14T07:46:19Z</time>
      </trkpt>
      <trkpt lat="45.21933" lon="5.70357">
        <ele>733</ele>
        <time>2015-11-14T07:46:21Z</time>
      </trkpt>
      <trkpt lat="45.21932" lon="5.70354">
        <ele>734</ele>
        <time>2015-11-14T07:46:25Z</time>
      </trkpt>
      <trkpt lat="45.2193" lon="5.70353">
        <ele>734</ele>
        <time>2015-11-14T07:46:27Z</time>
      </trkpt>
      <trkpt lat="45.21929" lon="5.70351">
        <ele>734.2</ele>
        <time>2015-11-14T07:46:30Z</time>
      </trkpt>
      <trkpt lat="45.21927" lon="5.70347">
        <ele>736</ele>
        <time>2015-11-14T07:46:43Z</time>
      </trkpt>
      <trkpt lat="45.21926" lon="5.70344">
        <ele>736</ele>
        <time>2015-11-14T07:46:49Z</time>
      </trkpt>
      <trkpt lat="45.21925" lon="5.70341">
        <ele>737</ele>
        <time>2015-11-14T07:46:52Z</time>
      </trkpt>
      <trkpt lat="45.21924" lon="5.70338">
        <ele>737</ele>
        <time>2015-11-14T07:46:55Z</time>
      </trkpt>
      <trkpt lat="45.21925" lon="5.7033">
        <ele>738</ele>
        <time>2015-11-14T07:47:03Z</time>
      </trkpt>
      <trkpt lat="45.21925" lon="5.70327">
        <ele>738</ele>
        <time>2015-11-14T07:47:06Z</time>
      </trkpt>
      <trkpt lat="45.21924" lon="5.7032">
        <ele>741</ele>
        <time>2015-11-14T07:47:18Z</time>
      </trkpt>
      <trkpt lat="45.21926" lon="5.70322">
        <ele>744</ele>
        <time>2015-11-14T07:48:46Z</time>
      </trkpt>
      <trkpt lat="45.21928" lon="5.70322">
        <ele>744</ele>
        <time>2015-11-14T07:48:49Z</time>
      </trkpt>
      <trkpt lat="45.21932" lon="5.70325">
        <ele>744</ele>
        <time>2015-11-14T07:48:57Z</time>
      </trkpt>
      <trkpt lat="45.21934" lon="5.70325">
        <ele>744</ele>
        <time>2015-11-14T07:49:00Z</time>
      </trkpt>
      <trkpt lat="45.21939" lon="5.70328">
        <ele>745</ele>
        <time>2015-11-14T07:49:08Z</time>
      </trkpt>
      <trkpt lat="45.21944" lon="5.70332">
        <ele>747</ele>
        <time>2015-11-14T07:49:19Z</time>
      </trkpt>
      <trkpt lat="45.21946" lon="5.70332">
        <ele>747</ele>
        <time>2015-11-14T07:49:22Z</time>
      </trkpt>
      <trkpt lat="45.21948" lon="5.70334">
        <ele>750</ele>
        <time>2015-11-14T07:49:32Z</time>
      </trkpt>
      <trkpt lat="45.2195" lon="5.70336">
        <ele>751</ele>
        <time>2015-11-14T07:49:37Z</time>
      </trkpt>
      <trkpt lat="45.21951" lon="5.70339">
        <ele>752</ele>
        <time>2015-11-14T07:49:41Z</time>
      </trkpt>
      <trkpt lat="45.21955" lon="5.70344">
        <ele>756</ele>
        <time>2015-11-14T07:49:53Z</time>
      </trkpt>
      <trkpt lat="45.2196" lon="5.70347">
        <ele>759</ele>
        <time>2015-11-14T07:50:19Z</time>
      </trkpt>
      <trkpt lat="45.21961" lon="5.70349">
        <ele>760</ele>
        <time>2015-11-14T07:50:24Z</time>
      </trkpt>
      <trkpt lat="45.21965" lon="5.70351">
        <ele>762</ele>
        <time>2015-11-14T07:50:36Z</time>
      </trkpt>
      <trkpt lat="45.21969" lon="5.70351">
        <ele>765</ele>
        <time>2015-11-14T07:50:50Z</time>
      </trkpt>
      <trkpt lat="45.21971" lon="5.70351">
        <ele>766.1</ele>
        <time>2015-11-14T07:50:54Z</time>
      </trkpt>
      <trkpt lat="45.21969" lon="5.7035">
        <ele>771.2</ele>
        <time>2015-11-14T07:51:13Z</time>
      </trkpt>
      <trkpt lat="45.21967" lon="5.70349">
        <ele>772</ele>
        <time>2015-11-14T07:51:16Z</time>
      </trkpt>
      <trkpt lat="45.21964" lon="5.70345">
        <ele>775</ele>
        <time>2015-11-14T07:51:26Z</time>
      </trkpt>
      <trkpt lat="45.2196" lon="5.70343">
        <ele>778</ele>
        <time>2015-11-14T07:51:49Z</time>
      </trkpt>
      <trkpt lat="45.21958" lon="5.70344">
        <ele>778</ele>
        <time>2015-11-14T07:51:57Z</time>
      </trkpt>
      <trkpt lat="45.21953" lon="5.70342">
        <ele>777</ele>
        <time>2015-11-14T07:52:32Z</time>
      </trkpt>
      <trkpt lat="45.21948" lon="5.7034">
        <ele>776</ele>
        <time>2015-11-14T07:52:46Z</time>
      </trkpt>
      <trkpt lat="45.21945" lon="5.70338">
        <ele>775</ele>
        <time>2015-11-14T07:52:53Z</time>
      </trkpt>
      <trkpt lat="45.21943" lon="5.70336">
        <ele>775</ele>
        <time>2015-11-14T07:52:55Z</time>
      </trkpt>
      <trkpt lat="45.21942" lon="5.70335">
        <ele>775</ele>
        <time>2015-11-14T07:52:59Z</time>
      </trkpt>
      <trkpt lat="45.2194" lon="5.70333">
        <ele>774.8</ele>
        <time>2015-11-14T07:53:02Z</time>
      </trkpt>
      <trkpt lat="45.21939" lon="5.70331">
        <ele>774</ele>
        <time>2015-11-14T07:53:05Z</time>
      </trkpt>
      <trkpt lat="45.21938" lon="5.70329">
        <ele>774</ele>
        <time>2015-11-14T07:53:07Z</time>
      </trkpt>
      <trkpt lat="45.21936" lon="5.70327">
        <ele>774</ele>
        <time>2015-11-14T07:53:09Z</time>
      </trkpt>
      <trkpt lat="45.21934" lon="5.70325">
        <ele>774</ele>
        <time>2015-11-14T07:53:12Z</time>
      </trkpt>
      <trkpt lat="45.21933" lon="5.70322">
        <ele>774</ele>
        <time>2015-11-14T07:53:14Z</time>
      </trkpt>
      <trkpt lat="45.2193" lon="5.70316">
        <ele>773</ele>
        <time>2015-11-14T07:53:26Z</time>
      </trkpt>
      <trkpt lat="45.21927" lon="5.70313">
        <ele>770</ele>
        <time>2015-11-14T07:53:48Z</time>
      </trkpt>
      <trkpt lat="45.21925" lon="5.70312">
        <ele>769.8</ele>
        <time>2015-11-14T07:53:51Z</time>
      </trkpt>
      <trkpt lat="45.21923" lon="5.70311">
        <ele>769</ele>
        <time>2015-11-14T07:53:54Z</time>
      </trkpt>
      <trkpt lat="45.21921" lon="5.70309">
        <ele>769</ele>
        <time>2015-11-14T07:53:56Z</time>
      </trkpt>
      <trkpt lat="45.21917" lon="5.70305">
        <ele>767</ele>
        <time>2015-11-14T07:54:13Z</time>
      </trkpt>
      <trkpt lat="45.21916" lon="5.70304">
        <ele>766</ele>
        <time>2015-11-14T07:54:19Z</time>
      </trkpt>
      <trkpt lat="45.21915" lon="5.70301">
        <ele>766</ele>
        <time>2015-11-14T07:54:22Z</time>
      </trkpt>
      <trkpt lat="45.21914" lon="5.70298">
        <ele>765</ele>
        <time>2015-11-14T07:54:24Z</time>
      </trkpt>
      <trkpt lat="45.21911" lon="5.70295">
        <ele>765</ele>
        <time>2015-11-14T07:54:26Z</time>
      </trkpt>
      <trkpt lat="45.2191" lon="5.70292">
        <ele>765</ele>
        <time>2015-11-14T07:54:29Z</time>
      </trkpt>
      <trkpt lat="45.21909" lon="5.70288">
        <ele>765</ele>
        <time>2015-11-14T07:54:31Z</time>
      </trkpt>
      <trkpt lat="45.21908" lon="5.70286">
        <ele>765</ele>
        <time>2015-11-14T07:54:33Z</time>
      </trkpt>
      <trkpt lat="45.21907" lon="5.7028">
        <ele>765</ele>
        <time>2015-11-14T07:54:39Z</time>
      </trkpt>
      <trkpt lat="45.21906" lon="5.70277">
        <ele>765</ele>
        <time>2015-11-14T07:54:42Z</time>
      </trkpt>
      <trkpt lat="45.21905" lon="5.70275">
        <ele>765</ele>
        <time>2015-11-14T07:54:45Z</time>
      </trkpt>
      <trkpt lat="45.21906" lon="5.70268">
        <ele>766</ele>
        <time>2015-11-14T07:54:51Z</time>
      </trkpt>
      <trkpt lat="45.21906" lon="5.70265">
        <ele>766</ele>
        <time>2015-11-14T07:54:55Z</time>
      </trkpt>
      <trkpt lat="45.21905" lon="5.70262">
        <ele>766</ele>
        <time>2015-11-14T07:54:57Z</time>
      </trkpt>
      <trkpt lat="45.21905" lon="5.70258">
        <ele>766</ele>
        <time>2015-11-14T07:55:00Z</time>
      </trkpt>
      <trkpt lat="45.21903" lon="5.70255">
        <ele>766.2</ele>
        <time>2015-11-14T07:55:03Z</time>
      </trkpt>
      <trkpt lat="45.21902" lon="5.70252">
        <ele>767</ele>
        <time>2015-11-14T07:55:06Z</time>
      </trkpt>
      <trkpt lat="45.21901" lon="5.7025">
        <ele>768</ele>
        <time>2015-11-14T07:55:09Z</time>
      </trkpt>
      <trkpt lat="45.21899" lon="5.70248">
        <ele>768</ele>
        <time>2015-11-14T07:55:11Z</time>
      </trkpt>
      <trkpt lat="45.21897" lon="5.70245">
        <ele>768</ele>
        <time>2015-11-14T07:55:13Z</time>
      </trkpt>
      <trkpt lat="45.21896" lon="5.70243">
        <ele>768</ele>
        <time>2015-11-14T07:55:15Z</time>
      </trkpt>
      <trkpt lat="45.21894" lon="5.7024">
        <ele>768</ele>
        <time>2015-11-14T07:55:18Z</time>
      </trkpt>
      <trkpt lat="45.21892" lon="5.70238">
        <ele>767.8</ele>
        <time>2015-11-14T07:55:20Z</time>
      </trkpt>
      <trkpt lat="45.21891" lon="5.70235">
        <ele>767</ele>
        <time>2015-11-14T07:55:23Z</time>
      </trkpt>
      <trkpt lat="45.21893" lon="5.70229">
        <ele>768</ele>
        <time>2015-11-14T07:55:34Z</time>
      </trkpt>
      <trkpt lat="45.21899" lon="5.70226">
        <ele>770</ele>
        <time>2015-11-14T07:55:48Z</time>
      </trkpt>
      <trkpt lat="45.21903" lon="5.70227">
        <ele>772</ele>
        <time>2015-11-14T07:55:57Z</time>
      </trkpt>
      <trkpt lat="45.21905" lon="5.70225">
        <ele>772</ele>
        <time>2015-11-14T07:55:59Z</time>
      </trkpt>
      <trkpt lat="45.21906" lon="5.70222">
        <ele>772</ele>
        <time>2015-11-14T07:56:02Z</time>
      </trkpt>
      <trkpt lat="45.21908" lon="5.70217">
        <ele>774</ele>
        <time>2015-11-14T07:56:14Z</time>
      </trkpt>
      <trkpt lat="45.21909" lon="5.70215">
        <ele>775</ele>
        <time>2015-11-14T07:56:17Z</time>
      </trkpt>
      <trkpt lat="45.21912" lon="5.70216">
        <ele>776</ele>
        <time>2015-11-14T07:56:24Z</time>
      </trkpt>
      <trkpt lat="45.21915" lon="5.70219">
        <ele>780.2</ele>
        <time>2015-11-14T07:58:59Z</time>
      </trkpt>
      <trkpt lat="45.21917" lon="5.70219">
        <ele>781</ele>
        <time>2015-11-14T07:59:03Z</time>
      </trkpt>
      <trkpt lat="45.21919" lon="5.70221">
        <ele>781</ele>
        <time>2015-11-14T07:59:06Z</time>
      </trkpt>
      <trkpt lat="45.2192" lon="5.70223">
        <ele>782</ele>
        <time>2015-11-14T07:59:11Z</time>
      </trkpt>
      <trkpt lat="45.21921" lon="5.70226">
        <ele>782.2</ele>
        <time>2015-11-14T07:59:14Z</time>
      </trkpt>
      <trkpt lat="45.21924" lon="5.70231">
        <ele>785</ele>
        <time>2015-11-14T07:59:29Z</time>
      </trkpt>
      <trkpt lat="45.21926" lon="5.70228">
        <ele>785</ele>
        <time>2015-11-14T07:59:32Z</time>
      </trkpt>
      <trkpt lat="45.21931" lon="5.70231">
        <ele>785</ele>
        <time>2015-11-14T07:59:55Z</time>
      </trkpt>
      <trkpt lat="45.21932" lon="5.70235">
        <ele>789</ele>
        <time>2015-11-14T08:00:14Z</time>
      </trkpt>
      <trkpt lat="45.21935" lon="5.70237">
        <ele>791</ele>
        <time>2015-11-14T08:00:23Z</time>
      </trkpt>
      <trkpt lat="45.21938" lon="5.7024">
        <ele>794</ele>
        <time>2015-11-14T08:01:00Z</time>
      </trkpt>
      <trkpt lat="45.21938" lon="5.70244">
        <ele>794</ele>
        <time>2015-11-14T08:01:03Z</time>
      </trkpt>
      <trkpt lat="45.2194" lon="5.70249">
        <ele>795</ele>
        <time>2015-11-14T08:01:10Z</time>
      </trkpt>
      <trkpt lat="45.21941" lon="5.70251">
        <ele>796</ele>
        <time>2015-11-14T08:01:13Z</time>
      </trkpt>
      <trkpt lat="45.21943" lon="5.70254">
        <ele>796</ele>
        <time>2015-11-14T08:01:16Z</time>
      </trkpt>
      <trkpt lat="45.21945" lon="5.70256">
        <ele>797</ele>
        <time>2015-11-14T08:01:19Z</time>
      </trkpt>
      <trkpt lat="45.21946" lon="5.70259">
        <ele>797</ele>
        <time>2015-11-14T08:01:23Z</time>
      </trkpt>
      <trkpt lat="45.21948" lon="5.7026">
        <ele>798</ele>
        <time>2015-11-14T08:01:28Z</time>
      </trkpt>
      <trkpt lat="45.2195" lon="5.70261">
        <ele>799</ele>
        <time>2015-11-14T08:01:31Z</time>
      </trkpt>
      <trkpt lat="45.21951" lon="5.70263">
        <ele>800</ele>
        <time>2015-11-14T08:01:35Z</time>
      </trkpt>
      <trkpt lat="45.21952" lon="5.70265">
        <ele>800.2</ele>
        <time>2015-11-14T08:01:38Z</time>
      </trkpt>
      <trkpt lat="45.21954" lon="5.70267">
        <ele>801.2</ele>
        <time>2015-11-14T08:01:41Z</time>
      </trkpt>
      <trkpt lat="45.21956" lon="5.70268">
        <ele>802</ele>
        <time>2015-11-14T08:01:44Z</time>
      </trkpt>
      <trkpt lat="45.21957" lon="5.7027">
        <ele>803</ele>
        <time>2015-11-14T08:01:48Z</time>
      </trkpt>
      <trkpt lat="45.21962" lon="5.70272">
        <ele>806</ele>
        <time>2015-11-14T08:02:03Z</time>
      </trkpt>
      <trkpt lat="45.21965" lon="5.70276">
        <ele>810</ele>
        <time>2015-11-14T08:02:32Z</time>
      </trkpt>
      <trkpt lat="45.2197" lon="5.7028">
        <ele>813</ele>
        <time>2015-11-14T08:02:47Z</time>
      </trkpt>
      <trkpt lat="45.21972" lon="5.70281">
        <ele>814</ele>
        <time>2015-11-14T08:02:56Z</time>
      </trkpt>
      <trkpt lat="45.21973" lon="5.70284">
        <ele>815</ele>
        <time>2015-11-14T08:03:00Z</time>
      </trkpt>
      <trkpt lat="45.21974" lon="5.70286">
        <ele>816</ele>
        <time>2015-11-14T08:03:06Z</time>
      </trkpt>
      <trkpt lat="45.21978" lon="5.70288">
        <ele>817.2</ele>
        <time>2015-11-14T08:03:17Z</time>
      </trkpt>
      <trkpt lat="45.2198" lon="5.7029">
        <ele>818</ele>
        <time>2015-11-14T08:03:21Z</time>
      </trkpt>
      <trkpt lat="45.21985" lon="5.70291">
        <ele>820</ele>
        <time>2015-11-14T08:03:29Z</time>
      </trkpt>
      <trkpt lat="45.2199" lon="5.70295">
        <ele>822</ele>
        <time>2015-11-14T08:03:47Z</time>
      </trkpt>
      <trkpt lat="45.21992" lon="5.70295">
        <ele>823</ele>
        <time>2015-11-14T08:03:50Z</time>
      </trkpt>
      <trkpt lat="45.21994" lon="5.70294">
        <ele>824</ele>
        <time>2015-11-14T08:04:09Z</time>
      </trkpt>
      <trkpt lat="45.21996" lon="5.70296">
        <ele>825</ele>
        <time>2015-11-14T08:04:12Z</time>
      </trkpt>
      <trkpt lat="45.21998" lon="5.70298">
        <ele>825.2</ele>
        <time>2015-11-14T08:04:14Z</time>
      </trkpt>
      <trkpt lat="45.22002" lon="5.703">
        <ele>832</ele>
        <time>2015-11-14T08:05:44Z</time>
      </trkpt>
      <trkpt lat="45.22005" lon="5.70301">
        <ele>833</ele>
        <time>2015-11-14T08:06:08Z</time>
      </trkpt>
      <trkpt lat="45.22007" lon="5.70301">
        <ele>833</ele>
        <time>2015-11-14T08:06:11Z</time>
      </trkpt>
      <trkpt lat="45.22009" lon="5.70302">
        <ele>834</ele>
        <time>2015-11-14T08:06:14Z</time>
      </trkpt>
      <trkpt lat="45.22011" lon="5.70302">
        <ele>834</ele>
        <time>2015-11-14T08:06:17Z</time>
      </trkpt>
      <trkpt lat="45.22013" lon="5.70304">
        <ele>834.2</ele>
        <time>2015-11-14T08:06:20Z</time>
      </trkpt>
      <trkpt lat="45.22014" lon="5.70305">
        <ele>835.2</ele>
        <time>2015-11-14T08:06:22Z</time>
      </trkpt>
      <trkpt lat="45.22016" lon="5.70306">
        <ele>836</ele>
        <time>2015-11-14T08:06:24Z</time>
      </trkpt>
      <trkpt lat="45.22018" lon="5.70306">
        <ele>836.2</ele>
        <time>2015-11-14T08:06:26Z</time>
      </trkpt>
      <trkpt lat="45.2202" lon="5.70307">
        <ele>837</ele>
        <time>2015-11-14T08:06:28Z</time>
      </trkpt>
      <trkpt lat="45.22022" lon="5.70309">
        <ele>837.1</ele>
        <time>2015-11-14T08:06:30Z</time>
      </trkpt>
      <trkpt lat="45.22024" lon="5.7031">
        <ele>838</ele>
        <time>2015-11-14T08:06:32Z</time>
      </trkpt>
      <trkpt lat="45.22026" lon="5.70309">
        <ele>838</ele>
        <time>2015-11-14T08:06:34Z</time>
      </trkpt>
      <trkpt lat="45.22029" lon="5.7031">
        <ele>839</ele>
        <time>2015-11-14T08:06:37Z</time>
      </trkpt>
      <trkpt lat="45.22032" lon="5.70314">
        <ele>841</ele>
        <time>2015-11-14T08:06:55Z</time>
      </trkpt>
      <trkpt lat="45.22033" lon="5.70317">
        <ele>843</ele>
        <time>2015-11-14T08:06:59Z</time>
      </trkpt>
      <trkpt lat="45.22035" lon="5.70319">
        <ele>844</ele>
        <time>2015-11-14T08:07:11Z</time>
      </trkpt>
      <trkpt lat="45.22037" lon="5.70321">
        <ele>844</ele>
        <time>2015-11-14T08:07:14Z</time>
      </trkpt>
      <trkpt lat="45.2204" lon="5.70322">
        <ele>844.9</ele>
        <time>2015-11-14T08:07:16Z</time>
      </trkpt>
      <trkpt lat="45.22042" lon="5.70324">
        <ele>845</ele>
        <time>2015-11-14T08:07:18Z</time>
      </trkpt>
      <trkpt lat="45.22045" lon="5.70326">
        <ele>848</ele>
        <time>2015-11-14T08:07:39Z</time>
      </trkpt>
      <trkpt lat="45.22047" lon="5.70325">
        <ele>849.1</ele>
        <time>2015-11-14T08:08:00Z</time>
      </trkpt>
      <trkpt lat="45.22049" lon="5.70326">
        <ele>850</ele>
        <time>2015-11-14T08:08:02Z</time>
      </trkpt>
      <trkpt lat="45.22051" lon="5.70327">
        <ele>851</ele>
        <time>2015-11-14T08:08:05Z</time>
      </trkpt>
      <trkpt lat="45.22053" lon="5.70329">
        <ele>851</ele>
        <time>2015-11-14T08:08:07Z</time>
      </trkpt>
      <trkpt lat="45.22056" lon="5.70331">
        <ele>852</ele>
        <time>2015-11-14T08:08:09Z</time>
      </trkpt>
      <trkpt lat="45.22059" lon="5.70332">
        <ele>852.2</ele>
        <time>2015-11-14T08:08:11Z</time>
      </trkpt>
      <trkpt lat="45.22061" lon="5.70333">
        <ele>853</ele>
        <time>2015-11-14T08:08:13Z</time>
      </trkpt>
      <trkpt lat="45.22063" lon="5.70332">
        <ele>854</ele>
        <time>2015-11-14T08:08:15Z</time>
      </trkpt>
      <trkpt lat="45.22066" lon="5.70334">
        <ele>855</ele>
        <time>2015-11-14T08:08:18Z</time>
      </trkpt>
      <trkpt lat="45.22068" lon="5.70335">
        <ele>856</ele>
        <time>2015-11-14T08:08:20Z</time>
      </trkpt>
      <trkpt lat="45.22069" lon="5.70336">
        <ele>856.2</ele>
        <time>2015-11-14T08:08:22Z</time>
      </trkpt>
      <trkpt lat="45.22071" lon="5.70337">
        <ele>858</ele>
        <time>2015-11-14T08:08:25Z</time>
      </trkpt>
      <trkpt lat="45.22073" lon="5.70339">
        <ele>859</ele>
        <time>2015-11-14T08:08:28Z</time>
      </trkpt>
      <trkpt lat="45.22075" lon="5.7034">
        <ele>859.2</ele>
        <time>2015-11-14T08:08:30Z</time>
      </trkpt>
      <trkpt lat="45.22077" lon="5.7034">
        <ele>860</ele>
        <time>2015-11-14T08:08:32Z</time>
      </trkpt>
      <trkpt lat="45.22079" lon="5.7034">
        <ele>862</ele>
        <time>2015-11-14T08:08:36Z</time>
      </trkpt>
      <trkpt lat="45.22082" lon="5.70341">
        <ele>863</ele>
        <time>2015-11-14T08:08:39Z</time>
      </trkpt>
      <trkpt lat="45.22084" lon="5.70343">
        <ele>864</ele>
        <time>2015-11-14T08:08:42Z</time>
      </trkpt>
      <trkpt lat="45.22085" lon="5.70345">
        <ele>866</ele>
        <time>2015-11-14T08:08:47Z</time>
      </trkpt>
      <trkpt lat="45.22087" lon="5.70346">
        <ele>866.9</ele>
        <time>2015-11-14T08:08:50Z</time>
      </trkpt>
      <trkpt lat="45.22089" lon="5.70346">
        <ele>867</ele>
        <time>2015-11-14T08:08:53Z</time>
      </trkpt>
      <trkpt lat="45.2209" lon="5.70347">
        <ele>867.2</ele>
        <time>2015-11-14T08:08:57Z</time>
      </trkpt>
      <trkpt lat="45.22092" lon="5.70349">
        <ele>868</ele>
        <time>2015-11-14T08:09:01Z</time>
      </trkpt>
      <trkpt lat="45.22094" lon="5.70352">
        <ele>869</ele>
        <time>2015-11-14T08:09:04Z</time>
      </trkpt>
      <trkpt lat="45.22096" lon="5.70351">
        <ele>869.2</ele>
        <time>2015-11-14T08:09:08Z</time>
      </trkpt>
      <trkpt lat="45.22098" lon="5.70352">
        <ele>870</ele>
        <time>2015-11-14T08:09:14Z</time>
      </trkpt>
      <trkpt lat="45.22101" lon="5.70355">
        <ele>873</ele>
        <time>2015-11-14T08:09:32Z</time>
      </trkpt>
      <trkpt lat="45.22102" lon="5.70357">
        <ele>874</ele>
        <time>2015-11-14T08:09:36Z</time>
      </trkpt>
      <trkpt lat="45.22106" lon="5.70358">
        <ele>878</ele>
        <time>2015-11-14T08:09:49Z</time>
      </trkpt>
      <trkpt lat="45.22107" lon="5.7036">
        <ele>878</ele>
        <time>2015-11-14T08:09:53Z</time>
      </trkpt>
      <trkpt lat="45.22111" lon="5.70363">
        <ele>881.2</ele>
        <time>2015-11-14T08:10:09Z</time>
      </trkpt>
      <trkpt lat="45.22114" lon="5.70366">
        <ele>883.2</ele>
        <time>2015-11-14T08:10:16Z</time>
      </trkpt>
      <trkpt lat="45.22118" lon="5.70367">
        <ele>886</ele>
        <time>2015-11-14T08:10:25Z</time>
      </trkpt>
      <trkpt lat="45.2212" lon="5.70371">
        <ele>887</ele>
        <time>2015-11-14T08:10:33Z</time>
      </trkpt>
      <trkpt lat="45.22121" lon="5.70374">
        <ele>888</ele>
        <time>2015-11-14T08:10:40Z</time>
      </trkpt>
      <trkpt lat="45.22123" lon="5.70376">
        <ele>888</ele>
        <time>2015-11-14T08:10:43Z</time>
      </trkpt>
      <trkpt lat="45.22126" lon="5.70379">
        <ele>890</ele>
        <time>2015-11-14T08:10:58Z</time>
      </trkpt>
      <trkpt lat="45.22128" lon="5.70381">
        <ele>890.2</ele>
        <time>2015-11-14T08:11:02Z</time>
      </trkpt>
      <trkpt lat="45.22129" lon="5.70383">
        <ele>891</ele>
        <time>2015-11-14T08:11:06Z</time>
      </trkpt>
      <trkpt lat="45.22132" lon="5.70382">
        <ele>894</ele>
        <time>2015-11-14T08:11:26Z</time>
      </trkpt>
      <trkpt lat="45.22134" lon="5.70384">
        <ele>895.2</ele>
        <time>2015-11-14T08:11:31Z</time>
      </trkpt>
      <trkpt lat="45.22136" lon="5.70389">
        <ele>900</ele>
        <time>2015-11-14T08:11:46Z</time>
      </trkpt>
      <trkpt lat="45.22137" lon="5.70392">
        <ele>901</ele>
        <time>2015-11-14T08:11:49Z</time>
      </trkpt>
      <trkpt lat="45.22139" lon="5.70392">
        <ele>902</ele>
        <time>2015-11-14T08:11:53Z</time>
      </trkpt>
      <trkpt lat="45.22142" lon="5.70396">
        <ele>904.9</ele>
        <time>2015-11-14T08:12:01Z</time>
      </trkpt>
      <trkpt lat="45.22143" lon="5.70397">
        <ele>905.2</ele>
        <time>2015-11-14T08:12:04Z</time>
      </trkpt>
      <trkpt lat="45.22147" lon="5.70399">
        <ele>908.2</ele>
        <time>2015-11-14T08:12:17Z</time>
      </trkpt>
      <trkpt lat="45.2215" lon="5.70403">
        <ele>910</ele>
        <time>2015-11-14T08:12:27Z</time>
      </trkpt>
      <trkpt lat="45.22154" lon="5.70408">
        <ele>915</ele>
        <time>2015-11-14T08:13:10Z</time>
      </trkpt>
      <trkpt lat="45.22155" lon="5.70409">
        <ele>916</ele>
        <time>2015-11-14T08:13:13Z</time>
      </trkpt>
      <trkpt lat="45.22158" lon="5.7041">
        <ele>917</ele>
        <time>2015-11-14T08:13:23Z</time>
      </trkpt>
      <trkpt lat="45.22161" lon="5.70414">
        <ele>921</ele>
        <time>2015-11-14T08:13:38Z</time>
      </trkpt>
      <trkpt lat="45.22163" lon="5.70416">
        <ele>926.2</ele>
        <time>2015-11-14T08:13:58Z</time>
      </trkpt>
      <trkpt lat="45.22165" lon="5.70416">
        <ele>927</ele>
        <time>2015-11-14T08:14:01Z</time>
      </trkpt>
      <trkpt lat="45.22169" lon="5.70419">
        <ele>930</ele>
        <time>2015-11-14T08:14:11Z</time>
      </trkpt>
      <trkpt lat="45.22172" lon="5.70422">
        <ele>932.2</ele>
        <time>2015-11-14T08:14:21Z</time>
      </trkpt>
      <trkpt lat="45.22173" lon="5.70424">
        <ele>933</ele>
        <time>2015-11-14T08:14:24Z</time>
      </trkpt>
      <trkpt lat="45.22175" lon="5.70427">
        <ele>934.2</ele>
        <time>2015-11-14T08:14:28Z</time>
      </trkpt>
      <trkpt lat="45.22177" lon="5.70431">
        <ele>937.2</ele>
        <time>2015-11-14T08:14:36Z</time>
      </trkpt>
      <trkpt lat="45.2218" lon="5.70432">
        <ele>939</ele>
        <time>2015-11-14T08:14:42Z</time>
      </trkpt>
      <trkpt lat="45.22183" lon="5.70433">
        <ele>940</ele>
        <time>2015-11-14T08:14:45Z</time>
      </trkpt>
      <trkpt lat="45.22188" lon="5.70435">
        <ele>943</ele>
        <time>2015-11-14T08:15:02Z</time>
      </trkpt>
      <trkpt lat="45.22192" lon="5.70435">
        <ele>944.2</ele>
        <time>2015-11-14T08:15:13Z</time>
      </trkpt>
      <trkpt lat="45.22197" lon="5.70437">
        <ele>947</ele>
        <time>2015-11-14T08:15:22Z</time>
      </trkpt>
      <trkpt lat="45.22201" lon="5.7044">
        <ele>950</ele>
        <time>2015-11-14T08:15:42Z</time>
      </trkpt>
      <trkpt lat="45.22205" lon="5.70441">
        <ele>951</ele>
        <time>2015-11-14T08:15:50Z</time>
      </trkpt>
      <trkpt lat="45.2221" lon="5.70443">
        <ele>954.2</ele>
        <time>2015-11-14T08:16:16Z</time>
      </trkpt>
      <trkpt lat="45.22211" lon="5.70445">
        <ele>955</ele>
        <time>2015-11-14T08:16:20Z</time>
      </trkpt>
      <trkpt lat="45.22213" lon="5.70452">
        <ele>959</ele>
        <time>2015-11-14T08:16:37Z</time>
      </trkpt>
      <trkpt lat="45.22215" lon="5.70454">
        <ele>962</ele>
        <time>2015-11-14T08:16:52Z</time>
      </trkpt>
      <trkpt lat="45.22215" lon="5.70456">
        <ele>963</ele>
        <time>2015-11-14T08:16:55Z</time>
      </trkpt>
      <trkpt lat="45.22217" lon="5.70456">
        <ele>965</ele>
        <time>2015-11-14T08:17:04Z</time>
      </trkpt>
      <trkpt lat="45.22219" lon="5.70457">
        <ele>966</ele>
        <time>2015-11-14T08:17:09Z</time>
      </trkpt>
      <trkpt lat="45.22224" lon="5.70458">
        <ele>968</ele>
        <time>2015-11-14T08:17:24Z</time>
      </trkpt>
      <trkpt lat="45.22228" lon="5.70459">
        <ele>972</ele>
        <time>2015-11-14T08:17:51Z</time>
      </trkpt>
      <trkpt lat="45.22231" lon="5.70464">
        <ele>978</ele>
        <time>2015-11-14T08:18:23Z</time>
      </trkpt>
      <trkpt lat="45.22235" lon="5.70467">
        <ele>982</ele>
        <time>2015-11-14T08:18:41Z</time>
      </trkpt>
      <trkpt lat="45.22239" lon="5.70467">
        <ele>984.2</ele>
        <time>2015-11-14T08:18:54Z</time>
      </trkpt>
      <trkpt lat="45.22242" lon="5.70471">
        <ele>988.2</ele>
        <time>2015-11-14T08:19:12Z</time>
      </trkpt>
      <trkpt lat="45.22245" lon="5.70472">
        <ele>990</ele>
        <time>2015-11-14T08:19:21Z</time>
      </trkpt>
      <trkpt lat="45.22249" lon="5.70472">
        <ele>992</ele>
        <time>2015-11-14T08:19:36Z</time>
      </trkpt>
      <trkpt lat="45.22252" lon="5.70473">
        <ele>995</ele>
        <time>2015-11-14T08:19:51Z</time>
      </trkpt>
      <trkpt lat="45.22254" lon="5.70472">
        <ele>999</ele>
        <time>2015-11-14T08:20:05Z</time>
      </trkpt>
      <trkpt lat="45.22256" lon="5.7047">
        <ele>999</ele>
        <time>2015-11-14T08:20:08Z</time>
      </trkpt>
      <trkpt lat="45.22256" lon="5.70465">
        <ele>1002</ele>
        <time>2015-11-14T08:20:41Z</time>
      </trkpt>
      <trkpt lat="45.22255" lon="5.70468">
        <ele>1003</ele>
        <time>2015-11-14T08:21:28Z</time>
      </trkpt>
      <trkpt lat="45.22257" lon="5.70466">
        <ele>1004</ele>
        <time>2015-11-14T08:21:38Z</time>
      </trkpt>
      <trkpt lat="45.22257" lon="5.70468">
        <ele>1007</ele>
        <time>2015-11-14T08:23:18Z</time>
      </trkpt>
      <trkpt lat="45.22258" lon="5.70471">
        <ele>1007</ele>
        <time>2015-11-14T08:23:21Z</time>
      </trkpt>
      <trkpt lat="45.22261" lon="5.70473">
        <ele>1010</ele>
        <time>2015-11-14T08:23:50Z</time>
      </trkpt>
      <trkpt lat="45.22263" lon="5.70476">
        <ele>1010</ele>
        <time>2015-11-14T08:24:46Z</time>
      </trkpt>
      <trkpt lat="45.22265" lon="5.70481">
        <ele>1010</ele>
        <time>2015-11-14T08:25:07Z</time>
      </trkpt>
      <trkpt lat="45.22267" lon="5.70483">
        <ele>1010</ele>
        <time>2015-11-14T08:25:08Z</time>
      </trkpt>
      <trkpt lat="45.22269" lon="5.70487">
        <ele>1010</ele>
        <time>2015-11-14T08:25:10Z</time>
      </trkpt>
      <trkpt lat="45.22271" lon="5.70489">
        <ele>1010</ele>
        <time>2015-11-14T08:25:12Z</time>
      </trkpt>
      <trkpt lat="45.22273" lon="5.70495">
        <ele>1008</ele>
        <time>2015-11-14T08:26:08Z</time>
      </trkpt>
      <trkpt lat="45.22274" lon="5.70498">
        <ele>1008</ele>
        <time>2015-11-14T08:26:10Z</time>
      </trkpt>
      <trkpt lat="45.22275" lon="5.70501">
        <ele>1007</ele>
        <time>2015-11-14T08:26:12Z</time>
      </trkpt>
      <trkpt lat="45.22276" lon="5.70504">
        <ele>1007</ele>
        <time>2015-11-14T08:26:14Z</time>
      </trkpt>
      <trkpt lat="45.22277" lon="5.70507">
        <ele>1007</ele>
        <time>2015-11-14T08:26:16Z</time>
      </trkpt>
      <trkpt lat="45.22279" lon="5.7051">
        <ele>1006</ele>
        <time>2015-11-14T08:26:18Z</time>
      </trkpt>
      <trkpt lat="45.2228" lon="5.70512">
        <ele>1006</ele>
        <time>2015-11-14T08:26:19Z</time>
      </trkpt>
      <trkpt lat="45.22281" lon="5.70514">
        <ele>1006</ele>
        <time>2015-11-14T08:26:20Z</time>
      </trkpt>
      <trkpt lat="45.22282" lon="5.70516">
        <ele>1006</ele>
        <time>2015-11-14T08:26:21Z</time>
      </trkpt>
      <trkpt lat="45.22283" lon="5.70519">
        <ele>1006</ele>
        <time>2015-11-14T08:26:22Z</time>
      </trkpt>
      <trkpt lat="45.22283" lon="5.70522">
        <ele>1006</ele>
        <time>2015-11-14T08:26:23Z</time>
      </trkpt>
      <trkpt lat="45.22285" lon="5.70525">
        <ele>1006</ele>
        <time>2015-11-14T08:26:25Z</time>
      </trkpt>
      <trkpt lat="45.22287" lon="5.70527">
        <ele>1006</ele>
        <time>2015-11-14T08:26:27Z</time>
      </trkpt>
      <trkpt lat="45.22288" lon="5.70529">
        <ele>1006</ele>
        <time>2015-11-14T08:26:29Z</time>
      </trkpt>
      <trkpt lat="45.22289" lon="5.70531">
        <ele>1006</ele>
        <time>2015-11-14T08:26:32Z</time>
      </trkpt>
      <trkpt lat="45.2229" lon="5.70533">
        <ele>1007</ele>
        <time>2015-11-14T08:26:35Z</time>
      </trkpt>
      <trkpt lat="45.22291" lon="5.70536">
        <ele>1007.2</ele>
        <time>2015-11-14T08:26:38Z</time>
      </trkpt>
      <trkpt lat="45.22292" lon="5.70539">
        <ele>1008</ele>
        <time>2015-11-14T08:26:41Z</time>
      </trkpt>
      <trkpt lat="45.22293" lon="5.70543">
        <ele>1008</ele>
        <time>2015-11-14T08:26:45Z</time>
      </trkpt>
      <trkpt lat="45.22295" lon="5.70545">
        <ele>1008.2</ele>
        <time>2015-11-14T08:26:47Z</time>
      </trkpt>
      <trkpt lat="45.22295" lon="5.70548">
        <ele>1009</ele>
        <time>2015-11-14T08:26:49Z</time>
      </trkpt>
      <trkpt lat="45.22297" lon="5.7055">
        <ele>1009</ele>
        <time>2015-11-14T08:26:51Z</time>
      </trkpt>
      <trkpt lat="45.22298" lon="5.70552">
        <ele>1009</ele>
        <time>2015-11-14T08:26:56Z</time>
      </trkpt>
      <trkpt lat="45.22301" lon="5.70553">
        <ele>1009.2</ele>
        <time>2015-11-14T08:26:59Z</time>
      </trkpt>
      <trkpt lat="45.22302" lon="5.70555">
        <ele>1010.2</ele>
        <time>2015-11-14T08:27:01Z</time>
      </trkpt>
      <trkpt lat="45.22303" lon="5.70558">
        <ele>1011.2</ele>
        <time>2015-11-14T08:27:04Z</time>
      </trkpt>
      <trkpt lat="45.22304" lon="5.70559">
        <ele>1012</ele>
        <time>2015-11-14T08:27:06Z</time>
      </trkpt>
      <trkpt lat="45.22307" lon="5.7056">
        <ele>1012</ele>
        <time>2015-11-14T08:27:08Z</time>
      </trkpt>
      <trkpt lat="45.22309" lon="5.70561">
        <ele>1012.2</ele>
        <time>2015-11-14T08:27:10Z</time>
      </trkpt>
      <trkpt lat="45.2231" lon="5.70564">
        <ele>1013</ele>
        <time>2015-11-14T08:27:12Z</time>
      </trkpt>
      <trkpt lat="45.22311" lon="5.70566">
        <ele>1013.2</ele>
        <time>2015-11-14T08:27:14Z</time>
      </trkpt>
      <trkpt lat="45.22313" lon="5.70568">
        <ele>1015</ele>
        <time>2015-11-14T08:27:17Z</time>
      </trkpt>
      <trkpt lat="45.22315" lon="5.7057">
        <ele>1016</ele>
        <time>2015-11-14T08:27:20Z</time>
      </trkpt>
      <trkpt lat="45.22316" lon="5.70572">
        <ele>1016</ele>
        <time>2015-11-14T08:27:24Z</time>
      </trkpt>
      <trkpt lat="45.22319" lon="5.70572">
        <ele>1017</ele>
        <time>2015-11-14T08:27:28Z</time>
      </trkpt>
      <trkpt lat="45.22321" lon="5.70573">
        <ele>1018</ele>
        <time>2015-11-14T08:27:31Z</time>
      </trkpt>
      <trkpt lat="45.22323" lon="5.70573">
        <ele>1018</ele>
        <time>2015-11-14T08:27:35Z</time>
      </trkpt>
      <trkpt lat="45.22325" lon="5.70575">
        <ele>1019</ele>
        <time>2015-11-14T08:27:38Z</time>
      </trkpt>
      <trkpt lat="45.22327" lon="5.70579">
        <ele>1019</ele>
        <time>2015-11-14T08:27:45Z</time>
      </trkpt>
      <trkpt lat="45.22329" lon="5.7058">
        <ele>1020</ele>
        <time>2015-11-14T08:27:51Z</time>
      </trkpt>
      <trkpt lat="45.22332" lon="5.70581">
        <ele>1021</ele>
        <time>2015-11-14T08:27:54Z</time>
      </trkpt>
      <trkpt lat="45.22333" lon="5.70581">
        <ele>1021</ele>
        <time>2015-11-14T08:27:56Z</time>
      </trkpt>
      <trkpt lat="45.22336" lon="5.70582">
        <ele>1021</ele>
        <time>2015-11-14T08:27:58Z</time>
      </trkpt>
      <trkpt lat="45.22338" lon="5.70582">
        <ele>1021</ele>
        <time>2015-11-14T08:28:00Z</time>
      </trkpt>
      <trkpt lat="45.2234" lon="5.70582">
        <ele>1021.2</ele>
        <time>2015-11-14T08:28:03Z</time>
      </trkpt>
      <trkpt lat="45.22342" lon="5.70584">
        <ele>1022</ele>
        <time>2015-11-14T08:28:05Z</time>
      </trkpt>
      <trkpt lat="45.22344" lon="5.70585">
        <ele>1022</ele>
        <time>2015-11-14T08:28:07Z</time>
      </trkpt>
      <trkpt lat="45.22345" lon="5.70587">
        <ele>1022</ele>
        <time>2015-11-14T08:28:09Z</time>
      </trkpt>
      <trkpt lat="45.22346" lon="5.7059">
        <ele>1022.2</ele>
        <time>2015-11-14T08:28:11Z</time>
      </trkpt>
      <trkpt lat="45.22347" lon="5.70593">
        <ele>1023</ele>
        <time>2015-11-14T08:28:13Z</time>
      </trkpt>
      <trkpt lat="45.22347" lon="5.70596">
        <ele>1023</ele>
        <time>2015-11-14T08:28:16Z</time>
      </trkpt>
      <trkpt lat="45.22349" lon="5.706">
        <ele>1024</ele>
        <time>2015-11-14T08:28:19Z</time>
      </trkpt>
      <trkpt lat="45.2235" lon="5.70602">
        <ele>1023.9</ele>
        <time>2015-11-14T08:28:22Z</time>
      </trkpt>
      <trkpt lat="45.22349" lon="5.70605">
        <ele>1023</ele>
        <time>2015-11-14T08:28:24Z</time>
      </trkpt>
      <trkpt lat="45.2235" lon="5.70608">
        <ele>1024</ele>
        <time>2015-11-14T08:28:26Z</time>
      </trkpt>
      <trkpt lat="45.22352" lon="5.70611">
        <ele>1024</ele>
        <time>2015-11-14T08:28:28Z</time>
      </trkpt>
      <trkpt lat="45.22354" lon="5.70611">
        <ele>1024</ele>
        <time>2015-11-14T08:28:31Z</time>
      </trkpt>
      <trkpt lat="45.22355" lon="5.70614">
        <ele>1025</ele>
        <time>2015-11-14T08:28:38Z</time>
      </trkpt>
      <trkpt lat="45.22356" lon="5.70617">
        <ele>1025</ele>
        <time>2015-11-14T08:28:41Z</time>
      </trkpt>
      <trkpt lat="45.22357" lon="5.70619">
        <ele>1025.2</ele>
        <time>2015-11-14T08:28:43Z</time>
      </trkpt>
      <trkpt lat="45.22358" lon="5.70622">
        <ele>1026</ele>
        <time>2015-11-14T08:28:46Z</time>
      </trkpt>
      <trkpt lat="45.2236" lon="5.70625">
        <ele>1026</ele>
        <time>2015-11-14T08:28:49Z</time>
      </trkpt>
      <trkpt lat="45.22361" lon="5.70626">
        <ele>1027</ele>
        <time>2015-11-14T08:28:52Z</time>
      </trkpt>
      <trkpt lat="45.22365" lon="5.7063">
        <ele>1027.2</ele>
        <time>2015-11-14T08:29:00Z</time>
      </trkpt>
      <trkpt lat="45.22371" lon="5.70633">
        <ele>1030</ele>
        <time>2015-11-14T08:29:13Z</time>
      </trkpt>
      <trkpt lat="45.22373" lon="5.70634">
        <ele>1030.2</ele>
        <time>2015-11-14T08:29:16Z</time>
      </trkpt>
      <trkpt lat="45.22375" lon="5.70635">
        <ele>1031</ele>
        <time>2015-11-14T08:29:19Z</time>
      </trkpt>
      <trkpt lat="45.22377" lon="5.70635">
        <ele>1032</ele>
        <time>2015-11-14T08:29:23Z</time>
      </trkpt>
      <trkpt lat="45.22379" lon="5.70634">
        <ele>1033</ele>
        <time>2015-11-14T08:29:31Z</time>
      </trkpt>
      <trkpt lat="45.22381" lon="5.70636">
        <ele>1035</ele>
        <time>2015-11-14T08:29:39Z</time>
      </trkpt>
      <trkpt lat="45.22382" lon="5.70638">
        <ele>1036</ele>
        <time>2015-11-14T08:29:43Z</time>
      </trkpt>
      <trkpt lat="45.22385" lon="5.7064">
        <ele>1038</ele>
        <time>2015-11-14T08:29:50Z</time>
      </trkpt>
      <trkpt lat="45.22387" lon="5.70639">
        <ele>1040</ele>
        <time>2015-11-14T08:29:54Z</time>
      </trkpt>
      <trkpt lat="45.22389" lon="5.70637">
        <ele>1041</ele>
        <time>2015-11-14T08:29:58Z</time>
      </trkpt>
      <trkpt lat="45.22391" lon="5.70637">
        <ele>1042</ele>
        <time>2015-11-14T08:30:01Z</time>
      </trkpt>
      <trkpt lat="45.22393" lon="5.70639">
        <ele>1042</ele>
        <time>2015-11-14T08:30:04Z</time>
      </trkpt>
      <trkpt lat="45.22394" lon="5.70642">
        <ele>1043.1</ele>
        <time>2015-11-14T08:30:09Z</time>
      </trkpt>
      <trkpt lat="45.22395" lon="5.70647">
        <ele>1048</ele>
        <time>2015-11-14T08:30:43Z</time>
      </trkpt>
      <trkpt lat="45.22399" lon="5.70648">
        <ele>1053</ele>
        <time>2015-11-14T08:31:17Z</time>
      </trkpt>
      <trkpt lat="45.224" lon="5.70655">
        <ele>1056.2</ele>
        <time>2015-11-14T08:32:02Z</time>
      </trkpt>
      <trkpt lat="45.22403" lon="5.70657">
        <ele>1060.2</ele>
        <time>2015-11-14T08:32:25Z</time>
      </trkpt>
      <trkpt lat="45.22405" lon="5.70663">
        <ele>1069.8</ele>
        <time>2015-11-14T08:34:34Z</time>
      </trkpt>
      <trkpt lat="45.22407" lon="5.70664">
        <ele>1071</ele>
        <time>2015-11-14T08:34:45Z</time>
      </trkpt>
      <trkpt lat="45.2241" lon="5.70667">
        <ele>1073</ele>
        <time>2015-11-14T08:34:58Z</time>
      </trkpt>
      <trkpt lat="45.22413" lon="5.70669">
        <ele>1074</ele>
        <time>2015-11-14T08:35:11Z</time>
      </trkpt>
      <trkpt lat="45.22414" lon="5.7067">
        <ele>1074.1</ele>
        <time>2015-11-14T08:35:14Z</time>
      </trkpt>
      <trkpt lat="45.22419" lon="5.7067">
        <ele>1078</ele>
        <time>2015-11-14T08:35:25Z</time>
      </trkpt>
      <trkpt lat="45.2242" lon="5.70673">
        <ele>1079</ele>
        <time>2015-11-14T08:35:40Z</time>
      </trkpt>
      <trkpt lat="45.22421" lon="5.70675">
        <ele>1080</ele>
        <time>2015-11-14T08:35:43Z</time>
      </trkpt>
      <trkpt lat="45.22422" lon="5.70678">
        <ele>1082</ele>
        <time>2015-11-14T08:35:48Z</time>
      </trkpt>
      <trkpt lat="45.22423" lon="5.7068">
        <ele>1084</ele>
        <time>2015-11-14T08:35:54Z</time>
      </trkpt>
      <trkpt lat="45.22425" lon="5.70678">
        <ele>1086</ele>
        <time>2015-11-14T08:36:00Z</time>
      </trkpt>
      <trkpt lat="45.22428" lon="5.70678">
        <ele>1088</ele>
        <time>2015-11-14T08:36:05Z</time>
      </trkpt>
      <trkpt lat="45.2243" lon="5.70678">
        <ele>1089</ele>
        <time>2015-11-14T08:36:08Z</time>
      </trkpt>
      <trkpt lat="45.22432" lon="5.70678">
        <ele>1090</ele>
        <time>2015-11-14T08:36:14Z</time>
      </trkpt>
      <trkpt lat="45.22434" lon="5.70679">
        <ele>1091.2</ele>
        <time>2015-11-14T08:36:17Z</time>
      </trkpt>
      <trkpt lat="45.22436" lon="5.7068">
        <ele>1092</ele>
        <time>2015-11-14T08:36:20Z</time>
      </trkpt>
      <trkpt lat="45.22437" lon="5.70683">
        <ele>1093</ele>
        <time>2015-11-14T08:36:23Z</time>
      </trkpt>
      <trkpt lat="45.22439" lon="5.70684">
        <ele>1094</ele>
        <time>2015-11-14T08:36:26Z</time>
      </trkpt>
      <trkpt lat="45.22442" lon="5.70683">
        <ele>1094</ele>
        <time>2015-11-14T08:36:29Z</time>
      </trkpt>
      <trkpt lat="45.22444" lon="5.70684">
        <ele>1095</ele>
        <time>2015-11-14T08:36:32Z</time>
      </trkpt>
      <trkpt lat="45.22446" lon="5.70683">
        <ele>1095</ele>
        <time>2015-11-14T08:36:38Z</time>
      </trkpt>
      <trkpt lat="45.22448" lon="5.70682">
        <ele>1096</ele>
        <time>2015-11-14T08:36:41Z</time>
      </trkpt>
      <trkpt lat="45.22451" lon="5.70681">
        <ele>1096</ele>
        <time>2015-11-14T08:36:44Z</time>
      </trkpt>
      <trkpt lat="45.22453" lon="5.7068">
        <ele>1096</ele>
        <time>2015-11-14T08:36:46Z</time>
      </trkpt>
      <trkpt lat="45.22455" lon="5.70679">
        <ele>1097</ele>
        <time>2015-11-14T08:36:48Z</time>
      </trkpt>
      <trkpt lat="45.22457" lon="5.70681">
        <ele>1098</ele>
        <time>2015-11-14T08:36:51Z</time>
      </trkpt>
      <trkpt lat="45.22458" lon="5.70683">
        <ele>1098</ele>
        <time>2015-11-14T08:36:54Z</time>
      </trkpt>
      <trkpt lat="45.2246" lon="5.70685">
        <ele>1099</ele>
        <time>2015-11-14T08:36:57Z</time>
      </trkpt>
      <trkpt lat="45.22461" lon="5.7069">
        <ele>1101</ele>
        <time>2015-11-14T08:37:06Z</time>
      </trkpt>
      <trkpt lat="45.22461" lon="5.70693">
        <ele>1102</ele>
        <time>2015-11-14T08:37:09Z</time>
      </trkpt>
      <trkpt lat="45.22466" lon="5.70695">
        <ele>1105</ele>
        <time>2015-11-14T08:37:21Z</time>
      </trkpt>
      <trkpt lat="45.22468" lon="5.70694">
        <ele>1106</ele>
        <time>2015-11-14T08:37:24Z</time>
      </trkpt>
      <trkpt lat="45.2247" lon="5.70695">
        <ele>1106</ele>
        <time>2015-11-14T08:37:28Z</time>
      </trkpt>
      <trkpt lat="45.22472" lon="5.70698">
        <ele>1107</ele>
        <time>2015-11-14T08:37:36Z</time>
      </trkpt>
      <trkpt lat="45.22474" lon="5.70699">
        <ele>1108</ele>
        <time>2015-11-14T08:37:39Z</time>
      </trkpt>
      <trkpt lat="45.22476" lon="5.70699">
        <ele>1109</ele>
        <time>2015-11-14T08:37:42Z</time>
      </trkpt>
      <trkpt lat="45.22478" lon="5.70699">
        <ele>1109</ele>
        <time>2015-11-14T08:37:44Z</time>
      </trkpt>
      <trkpt lat="45.2248" lon="5.70699">
        <ele>1109.2</ele>
        <time>2015-11-14T08:37:46Z</time>
      </trkpt>
      <trkpt lat="45.22482" lon="5.707">
        <ele>1110</ele>
        <time>2015-11-14T08:37:48Z</time>
      </trkpt>
      <trkpt lat="45.22484" lon="5.70699">
        <ele>1111</ele>
        <time>2015-11-14T08:37:51Z</time>
      </trkpt>
      <trkpt lat="45.22486" lon="5.70699">
        <ele>1111.2</ele>
        <time>2015-11-14T08:37:54Z</time>
      </trkpt>
      <trkpt lat="45.22488" lon="5.707">
        <ele>1112</ele>
        <time>2015-11-14T08:37:57Z</time>
      </trkpt>
      <trkpt lat="45.2249" lon="5.70701">
        <ele>1113</ele>
        <time>2015-11-14T08:38:00Z</time>
      </trkpt>
      <trkpt lat="45.22492" lon="5.707">
        <ele>1113</ele>
        <time>2015-11-14T08:38:26Z</time>
      </trkpt>
      <trkpt lat="45.22497" lon="5.70699">
        <ele>1113</ele>
        <time>2015-11-14T08:38:44Z</time>
      </trkpt>
      <trkpt lat="45.22497" lon="5.70702">
        <ele>1113</ele>
        <time>2015-11-14T08:38:47Z</time>
      </trkpt>
      <trkpt lat="45.22499" lon="5.70704">
        <ele>1112</ele>
        <time>2015-11-14T08:38:55Z</time>
      </trkpt>
      <trkpt lat="45.22501" lon="5.70704">
        <ele>1112</ele>
        <time>2015-11-14T08:38:58Z</time>
      </trkpt>
      <trkpt lat="45.22502" lon="5.70708">
        <ele>1112</ele>
        <time>2015-11-14T08:39:09Z</time>
      </trkpt>
      <trkpt lat="45.22503" lon="5.7071">
        <ele>1112</ele>
        <time>2015-11-14T08:39:11Z</time>
      </trkpt>
      <trkpt lat="45.22504" lon="5.70713">
        <ele>1113</ele>
        <time>2015-11-14T08:39:13Z</time>
      </trkpt>
      <trkpt lat="45.22507" lon="5.70714">
        <ele>1113</ele>
        <time>2015-11-14T08:39:25Z</time>
      </trkpt>
      <trkpt lat="45.2251" lon="5.70715">
        <ele>1113</ele>
        <time>2015-11-14T08:39:27Z</time>
      </trkpt>
      <trkpt lat="45.22513" lon="5.70716">
        <ele>1114</ele>
        <time>2015-11-14T08:39:29Z</time>
      </trkpt>
      <trkpt lat="45.22515" lon="5.70717">
        <ele>1114</ele>
        <time>2015-11-14T08:39:30Z</time>
      </trkpt>
      <trkpt lat="45.22518" lon="5.70717">
        <ele>1114</ele>
        <time>2015-11-14T08:39:32Z</time>
      </trkpt>
      <trkpt lat="45.22519" lon="5.70721">
        <ele>1114.9</ele>
        <time>2015-11-14T08:39:34Z</time>
      </trkpt>
      <trkpt lat="45.22521" lon="5.70722">
        <ele>1115</ele>
        <time>2015-11-14T08:39:36Z</time>
      </trkpt>
      <trkpt lat="45.22523" lon="5.70725">
        <ele>1115.1</ele>
        <time>2015-11-14T08:39:38Z</time>
      </trkpt>
      <trkpt lat="45.22525" lon="5.70726">
        <ele>1116</ele>
        <time>2015-11-14T08:39:40Z</time>
      </trkpt>
      <trkpt lat="45.22527" lon="5.70727">
        <ele>1116</ele>
        <time>2015-11-14T08:39:42Z</time>
      </trkpt>
      <trkpt lat="45.22529" lon="5.70729">
        <ele>1117</ele>
        <time>2015-11-14T08:39:44Z</time>
      </trkpt>
      <trkpt lat="45.22532" lon="5.70732">
        <ele>1117</ele>
        <time>2015-11-14T08:39:46Z</time>
      </trkpt>
      <trkpt lat="45.22534" lon="5.70733">
        <ele>1117</ele>
        <time>2015-11-14T08:39:47Z</time>
      </trkpt>
      <trkpt lat="45.22535" lon="5.70735">
        <ele>1118</ele>
        <time>2015-11-14T08:39:48Z</time>
      </trkpt>
      <trkpt lat="45.22538" lon="5.70737">
        <ele>1118.2</ele>
        <time>2015-11-14T08:39:50Z</time>
      </trkpt>
      <trkpt lat="45.22541" lon="5.70738">
        <ele>1119</ele>
        <time>2015-11-14T08:39:52Z</time>
      </trkpt>
      <trkpt lat="45.22543" lon="5.70738">
        <ele>1119</ele>
        <time>2015-11-14T08:39:53Z</time>
      </trkpt>
      <trkpt lat="45.22546" lon="5.70739">
        <ele>1120</ele>
        <time>2015-11-14T08:39:54Z</time>
      </trkpt>
      <trkpt lat="45.22548" lon="5.70739">
        <ele>1120</ele>
        <time>2015-11-14T08:39:55Z</time>
      </trkpt>
      <trkpt lat="45.2255" lon="5.7074">
        <ele>1120.2</ele>
        <time>2015-11-14T08:39:56Z</time>
      </trkpt>
      <trkpt lat="45.22553" lon="5.7074">
        <ele>1126.2</ele>
        <time>2015-11-14T08:40:43Z</time>
      </trkpt>
      <trkpt lat="45.22556" lon="5.70739">
        <ele>1129</ele>
        <time>2015-11-14T08:41:30Z</time>
      </trkpt>
      <trkpt lat="45.22557" lon="5.70739">
        <ele>1129</ele>
        <time>2015-11-14T08:41:31Z</time>
      </trkpt>
      <trkpt lat="45.22559" lon="5.7074">
        <ele>1129</ele>
        <time>2015-11-14T08:41:32Z</time>
      </trkpt>
      <trkpt lat="45.22561" lon="5.70741">
        <ele>1130</ele>
        <time>2015-11-14T08:41:35Z</time>
      </trkpt>
      <trkpt lat="45.22563" lon="5.70741">
        <ele>1130</ele>
        <time>2015-11-14T08:41:41Z</time>
      </trkpt>
      <trkpt lat="45.22566" lon="5.70741">
        <ele>1130</ele>
        <time>2015-11-14T08:42:11Z</time>
      </trkpt>
      <trkpt lat="45.22568" lon="5.70742">
        <ele>1130</ele>
        <time>2015-11-14T08:42:13Z</time>
      </trkpt>
      <trkpt lat="45.22571" lon="5.70742">
        <ele>1130</ele>
        <time>2015-11-14T08:42:15Z</time>
      </trkpt>
      <trkpt lat="45.22573" lon="5.70743">
        <ele>1130</ele>
        <time>2015-11-14T08:42:17Z</time>
      </trkpt>
      <trkpt lat="45.22575" lon="5.70743">
        <ele>1130</ele>
        <time>2015-11-14T08:42:19Z</time>
      </trkpt>
      <trkpt lat="45.22577" lon="5.70744">
        <ele>1130</ele>
        <time>2015-11-14T08:42:21Z</time>
      </trkpt>
      <trkpt lat="45.22579" lon="5.70744">
        <ele>1130</ele>
        <time>2015-11-14T08:42:23Z</time>
      </trkpt>
      <trkpt lat="45.22581" lon="5.70745">
        <ele>1130</ele>
        <time>2015-11-14T08:42:25Z</time>
      </trkpt>
      <trkpt lat="45.22583" lon="5.70745">
        <ele>1130</ele>
        <time>2015-11-14T08:42:27Z</time>
      </trkpt>
      <trkpt lat="45.22588" lon="5.70743">
        <ele>1129</ele>
        <time>2015-11-14T08:42:54Z</time>
      </trkpt>
      <trkpt lat="45.2259" lon="5.70742">
        <ele>1128.8</ele>
        <time>2015-11-14T08:42:57Z</time>
      </trkpt>
      <trkpt lat="45.22593" lon="5.70742">
        <ele>1128</ele>
        <time>2015-11-14T08:42:59Z</time>
      </trkpt>
      <trkpt lat="45.22595" lon="5.70743">
        <ele>1128</ele>
        <time>2015-11-14T08:43:01Z</time>
      </trkpt>
      <trkpt lat="45.22598" lon="5.70743">
        <ele>1128</ele>
        <time>2015-11-14T08:43:03Z</time>
      </trkpt>
      <trkpt lat="45.226" lon="5.70743">
        <ele>1128</ele>
        <time>2015-11-14T08:43:05Z</time>
      </trkpt>
      <trkpt lat="45.22602" lon="5.70744">
        <ele>1128</ele>
        <time>2015-11-14T08:43:08Z</time>
      </trkpt>
      <trkpt lat="45.22604" lon="5.70745">
        <ele>1128</ele>
        <time>2015-11-14T08:43:11Z</time>
      </trkpt>
      <trkpt lat="45.22608" lon="5.70747">
        <ele>1129</ele>
        <time>2015-11-14T08:43:20Z</time>
      </trkpt>
      <trkpt lat="45.22611" lon="5.70749">
        <ele>1130</ele>
        <time>2015-11-14T08:43:32Z</time>
      </trkpt>
      <trkpt lat="45.22613" lon="5.7075">
        <ele>1131</ele>
        <time>2015-11-14T08:43:38Z</time>
      </trkpt>
      <trkpt lat="45.22616" lon="5.70752">
        <ele>1132</ele>
        <time>2015-11-14T08:43:42Z</time>
      </trkpt>
      <trkpt lat="45.22618" lon="5.70752">
        <ele>1132.2</ele>
        <time>2015-11-14T08:43:45Z</time>
      </trkpt>
      <trkpt lat="45.22622" lon="5.70747">
        <ele>1136</ele>
        <time>2015-11-14T08:45:01Z</time>
      </trkpt>
      <trkpt lat="45.22626" lon="5.70749">
        <ele>1139</ele>
        <time>2015-11-14T08:45:22Z</time>
      </trkpt>
      <trkpt lat="45.22631" lon="5.70748">
        <ele>1141</ele>
        <time>2015-11-14T08:45:36Z</time>
      </trkpt>
      <trkpt lat="45.22636" lon="5.70744">
        <ele>1144</ele>
        <time>2015-11-14T08:45:55Z</time>
      </trkpt>
      <trkpt lat="45.22641" lon="5.70746">
        <ele>1147.2</ele>
        <time>2015-11-14T08:46:17Z</time>
      </trkpt>
      <trkpt lat="45.22643" lon="5.70748">
        <ele>1148</ele>
        <time>2015-11-14T08:46:20Z</time>
      </trkpt>
      <trkpt lat="45.22645" lon="5.70749">
        <ele>1149</ele>
        <time>2015-11-14T08:46:24Z</time>
      </trkpt>
      <trkpt lat="45.22648" lon="5.70749">
        <ele>1149</ele>
        <time>2015-11-14T08:46:27Z</time>
      </trkpt>
      <trkpt lat="45.2265" lon="5.7075">
        <ele>1150</ele>
        <time>2015-11-14T08:46:30Z</time>
      </trkpt>
      <trkpt lat="45.22652" lon="5.7075">
        <ele>1150.2</ele>
        <time>2015-11-14T08:46:33Z</time>
      </trkpt>
      <trkpt lat="45.22654" lon="5.7075">
        <ele>1151</ele>
        <time>2015-11-14T08:46:35Z</time>
      </trkpt>
      <trkpt lat="45.2266" lon="5.70752">
        <ele>1151.2</ele>
        <time>2015-11-14T08:46:55Z</time>
      </trkpt>
      <trkpt lat="45.22663" lon="5.70753">
        <ele>1152</ele>
        <time>2015-11-14T08:47:04Z</time>
      </trkpt>
      <trkpt lat="45.22665" lon="5.70754">
        <ele>1153</ele>
        <time>2015-11-14T08:47:07Z</time>
      </trkpt>
      <trkpt lat="45.22667" lon="5.70753">
        <ele>1153</ele>
        <time>2015-11-14T08:47:10Z</time>
      </trkpt>
      <trkpt lat="45.22669" lon="5.70754">
        <ele>1153</ele>
        <time>2015-11-14T08:47:13Z</time>
      </trkpt>
      <trkpt lat="45.22674" lon="5.70756">
        <ele>1155</ele>
        <time>2015-11-14T08:47:48Z</time>
      </trkpt>
      <trkpt lat="45.22676" lon="5.70758">
        <ele>1156</ele>
        <time>2015-11-14T08:47:53Z</time>
      </trkpt>
      <trkpt lat="45.22677" lon="5.70759">
        <ele>1156</ele>
        <time>2015-11-14T08:47:55Z</time>
      </trkpt>
      <trkpt lat="45.22679" lon="5.7076">
        <ele>1156</ele>
        <time>2015-11-14T08:48:02Z</time>
      </trkpt>
      <trkpt lat="45.22681" lon="5.70761">
        <ele>1157</ele>
        <time>2015-11-14T08:48:05Z</time>
      </trkpt>
      <trkpt lat="45.22683" lon="5.70761">
        <ele>1157</ele>
        <time>2015-11-14T08:48:07Z</time>
      </trkpt>
      <trkpt lat="45.22685" lon="5.70763">
        <ele>1157</ele>
        <time>2015-11-14T08:48:10Z</time>
      </trkpt>
      <trkpt lat="45.22687" lon="5.70763">
        <ele>1158</ele>
        <time>2015-11-14T08:48:15Z</time>
      </trkpt>
      <trkpt lat="45.22689" lon="5.70761">
        <ele>1159</ele>
        <time>2015-11-14T08:48:18Z</time>
      </trkpt>
      <trkpt lat="45.22691" lon="5.7076">
        <ele>1160</ele>
        <time>2015-11-14T08:48:24Z</time>
      </trkpt>
      <trkpt lat="45.22693" lon="5.7076">
        <ele>1160</ele>
        <time>2015-11-14T08:48:29Z</time>
      </trkpt>
      <trkpt lat="45.22695" lon="5.7076">
        <ele>1160.1</ele>
        <time>2015-11-14T08:48:32Z</time>
      </trkpt>
      <trkpt lat="45.22697" lon="5.70763">
        <ele>1161</ele>
        <time>2015-11-14T08:48:34Z</time>
      </trkpt>
      <trkpt lat="45.22699" lon="5.70764">
        <ele>1161</ele>
        <time>2015-11-14T08:48:36Z</time>
      </trkpt>
      <trkpt lat="45.227" lon="5.70766">
        <ele>1161</ele>
        <time>2015-11-14T08:48:39Z</time>
      </trkpt>
      <trkpt lat="45.22702" lon="5.70767">
        <ele>1161</ele>
        <time>2015-11-14T08:48:42Z</time>
      </trkpt>
      <trkpt lat="45.22706" lon="5.70769">
        <ele>1161</ele>
        <time>2015-11-14T08:48:47Z</time>
      </trkpt>
      <trkpt lat="45.22708" lon="5.7077">
        <ele>1162</ele>
        <time>2015-11-14T08:48:51Z</time>
      </trkpt>
      <trkpt lat="45.22711" lon="5.7077">
        <ele>1162</ele>
        <time>2015-11-14T08:48:55Z</time>
      </trkpt>
      <trkpt lat="45.22714" lon="5.70768">
        <ele>1163</ele>
        <time>2015-11-14T08:49:00Z</time>
      </trkpt>
      <trkpt lat="45.22718" lon="5.70771">
        <ele>1166</ele>
        <time>2015-11-14T08:49:21Z</time>
      </trkpt>
      <trkpt lat="45.22722" lon="5.70774">
        <ele>1166</ele>
        <time>2015-11-14T08:49:29Z</time>
      </trkpt>
      <trkpt lat="45.22723" lon="5.70775">
        <ele>1167</ele>
        <time>2015-11-14T08:49:32Z</time>
      </trkpt>
      <trkpt lat="45.22724" lon="5.7078">
        <ele>1168</ele>
        <time>2015-11-14T08:49:50Z</time>
      </trkpt>
      <trkpt lat="45.22726" lon="5.70779">
        <ele>1169</ele>
        <time>2015-11-14T08:49:56Z</time>
      </trkpt>
      <trkpt lat="45.22728" lon="5.70781">
        <ele>1170</ele>
        <time>2015-11-14T08:50:02Z</time>
      </trkpt>
      <trkpt lat="45.22732" lon="5.70779">
        <ele>1172</ele>
        <time>2015-11-14T08:50:42Z</time>
      </trkpt>
      <trkpt lat="45.22734" lon="5.7078">
        <ele>1173</ele>
        <time>2015-11-14T08:50:46Z</time>
      </trkpt>
      <trkpt lat="45.22735" lon="5.70783">
        <ele>1173.2</ele>
        <time>2015-11-14T08:50:49Z</time>
      </trkpt>
      <trkpt lat="45.22737" lon="5.70786">
        <ele>1175</ele>
        <time>2015-11-14T08:50:52Z</time>
      </trkpt>
      <trkpt lat="45.22739" lon="5.70787">
        <ele>1175</ele>
        <time>2015-11-14T08:50:55Z</time>
      </trkpt>
      <trkpt lat="45.22741" lon="5.70788">
        <ele>1176</ele>
        <time>2015-11-14T08:50:59Z</time>
      </trkpt>
      <trkpt lat="45.22743" lon="5.7079">
        <ele>1178</ele>
        <time>2015-11-14T08:51:05Z</time>
      </trkpt>
      <trkpt lat="45.22744" lon="5.70792">
        <ele>1179</ele>
        <time>2015-11-14T08:51:08Z</time>
      </trkpt>
      <trkpt lat="45.22747" lon="5.70792">
        <ele>1179</ele>
        <time>2015-11-14T08:51:11Z</time>
      </trkpt>
      <trkpt lat="45.22749" lon="5.70793">
        <ele>1179.9</ele>
        <time>2015-11-14T08:51:13Z</time>
      </trkpt>
      <trkpt lat="45.22751" lon="5.70794">
        <ele>1180</ele>
        <time>2015-11-14T08:51:15Z</time>
      </trkpt>
      <trkpt lat="45.22753" lon="5.70795">
        <ele>1180</ele>
        <time>2015-11-14T08:51:17Z</time>
      </trkpt>
      <trkpt lat="45.22756" lon="5.70796">
        <ele>1181</ele>
        <time>2015-11-14T08:51:19Z</time>
      </trkpt>
      <trkpt lat="45.22758" lon="5.70796">
        <ele>1181</ele>
        <time>2015-11-14T08:51:21Z</time>
      </trkpt>
      <trkpt lat="45.2276" lon="5.70797">
        <ele>1181.2</ele>
        <time>2015-11-14T08:51:23Z</time>
      </trkpt>
      <trkpt lat="45.22763" lon="5.70798">
        <ele>1182</ele>
        <time>2015-11-14T08:51:25Z</time>
      </trkpt>
      <trkpt lat="45.22765" lon="5.70799">
        <ele>1182</ele>
        <time>2015-11-14T08:51:27Z</time>
      </trkpt>
      <trkpt lat="45.22767" lon="5.70799">
        <ele>1183</ele>
        <time>2015-11-14T08:51:30Z</time>
      </trkpt>
      <trkpt lat="45.2277" lon="5.70799">
        <ele>1183</ele>
        <time>2015-11-14T08:51:33Z</time>
      </trkpt>
      <trkpt lat="45.22772" lon="5.70801">
        <ele>1183</ele>
        <time>2015-11-14T08:51:36Z</time>
      </trkpt>
      <trkpt lat="45.22774" lon="5.70801">
        <ele>1184</ele>
        <time>2015-11-14T08:51:39Z</time>
      </trkpt>
      <trkpt lat="45.22776" lon="5.70802">
        <ele>1184</ele>
        <time>2015-11-14T08:51:41Z</time>
      </trkpt>
      <trkpt lat="45.22779" lon="5.70803">
        <ele>1184</ele>
        <time>2015-11-14T08:51:43Z</time>
      </trkpt>
      <trkpt lat="45.22781" lon="5.70803">
        <ele>1185</ele>
        <time>2015-11-14T08:51:45Z</time>
      </trkpt>
      <trkpt lat="45.22783" lon="5.70804">
        <ele>1185</ele>
        <time>2015-11-14T08:51:47Z</time>
      </trkpt>
      <trkpt lat="45.22786" lon="5.70804">
        <ele>1185</ele>
        <time>2015-11-14T08:51:49Z</time>
      </trkpt>
      <trkpt lat="45.22788" lon="5.70805">
        <ele>1186</ele>
        <time>2015-11-14T08:51:52Z</time>
      </trkpt>
      <trkpt lat="45.22791" lon="5.70806">
        <ele>1186</ele>
        <time>2015-11-14T08:51:54Z</time>
      </trkpt>
      <trkpt lat="45.22794" lon="5.70807">
        <ele>1186</ele>
        <time>2015-11-14T08:51:56Z</time>
      </trkpt>
      <trkpt lat="45.22796" lon="5.70807">
        <ele>1186.2</ele>
        <time>2015-11-14T08:51:58Z</time>
      </trkpt>
      <trkpt lat="45.22798" lon="5.70808">
        <ele>1187</ele>
        <time>2015-11-14T08:52:01Z</time>
      </trkpt>
      <trkpt lat="45.228" lon="5.7081">
        <ele>1187</ele>
        <time>2015-11-14T08:52:04Z</time>
      </trkpt>
      <trkpt lat="45.22802" lon="5.70812">
        <ele>1187</ele>
        <time>2015-11-14T08:52:06Z</time>
      </trkpt>
      <trkpt lat="45.22804" lon="5.70814">
        <ele>1187</ele>
        <time>2015-11-14T08:52:08Z</time>
      </trkpt>
      <trkpt lat="45.22806" lon="5.70816">
        <ele>1187</ele>
        <time>2015-11-14T08:52:10Z</time>
      </trkpt>
      <trkpt lat="45.22808" lon="5.70818">
        <ele>1187</ele>
        <time>2015-11-14T08:52:12Z</time>
      </trkpt>
      <trkpt lat="45.2281" lon="5.70817">
        <ele>1187.9</ele>
        <time>2015-11-14T08:52:14Z</time>
      </trkpt>
      <trkpt lat="45.22813" lon="5.70817">
        <ele>1188</ele>
        <time>2015-11-14T08:52:18Z</time>
      </trkpt>
      <trkpt lat="45.22815" lon="5.70815">
        <ele>1190</ele>
        <time>2015-11-14T08:52:22Z</time>
      </trkpt>
      <trkpt lat="45.22818" lon="5.70815">
        <ele>1191</ele>
        <time>2015-11-14T08:52:27Z</time>
      </trkpt>
      <trkpt lat="45.2282" lon="5.70817">
        <ele>1191</ele>
        <time>2015-11-14T08:52:30Z</time>
      </trkpt>
      <trkpt lat="45.22822" lon="5.70818">
        <ele>1192</ele>
        <time>2015-11-14T08:52:32Z</time>
      </trkpt>
      <trkpt lat="45.22824" lon="5.70819">
        <ele>1192</ele>
        <time>2015-11-14T08:52:35Z</time>
      </trkpt>
      <trkpt lat="45.22826" lon="5.70819">
        <ele>1193</ele>
        <time>2015-11-14T08:52:38Z</time>
      </trkpt>
      <trkpt lat="45.22828" lon="5.70821">
        <ele>1193</ele>
        <time>2015-11-14T08:52:41Z</time>
      </trkpt>
      <trkpt lat="45.2283" lon="5.70821">
        <ele>1194</ele>
        <time>2015-11-14T08:52:43Z</time>
      </trkpt>
      <trkpt lat="45.22832" lon="5.70823">
        <ele>1194</ele>
        <time>2015-11-14T08:52:46Z</time>
      </trkpt>
      <trkpt lat="45.22837" lon="5.70828">
        <ele>1195.1</ele>
        <time>2015-11-14T08:52:53Z</time>
      </trkpt>
      <trkpt lat="45.22839" lon="5.70829">
        <ele>1196.2</ele>
        <time>2015-11-14T08:52:56Z</time>
      </trkpt>
      <trkpt lat="45.22841" lon="5.7083">
        <ele>1197</ele>
        <time>2015-11-14T08:52:59Z</time>
      </trkpt>
      <trkpt lat="45.22844" lon="5.7083">
        <ele>1198</ele>
        <time>2015-11-14T08:53:02Z</time>
      </trkpt>
      <trkpt lat="45.22846" lon="5.70831">
        <ele>1198.2</ele>
        <time>2015-11-14T08:53:04Z</time>
      </trkpt>
      <trkpt lat="45.22848" lon="5.70832">
        <ele>1199</ele>
        <time>2015-11-14T08:53:07Z</time>
      </trkpt>
      <trkpt lat="45.2285" lon="5.70833">
        <ele>1199</ele>
        <time>2015-11-14T08:53:09Z</time>
      </trkpt>
      <trkpt lat="45.22853" lon="5.70834">
        <ele>1201</ele>
        <time>2015-11-14T08:53:26Z</time>
      </trkpt>
      <trkpt lat="45.22854" lon="5.70835">
        <ele>1201</ele>
        <time>2015-11-14T08:53:29Z</time>
      </trkpt>
      <trkpt lat="45.22857" lon="5.70836">
        <ele>1201</ele>
        <time>2015-11-14T08:53:32Z</time>
      </trkpt>
      <trkpt lat="45.2286" lon="5.70836">
        <ele>1201</ele>
        <time>2015-11-14T08:53:34Z</time>
      </trkpt>
      <trkpt lat="45.22862" lon="5.70835">
        <ele>1201</ele>
        <time>2015-11-14T08:53:37Z</time>
      </trkpt>
      <trkpt lat="45.22864" lon="5.70834">
        <ele>1201</ele>
        <time>2015-11-14T08:53:40Z</time>
      </trkpt>
      <trkpt lat="45.22866" lon="5.70834">
        <ele>1201</ele>
        <time>2015-11-14T08:53:44Z</time>
      </trkpt>
      <trkpt lat="45.22868" lon="5.70835">
        <ele>1201</ele>
        <time>2015-11-14T08:53:47Z</time>
      </trkpt>
      <trkpt lat="45.22869" lon="5.70837">
        <ele>1201.9</ele>
        <time>2015-11-14T08:53:50Z</time>
      </trkpt>
      <trkpt lat="45.22871" lon="5.70836">
        <ele>1203</ele>
        <time>2015-11-14T08:53:55Z</time>
      </trkpt>
      <trkpt lat="45.22875" lon="5.70834">
        <ele>1204</ele>
        <time>2015-11-14T08:54:05Z</time>
      </trkpt>
      <trkpt lat="45.22877" lon="5.70835">
        <ele>1204</ele>
        <time>2015-11-14T08:54:08Z</time>
      </trkpt>
      <trkpt lat="45.22879" lon="5.70836">
        <ele>1204</ele>
        <time>2015-11-14T08:54:10Z</time>
      </trkpt>
      <trkpt lat="45.22881" lon="5.70835">
        <ele>1204</ele>
        <time>2015-11-14T08:54:13Z</time>
      </trkpt>
      <trkpt lat="45.22883" lon="5.70835">
        <ele>1204</ele>
        <time>2015-11-14T08:54:15Z</time>
      </trkpt>
      <trkpt lat="45.22885" lon="5.70836">
        <ele>1204</ele>
        <time>2015-11-14T08:54:18Z</time>
      </trkpt>
      <trkpt lat="45.22888" lon="5.70836">
        <ele>1203</ele>
        <time>2015-11-14T08:54:23Z</time>
      </trkpt>
      <trkpt lat="45.2289" lon="5.70835">
        <ele>1203</ele>
        <time>2015-11-14T08:54:25Z</time>
      </trkpt>
      <trkpt lat="45.22891" lon="5.70834">
        <ele>1203</ele>
        <time>2015-11-14T08:54:27Z</time>
      </trkpt>
      <trkpt lat="45.22894" lon="5.70834">
        <ele>1202</ele>
        <time>2015-11-14T08:54:29Z</time>
      </trkpt>
      <trkpt lat="45.22896" lon="5.70835">
        <ele>1202</ele>
        <time>2015-11-14T08:54:31Z</time>
      </trkpt>
      <trkpt lat="45.22898" lon="5.70834">
        <ele>1202</ele>
        <time>2015-11-14T08:54:33Z</time>
      </trkpt>
      <trkpt lat="45.22899" lon="5.70835">
        <ele>1201</ele>
        <time>2015-11-14T08:54:40Z</time>
      </trkpt>
      <trkpt lat="45.22903" lon="5.70834">
        <ele>1201</ele>
        <time>2015-11-14T08:54:42Z</time>
      </trkpt>
      <trkpt lat="45.22905" lon="5.70834">
        <ele>1201</ele>
        <time>2015-11-14T08:54:44Z</time>
      </trkpt>
      <trkpt lat="45.22907" lon="5.70835">
        <ele>1201</ele>
        <time>2015-11-14T08:54:47Z</time>
      </trkpt>
      <trkpt lat="45.22909" lon="5.70836">
        <ele>1201</ele>
        <time>2015-11-14T08:54:50Z</time>
      </trkpt>
      <trkpt lat="45.22911" lon="5.70837">
        <ele>1201</ele>
        <time>2015-11-14T08:54:53Z</time>
      </trkpt>
      <trkpt lat="45.22912" lon="5.7084">
        <ele>1202</ele>
        <time>2015-11-14T08:54:57Z</time>
      </trkpt>
      <trkpt lat="45.22914" lon="5.7084">
        <ele>1204</ele>
        <time>2015-11-14T08:55:26Z</time>
      </trkpt>
      <trkpt lat="45.22916" lon="5.70843">
        <ele>1206</ele>
        <time>2015-11-14T08:55:40Z</time>
      </trkpt>
      <trkpt lat="45.2292" lon="5.70844">
        <ele>1208</ele>
        <time>2015-11-14T08:57:57Z</time>
      </trkpt>
      <trkpt lat="45.22926" lon="5.70846">
        <ele>1211</ele>
        <time>2015-11-14T08:58:15Z</time>
      </trkpt>
      <trkpt lat="45.22928" lon="5.70845">
        <ele>1212</ele>
        <time>2015-11-14T08:58:19Z</time>
      </trkpt>
      <trkpt lat="45.2293" lon="5.70844">
        <ele>1212</ele>
        <time>2015-11-14T08:58:22Z</time>
      </trkpt>
      <trkpt lat="45.22932" lon="5.70844">
        <ele>1212.2</ele>
        <time>2015-11-14T08:58:24Z</time>
      </trkpt>
      <trkpt lat="45.22935" lon="5.70845">
        <ele>1213</ele>
        <time>2015-11-14T08:58:27Z</time>
      </trkpt>
      <trkpt lat="45.22937" lon="5.70843">
        <ele>1213</ele>
        <time>2015-11-14T08:58:33Z</time>
      </trkpt>
      <trkpt lat="45.22939" lon="5.70844">
        <ele>1213</ele>
        <time>2015-11-14T08:58:36Z</time>
      </trkpt>
      <trkpt lat="45.22941" lon="5.70845">
        <ele>1212</ele>
        <time>2015-11-14T08:58:39Z</time>
      </trkpt>
      <trkpt lat="45.22943" lon="5.70844">
        <ele>1212</ele>
        <time>2015-11-14T08:58:43Z</time>
      </trkpt>
      <trkpt lat="45.22945" lon="5.70842">
        <ele>1212</ele>
        <time>2015-11-14T08:58:45Z</time>
      </trkpt>
      <trkpt lat="45.22947" lon="5.70842">
        <ele>1211.8</ele>
        <time>2015-11-14T08:58:47Z</time>
      </trkpt>
      <trkpt lat="45.22949" lon="5.70841">
        <ele>1211</ele>
        <time>2015-11-14T08:58:52Z</time>
      </trkpt>
      <trkpt lat="45.22951" lon="5.70842">
        <ele>1211</ele>
        <time>2015-11-14T08:58:54Z</time>
      </trkpt>
      <trkpt lat="45.22953" lon="5.70845">
        <ele>1210</ele>
        <time>2015-11-14T08:58:57Z</time>
      </trkpt>
      <trkpt lat="45.22955" lon="5.70844">
        <ele>1210</ele>
        <time>2015-11-14T08:58:59Z</time>
      </trkpt>
      <trkpt lat="45.22957" lon="5.70844">
        <ele>1210</ele>
        <time>2015-11-14T08:59:01Z</time>
      </trkpt>
      <trkpt lat="45.2296" lon="5.70844">
        <ele>1209</ele>
        <time>2015-11-14T08:59:03Z</time>
      </trkpt>
      <trkpt lat="45.22962" lon="5.70845">
        <ele>1209</ele>
        <time>2015-11-14T08:59:05Z</time>
      </trkpt>
      <trkpt lat="45.22964" lon="5.70845">
        <ele>1208.8</ele>
        <time>2015-11-14T08:59:14Z</time>
      </trkpt>
      <trkpt lat="45.22965" lon="5.70842">
        <ele>1208</ele>
        <time>2015-11-14T08:59:19Z</time>
      </trkpt>
      <trkpt lat="45.22967" lon="5.70842">
        <ele>1208</ele>
        <time>2015-11-14T08:59:22Z</time>
      </trkpt>
      <trkpt lat="45.2297" lon="5.70842">
        <ele>1207.8</ele>
        <time>2015-11-14T08:59:25Z</time>
      </trkpt>
      <trkpt lat="45.22972" lon="5.70842">
        <ele>1207</ele>
        <time>2015-11-14T08:59:27Z</time>
      </trkpt>
      <trkpt lat="45.22974" lon="5.70842">
        <ele>1207</ele>
        <time>2015-11-14T08:59:30Z</time>
      </trkpt>
      <trkpt lat="45.22976" lon="5.70843">
        <ele>1207</ele>
        <time>2015-11-14T08:59:32Z</time>
      </trkpt>
      <trkpt lat="45.22978" lon="5.70844">
        <ele>1207</ele>
        <time>2015-11-14T08:59:34Z</time>
      </trkpt>
      <trkpt lat="45.22981" lon="5.70844">
        <ele>1206</ele>
        <time>2015-11-14T08:59:57Z</time>
      </trkpt>
      <trkpt lat="45.22987" lon="5.70846">
        <ele>1206</ele>
        <time>2015-11-14T09:01:03Z</time>
      </trkpt>
      <trkpt lat="45.22992" lon="5.70851">
        <ele>1209</ele>
        <time>2015-11-14T09:01:25Z</time>
      </trkpt>
      <trkpt lat="45.22993" lon="5.70853">
        <ele>1210</ele>
        <time>2015-11-14T09:01:31Z</time>
      </trkpt>
      <trkpt lat="45.22997" lon="5.7086">
        <ele>1211.2</ele>
        <time>2015-11-14T09:02:01Z</time>
      </trkpt>
      <trkpt lat="45.22988" lon="5.70866">
        <ele>1212</ele>
        <time>2015-11-14T09:02:51Z</time>
      </trkpt>
      <trkpt lat="45.22985" lon="5.70867">
        <ele>1213</ele>
        <time>2015-11-14T09:03:02Z</time>
      </trkpt>
      <trkpt lat="45.2298" lon="5.7087">
        <ele>1214</ele>
        <time>2015-11-14T09:03:33Z</time>
      </trkpt>
      <trkpt lat="45.22982" lon="5.70872">
        <ele>1218</ele>
        <time>2015-11-14T09:04:25Z</time>
      </trkpt>
      <trkpt lat="45.22987" lon="5.7087">
        <ele>1219</ele>
        <time>2015-11-14T09:04:28Z</time>
      </trkpt>
      <trkpt lat="45.22989" lon="5.70869">
        <ele>1219</ele>
        <time>2015-11-14T09:04:30Z</time>
      </trkpt>
      <trkpt lat="45.22993" lon="5.70864">
        <ele>1222</ele>
        <time>2015-11-14T09:04:42Z</time>
      </trkpt>
      <trkpt lat="45.22995" lon="5.70862">
        <ele>1223</ele>
        <time>2015-11-14T09:04:56Z</time>
      </trkpt>
      <trkpt lat="45.22997" lon="5.70859">
        <ele>1225</ele>
        <time>2015-11-14T09:05:08Z</time>
      </trkpt>
      <trkpt lat="45.23" lon="5.70859">
        <ele>1225</ele>
        <time>2015-11-14T09:05:10Z</time>
      </trkpt>
      <trkpt lat="45.23003" lon="5.70859">
        <ele>1225</ele>
        <time>2015-11-14T09:05:12Z</time>
      </trkpt>
      <trkpt lat="45.23006" lon="5.70862">
        <ele>1227</ele>
        <time>2015-11-14T09:05:28Z</time>
      </trkpt>
      <trkpt lat="45.23008" lon="5.70863">
        <ele>1227</ele>
        <time>2015-11-14T09:05:30Z</time>
      </trkpt>
      <trkpt lat="45.2301" lon="5.70864">
        <ele>1227</ele>
        <time>2015-11-14T09:05:31Z</time>
      </trkpt>
      <trkpt lat="45.23013" lon="5.70866">
        <ele>1227</ele>
        <time>2015-11-14T09:05:33Z</time>
      </trkpt>
      <trkpt lat="45.23014" lon="5.70867">
        <ele>1227</ele>
        <time>2015-11-14T09:05:35Z</time>
      </trkpt>
      <trkpt lat="45.23017" lon="5.70869">
        <ele>1228</ele>
        <time>2015-11-14T09:05:37Z</time>
      </trkpt>
      <trkpt lat="45.2302" lon="5.70869">
        <ele>1228</ele>
        <time>2015-11-14T09:05:39Z</time>
      </trkpt>
      <trkpt lat="45.23022" lon="5.70868">
        <ele>1228</ele>
        <time>2015-11-14T09:05:41Z</time>
      </trkpt>
      <trkpt lat="45.23025" lon="5.70868">
        <ele>1229</ele>
        <time>2015-11-14T09:05:43Z</time>
      </trkpt>
      <trkpt lat="45.23027" lon="5.70868">
        <ele>1229</ele>
        <time>2015-11-14T09:05:46Z</time>
      </trkpt>
      <trkpt lat="45.23029" lon="5.70867">
        <ele>1230</ele>
        <time>2015-11-14T09:05:49Z</time>
      </trkpt>
      <trkpt lat="45.23031" lon="5.70868">
        <ele>1230</ele>
        <time>2015-11-14T09:05:52Z</time>
      </trkpt>
      <trkpt lat="45.23033" lon="5.70867">
        <ele>1231</ele>
        <time>2015-11-14T09:05:55Z</time>
      </trkpt>
      <trkpt lat="45.23035" lon="5.70869">
        <ele>1231</ele>
        <time>2015-11-14T09:05:58Z</time>
      </trkpt>
      <trkpt lat="45.23036" lon="5.70871">
        <ele>1232</ele>
        <time>2015-11-14T09:06:19Z</time>
      </trkpt>
      <trkpt lat="45.23038" lon="5.70872">
        <ele>1232</ele>
        <time>2015-11-14T09:06:22Z</time>
      </trkpt>
      <trkpt lat="45.23041" lon="5.70872">
        <ele>1232</ele>
        <time>2015-11-14T09:06:26Z</time>
      </trkpt>
      <trkpt lat="45.23043" lon="5.70873">
        <ele>1232</ele>
        <time>2015-11-14T09:06:28Z</time>
      </trkpt>
      <trkpt lat="45.23046" lon="5.70876">
        <ele>1232</ele>
        <time>2015-11-14T09:06:42Z</time>
      </trkpt>
      <trkpt lat="45.23048" lon="5.70877">
        <ele>1232</ele>
        <time>2015-11-14T09:06:45Z</time>
      </trkpt>
      <trkpt lat="45.23051" lon="5.70878">
        <ele>1232</ele>
        <time>2015-11-14T09:06:53Z</time>
      </trkpt>
      <trkpt lat="45.23052" lon="5.70878">
        <ele>1231.9</ele>
        <time>2015-11-14T09:06:55Z</time>
      </trkpt>
      <trkpt lat="45.23054" lon="5.7088">
        <ele>1232</ele>
        <time>2015-11-14T09:06:58Z</time>
      </trkpt>
      <trkpt lat="45.23057" lon="5.70879">
        <ele>1231.8</ele>
        <time>2015-11-14T09:07:01Z</time>
      </trkpt>
      <trkpt lat="45.23059" lon="5.7088">
        <ele>1231</ele>
        <time>2015-11-14T09:07:03Z</time>
      </trkpt>
      <trkpt lat="45.2306" lon="5.70881">
        <ele>1232</ele>
        <time>2015-11-14T09:07:05Z</time>
      </trkpt>
      <trkpt lat="45.23064" lon="5.70883">
        <ele>1232</ele>
        <time>2015-11-14T09:07:08Z</time>
      </trkpt>
      <trkpt lat="45.23066" lon="5.70884">
        <ele>1232</ele>
        <time>2015-11-14T09:07:11Z</time>
      </trkpt>
      <trkpt lat="45.23068" lon="5.70886">
        <ele>1233</ele>
        <time>2015-11-14T09:07:15Z</time>
      </trkpt>
      <trkpt lat="45.2307" lon="5.70887">
        <ele>1233</ele>
        <time>2015-11-14T09:07:17Z</time>
      </trkpt>
      <trkpt lat="45.23073" lon="5.70888">
        <ele>1233.1</ele>
        <time>2015-11-14T09:07:20Z</time>
      </trkpt>
      <trkpt lat="45.23075" lon="5.70888">
        <ele>1234</ele>
        <time>2015-11-14T09:07:22Z</time>
      </trkpt>
      <trkpt lat="45.23077" lon="5.70889">
        <ele>1234</ele>
        <time>2015-11-14T09:07:23Z</time>
      </trkpt>
      <trkpt lat="45.23079" lon="5.7089">
        <ele>1234</ele>
        <time>2015-11-14T09:07:24Z</time>
      </trkpt>
      <trkpt lat="45.23082" lon="5.70891">
        <ele>1234</ele>
        <time>2015-11-14T09:07:26Z</time>
      </trkpt>
      <trkpt lat="45.23085" lon="5.70892">
        <ele>1234</ele>
        <time>2015-11-14T09:07:28Z</time>
      </trkpt>
      <trkpt lat="45.23088" lon="5.70892">
        <ele>1235</ele>
        <time>2015-11-14T09:07:30Z</time>
      </trkpt>
      <trkpt lat="45.2309" lon="5.70893">
        <ele>1235</ele>
        <time>2015-11-14T09:07:32Z</time>
      </trkpt>
      <trkpt lat="45.23092" lon="5.70894">
        <ele>1235.2</ele>
        <time>2015-11-14T09:07:34Z</time>
      </trkpt>
      <trkpt lat="45.23094" lon="5.70894">
        <ele>1236</ele>
        <time>2015-11-14T09:07:36Z</time>
      </trkpt>
      <trkpt lat="45.23096" lon="5.70894">
        <ele>1236</ele>
        <time>2015-11-14T09:07:38Z</time>
      </trkpt>
      <trkpt lat="45.23099" lon="5.70894">
        <ele>1237</ele>
        <time>2015-11-14T09:07:40Z</time>
      </trkpt>
      <trkpt lat="45.23101" lon="5.70894">
        <ele>1237</ele>
        <time>2015-11-14T09:07:48Z</time>
      </trkpt>
      <trkpt lat="45.23104" lon="5.70895">
        <ele>1239</ele>
        <time>2015-11-14T09:08:14Z</time>
      </trkpt>
      <trkpt lat="45.23106" lon="5.70893">
        <ele>1240</ele>
        <time>2015-11-14T09:08:17Z</time>
      </trkpt>
      <trkpt lat="45.23108" lon="5.70895">
        <ele>1241.2</ele>
        <time>2015-11-14T09:08:20Z</time>
      </trkpt>
      <trkpt lat="45.2311" lon="5.70895">
        <ele>1242</ele>
        <time>2015-11-14T09:08:23Z</time>
      </trkpt>
      <trkpt lat="45.23112" lon="5.70894">
        <ele>1243</ele>
        <time>2015-11-14T09:08:26Z</time>
      </trkpt>
      <trkpt lat="45.23114" lon="5.70895">
        <ele>1244</ele>
        <time>2015-11-14T09:08:29Z</time>
      </trkpt>
      <trkpt lat="45.23117" lon="5.70896">
        <ele>1244</ele>
        <time>2015-11-14T09:08:32Z</time>
      </trkpt>
      <trkpt lat="45.23119" lon="5.70896">
        <ele>1244.2</ele>
        <time>2015-11-14T09:08:34Z</time>
      </trkpt>
      <trkpt lat="45.2312" lon="5.70898">
        <ele>1245</ele>
        <time>2015-11-14T09:08:36Z</time>
      </trkpt>
      <trkpt lat="45.23123" lon="5.70898">
        <ele>1245</ele>
        <time>2015-11-14T09:08:39Z</time>
      </trkpt>
      <trkpt lat="45.23128" lon="5.70897">
        <ele>1245</ele>
        <time>2015-11-14T09:08:51Z</time>
      </trkpt>
      <trkpt lat="45.23131" lon="5.70898">
        <ele>1244</ele>
        <time>2015-11-14T09:09:05Z</time>
      </trkpt>
      <trkpt lat="45.23132" lon="5.709">
        <ele>1244</ele>
        <time>2015-11-14T09:09:08Z</time>
      </trkpt>
      <trkpt lat="45.23135" lon="5.70902">
        <ele>1244</ele>
        <time>2015-11-14T09:09:10Z</time>
      </trkpt>
      <trkpt lat="45.23136" lon="5.70904">
        <ele>1244</ele>
        <time>2015-11-14T09:09:12Z</time>
      </trkpt>
      <trkpt lat="45.23138" lon="5.70904">
        <ele>1243</ele>
        <time>2015-11-14T09:09:17Z</time>
      </trkpt>
      <trkpt lat="45.23141" lon="5.70904">
        <ele>1243</ele>
        <time>2015-11-14T09:09:21Z</time>
      </trkpt>
      <trkpt lat="45.23143" lon="5.70904">
        <ele>1243</ele>
        <time>2015-11-14T09:09:23Z</time>
      </trkpt>
      <trkpt lat="45.23145" lon="5.70906">
        <ele>1243</ele>
        <time>2015-11-14T09:09:25Z</time>
      </trkpt>
      <trkpt lat="45.23147" lon="5.70907">
        <ele>1243</ele>
        <time>2015-11-14T09:09:28Z</time>
      </trkpt>
      <trkpt lat="45.23149" lon="5.70908">
        <ele>1243</ele>
        <time>2015-11-14T09:09:30Z</time>
      </trkpt>
      <trkpt lat="45.23151" lon="5.70909">
        <ele>1243.2</ele>
        <time>2015-11-14T09:09:33Z</time>
      </trkpt>
      <trkpt lat="45.23153" lon="5.7091">
        <ele>1243.8</ele>
        <time>2015-11-14T09:09:35Z</time>
      </trkpt>
      <trkpt lat="45.23156" lon="5.7091">
        <ele>1243</ele>
        <time>2015-11-14T09:09:37Z</time>
      </trkpt>
      <trkpt lat="45.23159" lon="5.70911">
        <ele>1243.9</ele>
        <time>2015-11-14T09:09:39Z</time>
      </trkpt>
      <trkpt lat="45.23162" lon="5.70912">
        <ele>1243</ele>
        <time>2015-11-14T09:09:42Z</time>
      </trkpt>
      <trkpt lat="45.23163" lon="5.70912">
        <ele>1243</ele>
        <time>2015-11-14T09:09:43Z</time>
      </trkpt>
      <trkpt lat="45.23166" lon="5.70913">
        <ele>1243</ele>
        <time>2015-11-14T09:09:45Z</time>
      </trkpt>
      <trkpt lat="45.23166" lon="5.70915">
        <ele>1244</ele>
        <time>2015-11-14T09:09:48Z</time>
      </trkpt>
      <trkpt lat="45.23169" lon="5.70917">
        <ele>1244</ele>
        <time>2015-11-14T09:10:10Z</time>
      </trkpt>
      <trkpt lat="45.23171" lon="5.70917">
        <ele>1244</ele>
        <time>2015-11-14T09:10:13Z</time>
      </trkpt>
      <trkpt lat="45.23173" lon="5.70916">
        <ele>1244</ele>
        <time>2015-11-14T09:10:24Z</time>
      </trkpt>
      <trkpt lat="45.23176" lon="5.70915">
        <ele>1244</ele>
        <time>2015-11-14T09:10:26Z</time>
      </trkpt>
      <trkpt lat="45.23178" lon="5.70915">
        <ele>1244</ele>
        <time>2015-11-14T09:10:27Z</time>
      </trkpt>
      <trkpt lat="45.2318" lon="5.70916">
        <ele>1244</ele>
        <time>2015-11-14T09:10:29Z</time>
      </trkpt>
      <trkpt lat="45.23182" lon="5.70916">
        <ele>1244</ele>
        <time>2015-11-14T09:10:32Z</time>
      </trkpt>
      <trkpt lat="45.23183" lon="5.70918">
        <ele>1245</ele>
        <time>2015-11-14T09:10:36Z</time>
      </trkpt>
      <trkpt lat="45.23187" lon="5.70921">
        <ele>1246</ele>
        <time>2015-11-14T09:11:30Z</time>
      </trkpt>
      <trkpt lat="45.2319" lon="5.70924">
        <ele>1247</ele>
        <time>2015-11-14T09:11:45Z</time>
      </trkpt>
      <trkpt lat="45.23189" lon="5.70926">
        <ele>1248</ele>
        <time>2015-11-14T09:12:00Z</time>
      </trkpt>
      <trkpt lat="45.23192" lon="5.70928">
        <ele>1258</ele>
        <time>2015-11-14T09:12:50Z</time>
      </trkpt>
      <trkpt lat="45.23193" lon="5.70925">
        <ele>1263.8</ele>
        <time>2015-11-14T09:13:33Z</time>
      </trkpt>
      <trkpt lat="45.23195" lon="5.70923">
        <ele>1265</ele>
        <time>2015-11-14T09:13:45Z</time>
      </trkpt>
      <trkpt lat="45.232" lon="5.70925">
        <ele>1270</ele>
        <time>2015-11-14T09:14:08Z</time>
      </trkpt>
      <trkpt lat="45.23204" lon="5.70927">
        <ele>1270</ele>
        <time>2015-11-14T09:14:21Z</time>
      </trkpt>
      <trkpt lat="45.23206" lon="5.70927">
        <ele>1271</ele>
        <time>2015-11-14T09:14:24Z</time>
      </trkpt>
      <trkpt lat="45.23208" lon="5.70929">
        <ele>1271</ele>
        <time>2015-11-14T09:14:26Z</time>
      </trkpt>
      <trkpt lat="45.23209" lon="5.70931">
        <ele>1271</ele>
        <time>2015-11-14T09:14:29Z</time>
      </trkpt>
      <trkpt lat="45.2321" lon="5.70934">
        <ele>1273</ele>
        <time>2015-11-14T09:15:54Z</time>
      </trkpt>
      <trkpt lat="45.23215" lon="5.70938">
        <ele>1273</ele>
        <time>2015-11-14T09:17:50Z</time>
      </trkpt>
      <trkpt lat="45.2322" lon="5.70942">
        <ele>1273</ele>
        <time>2015-11-14T09:18:20Z</time>
      </trkpt>
      <trkpt lat="45.23222" lon="5.70943">
        <ele>1273</ele>
        <time>2015-11-14T09:18:24Z</time>
      </trkpt>
      <trkpt lat="45.23224" lon="5.70944">
        <ele>1274</ele>
        <time>2015-11-14T09:18:42Z</time>
      </trkpt>
      <trkpt lat="45.23228" lon="5.70946">
        <ele>1275</ele>
        <time>2015-11-14T09:19:36Z</time>
      </trkpt>
      <trkpt lat="45.23229" lon="5.70947">
        <ele>1275</ele>
        <time>2015-11-14T09:19:39Z</time>
      </trkpt>
      <trkpt lat="45.23232" lon="5.70947">
        <ele>1275</ele>
        <time>2015-11-14T09:19:45Z</time>
      </trkpt>
      <trkpt lat="45.23235" lon="5.70949">
        <ele>1276</ele>
        <time>2015-11-14T09:20:10Z</time>
      </trkpt>
      <trkpt lat="45.23237" lon="5.70949">
        <ele>1276.2</ele>
        <time>2015-11-14T09:20:14Z</time>
      </trkpt>
      <trkpt lat="45.2324" lon="5.70948">
        <ele>1277</ele>
        <time>2015-11-14T09:20:16Z</time>
      </trkpt>
      <trkpt lat="45.23241" lon="5.70949">
        <ele>1277</ele>
        <time>2015-11-14T09:20:18Z</time>
      </trkpt>
      <trkpt lat="45.23244" lon="5.70949">
        <ele>1277.2</ele>
        <time>2015-11-14T09:20:21Z</time>
      </trkpt>
      <trkpt lat="45.23245" lon="5.7095">
        <ele>1278</ele>
        <time>2015-11-14T09:20:24Z</time>
      </trkpt>
      <trkpt lat="45.23249" lon="5.70948">
        <ele>1279</ele>
        <time>2015-11-14T09:21:30Z</time>
      </trkpt>
      <trkpt lat="45.23251" lon="5.70948">
        <ele>1278</ele>
        <time>2015-11-14T09:21:54Z</time>
      </trkpt>
      <trkpt lat="45.23253" lon="5.70949">
        <ele>1278</ele>
        <time>2015-11-14T09:22:08Z</time>
      </trkpt>
      <trkpt lat="45.23259" lon="5.70949">
        <ele>1276</ele>
        <time>2015-11-14T09:22:23Z</time>
      </trkpt>
      <trkpt lat="45.23261" lon="5.70948">
        <ele>1275</ele>
        <time>2015-11-14T09:22:29Z</time>
      </trkpt>
      <trkpt lat="45.23263" lon="5.7095">
        <ele>1274</ele>
        <time>2015-11-14T09:22:38Z</time>
      </trkpt>
      <trkpt lat="45.23265" lon="5.70951">
        <ele>1274</ele>
        <time>2015-11-14T09:22:42Z</time>
      </trkpt>
      <trkpt lat="45.23267" lon="5.70953">
        <ele>1274</ele>
        <time>2015-11-14T09:22:46Z</time>
      </trkpt>
      <trkpt lat="45.23268" lon="5.70955">
        <ele>1274</ele>
        <time>2015-11-14T09:22:49Z</time>
      </trkpt>
      <trkpt lat="45.23271" lon="5.70957">
        <ele>1275</ele>
        <time>2015-11-14T09:23:10Z</time>
      </trkpt>
      <trkpt lat="45.23273" lon="5.70959">
        <ele>1275</ele>
        <time>2015-11-14T09:23:15Z</time>
      </trkpt>
      <trkpt lat="45.23275" lon="5.70961">
        <ele>1276</ele>
        <time>2015-11-14T09:23:29Z</time>
      </trkpt>
      <trkpt lat="45.23276" lon="5.70963">
        <ele>1277</ele>
        <time>2015-11-14T09:23:32Z</time>
      </trkpt>
      <trkpt lat="45.23277" lon="5.70966">
        <ele>1277</ele>
        <time>2015-11-14T09:23:34Z</time>
      </trkpt>
      <trkpt lat="45.23282" lon="5.70965">
        <ele>1279</ele>
        <time>2015-11-14T09:24:20Z</time>
      </trkpt>
      <trkpt lat="45.23286" lon="5.70966">
        <ele>1278</ele>
        <time>2015-11-14T09:24:38Z</time>
      </trkpt>
      <trkpt lat="45.23288" lon="5.70968">
        <ele>1278</ele>
        <time>2015-11-14T09:24:40Z</time>
      </trkpt>
      <trkpt lat="45.2329" lon="5.70969">
        <ele>1278</ele>
        <time>2015-11-14T09:24:43Z</time>
      </trkpt>
      <trkpt lat="45.23292" lon="5.70971">
        <ele>1277</ele>
        <time>2015-11-14T09:24:46Z</time>
      </trkpt>
      <trkpt lat="45.23295" lon="5.70971">
        <ele>1277</ele>
        <time>2015-11-14T09:24:49Z</time>
      </trkpt>
      <trkpt lat="45.23297" lon="5.70971">
        <ele>1277</ele>
        <time>2015-11-14T09:24:56Z</time>
      </trkpt>
      <trkpt lat="45.233" lon="5.7097">
        <ele>1276</ele>
        <time>2015-11-14T09:24:59Z</time>
      </trkpt>
      <trkpt lat="45.23301" lon="5.70971">
        <ele>1276</ele>
        <time>2015-11-14T09:25:01Z</time>
      </trkpt>
      <trkpt lat="45.23304" lon="5.70973">
        <ele>1276</ele>
        <time>2015-11-14T09:25:03Z</time>
      </trkpt>
      <trkpt lat="45.23307" lon="5.70975">
        <ele>1276</ele>
        <time>2015-11-14T09:25:05Z</time>
      </trkpt>
      <trkpt lat="45.23309" lon="5.70975">
        <ele>1276</ele>
        <time>2015-11-14T09:25:07Z</time>
      </trkpt>
      <trkpt lat="45.23311" lon="5.70977">
        <ele>1277</ele>
        <time>2015-11-14T09:25:20Z</time>
      </trkpt>
      <trkpt lat="45.23313" lon="5.70978">
        <ele>1277</ele>
        <time>2015-11-14T09:25:26Z</time>
      </trkpt>
      <trkpt lat="45.23316" lon="5.70981">
        <ele>1277</ele>
        <time>2015-11-14T09:25:35Z</time>
      </trkpt>
      <trkpt lat="45.2332" lon="5.70983">
        <ele>1278</ele>
        <time>2015-11-14T09:26:06Z</time>
      </trkpt>
      <trkpt lat="45.23322" lon="5.70984">
        <ele>1278</ele>
        <time>2015-11-14T09:26:17Z</time>
      </trkpt>
      <trkpt lat="45.23324" lon="5.70986">
        <ele>1278</ele>
        <time>2015-11-14T09:26:20Z</time>
      </trkpt>
      <trkpt lat="45.23326" lon="5.70986">
        <ele>1278</ele>
        <time>2015-11-14T09:26:22Z</time>
      </trkpt>
      <trkpt lat="45.23328" lon="5.70986">
        <ele>1277</ele>
        <time>2015-11-14T09:26:24Z</time>
      </trkpt>
      <trkpt lat="45.2333" lon="5.70987">
        <ele>1277</ele>
        <time>2015-11-14T09:26:27Z</time>
      </trkpt>
      <trkpt lat="45.23335" lon="5.70986">
        <ele>1275.8</ele>
        <time>2015-11-14T09:27:29Z</time>
      </trkpt>
      <trkpt lat="45.23339" lon="5.70981">
        <ele>1274</ele>
        <time>2015-11-14T09:27:44Z</time>
      </trkpt>
      <trkpt lat="45.23341" lon="5.70981">
        <ele>1274</ele>
        <time>2015-11-14T09:27:50Z</time>
      </trkpt>
      <trkpt lat="45.23346" lon="5.70981">
        <ele>1271.2</ele>
        <time>2015-11-14T09:29:38Z</time>
      </trkpt>
      <trkpt lat="45.23347" lon="5.70981">
        <ele>1270</ele>
        <time>2015-11-14T09:29:47Z</time>
      </trkpt>
      <trkpt lat="45.23349" lon="5.70977">
        <ele>1269</ele>
        <time>2015-11-14T09:30:05Z</time>
      </trkpt>
      <trkpt lat="45.23351" lon="5.70976">
        <ele>1269</ele>
        <time>2015-11-14T09:30:07Z</time>
      </trkpt>
      <trkpt lat="45.23353" lon="5.70976">
        <ele>1268</ele>
        <time>2015-11-14T09:30:10Z</time>
      </trkpt>
      <trkpt lat="45.23355" lon="5.70975">
        <ele>1268</ele>
        <time>2015-11-14T09:30:13Z</time>
      </trkpt>
      <trkpt lat="45.23358" lon="5.70978">
        <ele>1267.8</ele>
        <time>2015-11-14T09:30:29Z</time>
      </trkpt>
      <trkpt lat="45.2336" lon="5.70984">
        <ele>1267</ele>
        <time>2015-11-14T09:31:00Z</time>
      </trkpt>
      <trkpt lat="45.23362" lon="5.70984">
        <ele>1267</ele>
        <time>2015-11-14T09:31:02Z</time>
      </trkpt>
      <trkpt lat="45.23364" lon="5.70984">
        <ele>1267</ele>
        <time>2015-11-14T09:31:04Z</time>
      </trkpt>
      <trkpt lat="45.23366" lon="5.70984">
        <ele>1266.8</ele>
        <time>2015-11-14T09:31:07Z</time>
      </trkpt>
      <trkpt lat="45.23368" lon="5.70983">
        <ele>1266</ele>
        <time>2015-11-14T09:31:10Z</time>
      </trkpt>
      <trkpt lat="45.2337" lon="5.70982">
        <ele>1266</ele>
        <time>2015-11-14T09:31:13Z</time>
      </trkpt>
      <trkpt lat="45.23374" lon="5.7098">
        <ele>1265</ele>
        <time>2015-11-14T09:31:20Z</time>
      </trkpt>
      <trkpt lat="45.23376" lon="5.70979">
        <ele>1265</ele>
        <time>2015-11-14T09:31:22Z</time>
      </trkpt>
      <trkpt lat="45.23378" lon="5.70978">
        <ele>1265</ele>
        <time>2015-11-14T09:31:26Z</time>
      </trkpt>
      <trkpt lat="45.2338" lon="5.70978">
        <ele>1264</ele>
        <time>2015-11-14T09:31:30Z</time>
      </trkpt>
      <trkpt lat="45.23382" lon="5.70978">
        <ele>1264</ele>
        <time>2015-11-14T09:31:33Z</time>
      </trkpt>
      <trkpt lat="45.23386" lon="5.70979">
        <ele>1262</ele>
        <time>2015-11-14T09:31:46Z</time>
      </trkpt>
      <trkpt lat="45.23388" lon="5.70983">
        <ele>1262</ele>
        <time>2015-11-14T09:31:58Z</time>
      </trkpt>
      <trkpt lat="45.23391" lon="5.70988">
        <ele>1263</ele>
        <time>2015-11-14T09:32:22Z</time>
      </trkpt>
      <trkpt lat="45.23393" lon="5.7099">
        <ele>1264</ele>
        <time>2015-11-14T09:32:31Z</time>
      </trkpt>
      <trkpt lat="45.23395" lon="5.70991">
        <ele>1265</ele>
        <time>2015-11-14T09:32:34Z</time>
      </trkpt>
      <trkpt lat="45.23396" lon="5.70997">
        <ele>1267</ele>
        <time>2015-11-14T09:32:49Z</time>
      </trkpt>
      <trkpt lat="45.23396" lon="5.71001">
        <ele>1269</ele>
        <time>2015-11-14T09:32:58Z</time>
      </trkpt>
      <trkpt lat="45.23397" lon="5.71004">
        <ele>1271</ele>
        <time>2015-11-14T09:33:14Z</time>
      </trkpt>
      <trkpt lat="45.23393" lon="5.7101">
        <ele>1273.2</ele>
        <time>2015-11-14T09:33:29Z</time>
      </trkpt>
      <trkpt lat="45.23392" lon="5.71014">
        <ele>1278.1</ele>
        <time>2015-11-14T09:33:59Z</time>
      </trkpt>
      <trkpt lat="45.23396" lon="5.71017">
        <ele>1281</ele>
        <time>2015-11-14T09:34:15Z</time>
      </trkpt>
      <trkpt lat="45.23399" lon="5.71018">
        <ele>1287</ele>
        <time>2015-11-14T09:34:51Z</time>
      </trkpt>
      <trkpt lat="45.23401" lon="5.71018">
        <ele>1287</ele>
        <time>2015-11-14T09:34:53Z</time>
      </trkpt>
      <trkpt lat="45.23403" lon="5.71017">
        <ele>1287</ele>
        <time>2015-11-14T09:34:55Z</time>
      </trkpt>
      <trkpt lat="45.23405" lon="5.71015">
        <ele>1288</ele>
        <time>2015-11-14T09:34:58Z</time>
      </trkpt>
      <trkpt lat="45.23407" lon="5.71015">
        <ele>1288</ele>
        <time>2015-11-14T09:35:00Z</time>
      </trkpt>
      <trkpt lat="45.23409" lon="5.71014">
        <ele>1288</ele>
        <time>2015-11-14T09:35:02Z</time>
      </trkpt>
      <trkpt lat="45.23411" lon="5.71014">
        <ele>1288.2</ele>
        <time>2015-11-14T09:35:04Z</time>
      </trkpt>
      <trkpt lat="45.23413" lon="5.71015">
        <ele>1289</ele>
        <time>2015-11-14T09:35:07Z</time>
      </trkpt>
      <trkpt lat="45.23417" lon="5.71016">
        <ele>1291.2</ele>
        <time>2015-11-14T09:35:16Z</time>
      </trkpt>
      <trkpt lat="45.2342" lon="5.71017">
        <ele>1292</ele>
        <time>2015-11-14T09:35:18Z</time>
      </trkpt>
      <trkpt lat="45.23421" lon="5.71017">
        <ele>1292.2</ele>
        <time>2015-11-14T09:35:20Z</time>
      </trkpt>
      <trkpt lat="45.23424" lon="5.71018">
        <ele>1293</ele>
        <time>2015-11-14T09:35:23Z</time>
      </trkpt>
      <trkpt lat="45.23427" lon="5.7102">
        <ele>1295</ele>
        <time>2015-11-14T09:35:59Z</time>
      </trkpt>
      <trkpt lat="45.23429" lon="5.71021">
        <ele>1295.2</ele>
        <time>2015-11-14T09:36:02Z</time>
      </trkpt>
      <trkpt lat="45.23431" lon="5.71021">
        <ele>1295</ele>
        <time>2015-11-14T09:36:04Z</time>
      </trkpt>
      <trkpt lat="45.23436" lon="5.7102">
        <ele>1295</ele>
        <time>2015-11-14T09:36:19Z</time>
      </trkpt>
      <trkpt lat="45.2344" lon="5.71019">
        <ele>1295</ele>
        <time>2015-11-14T09:36:21Z</time>
      </trkpt>
      <trkpt lat="45.23442" lon="5.71019">
        <ele>1295</ele>
        <time>2015-11-14T09:36:22Z</time>
      </trkpt>
      <trkpt lat="45.23444" lon="5.71019">
        <ele>1295</ele>
        <time>2015-11-14T09:36:23Z</time>
      </trkpt>
      <trkpt lat="45.23447" lon="5.71019">
        <ele>1295</ele>
        <time>2015-11-14T09:36:24Z</time>
      </trkpt>
      <trkpt lat="45.23449" lon="5.7102">
        <ele>1295</ele>
        <time>2015-11-14T09:36:25Z</time>
      </trkpt>
      <trkpt lat="45.23451" lon="5.71021">
        <ele>1295</ele>
        <time>2015-11-14T09:36:27Z</time>
      </trkpt>
      <trkpt lat="45.23454" lon="5.71021">
        <ele>1295.2</ele>
        <time>2015-11-14T09:36:29Z</time>
      </trkpt>
      <trkpt lat="45.23457" lon="5.71023">
        <ele>1296</ele>
        <time>2015-11-14T09:36:31Z</time>
      </trkpt>
      <trkpt lat="45.23459" lon="5.71025">
        <ele>1296</ele>
        <time>2015-11-14T09:36:37Z</time>
      </trkpt>
      <trkpt lat="45.23462" lon="5.71025">
        <ele>1296</ele>
        <time>2015-11-14T09:36:40Z</time>
      </trkpt>
      <trkpt lat="45.23465" lon="5.71026">
        <ele>1297</ele>
        <time>2015-11-14T09:36:42Z</time>
      </trkpt>
      <trkpt lat="45.2347" lon="5.71023">
        <ele>1298</ele>
        <time>2015-11-14T09:38:11Z</time>
      </trkpt>
      <trkpt lat="45.23472" lon="5.71023">
        <ele>1298</ele>
        <time>2015-11-14T09:38:13Z</time>
      </trkpt>
      <trkpt lat="45.23474" lon="5.71024">
        <ele>1298</ele>
        <time>2015-11-14T09:38:16Z</time>
      </trkpt>
      <trkpt lat="45.23477" lon="5.71024">
        <ele>1297</ele>
        <time>2015-11-14T09:38:20Z</time>
      </trkpt>
      <trkpt lat="45.23482" lon="5.71024">
        <ele>1297</ele>
        <time>2015-11-14T09:38:53Z</time>
      </trkpt>
      <trkpt lat="45.23486" lon="5.71021">
        <ele>1295.9</ele>
        <time>2015-11-14T09:39:43Z</time>
      </trkpt>
      <trkpt lat="45.23489" lon="5.71021">
        <ele>1295</ele>
        <time>2015-11-14T09:40:05Z</time>
      </trkpt>
      <trkpt lat="45.23494" lon="5.71019">
        <ele>1292.8</ele>
        <time>2015-11-14T09:40:26Z</time>
      </trkpt>
      <trkpt lat="45.23496" lon="5.71018">
        <ele>1290</ele>
        <time>2015-11-14T09:40:32Z</time>
      </trkpt>
      <trkpt lat="45.23498" lon="5.71017">
        <ele>1289.9</ele>
        <time>2015-11-14T09:40:35Z</time>
      </trkpt>
      <trkpt lat="45.23501" lon="5.71017">
        <ele>1289</ele>
        <time>2015-11-14T09:40:39Z</time>
      </trkpt>
      <trkpt lat="45.23503" lon="5.71017">
        <ele>1288.1</ele>
        <time>2015-11-14T09:40:41Z</time>
      </trkpt>
      <trkpt lat="45.23505" lon="5.71018">
        <ele>1288</ele>
        <time>2015-11-14T09:40:44Z</time>
      </trkpt>
      <trkpt lat="45.23508" lon="5.71018">
        <ele>1287</ele>
        <time>2015-11-14T09:40:47Z</time>
      </trkpt>
      <trkpt lat="45.23511" lon="5.71017">
        <ele>1286</ele>
        <time>2015-11-14T09:41:00Z</time>
      </trkpt>
      <trkpt lat="45.23513" lon="5.71017">
        <ele>1286</ele>
        <time>2015-11-14T09:41:02Z</time>
      </trkpt>
      <trkpt lat="45.23515" lon="5.71016">
        <ele>1285</ele>
        <time>2015-11-14T09:41:07Z</time>
      </trkpt>
      <trkpt lat="45.23517" lon="5.71018">
        <ele>1285</ele>
        <time>2015-11-14T09:41:10Z</time>
      </trkpt>
      <trkpt lat="45.23519" lon="5.71018">
        <ele>1285</ele>
        <time>2015-11-14T09:41:15Z</time>
      </trkpt>
      <trkpt lat="45.23521" lon="5.71019">
        <ele>1285</ele>
        <time>2015-11-14T09:41:18Z</time>
      </trkpt>
      <trkpt lat="45.23524" lon="5.7102">
        <ele>1285</ele>
        <time>2015-11-14T09:41:32Z</time>
      </trkpt>
      <trkpt lat="45.23527" lon="5.71021">
        <ele>1285</ele>
        <time>2015-11-14T09:41:35Z</time>
      </trkpt>
      <trkpt lat="45.23529" lon="5.71021">
        <ele>1285</ele>
        <time>2015-11-14T09:41:38Z</time>
      </trkpt>
      <trkpt lat="45.23531" lon="5.71021">
        <ele>1285</ele>
        <time>2015-11-14T09:41:41Z</time>
      </trkpt>
      <trkpt lat="45.23534" lon="5.71022">
        <ele>1285</ele>
        <time>2015-11-14T09:41:45Z</time>
      </trkpt>
      <trkpt lat="45.23536" lon="5.71022">
        <ele>1284</ele>
        <time>2015-11-14T09:41:58Z</time>
      </trkpt>
      <trkpt lat="45.23541" lon="5.71021">
        <ele>1284</ele>
        <time>2015-11-14T09:42:11Z</time>
      </trkpt>
      <trkpt lat="45.23548" lon="5.7102">
        <ele>1284</ele>
        <time>2015-11-14T09:42:28Z</time>
      </trkpt>
      <trkpt lat="45.2355" lon="5.7102">
        <ele>1284</ele>
        <time>2015-11-14T09:42:31Z</time>
      </trkpt>
      <trkpt lat="45.23553" lon="5.71019">
        <ele>1283</ele>
        <time>2015-11-14T09:42:38Z</time>
      </trkpt>
      <trkpt lat="45.23556" lon="5.71019">
        <ele>1283</ele>
        <time>2015-11-14T09:42:41Z</time>
      </trkpt>
      <trkpt lat="45.23557" lon="5.71018">
        <ele>1283</ele>
        <time>2015-11-14T09:42:44Z</time>
      </trkpt>
      <trkpt lat="45.23559" lon="5.71018">
        <ele>1283</ele>
        <time>2015-11-14T09:42:47Z</time>
      </trkpt>
      <trkpt lat="45.23562" lon="5.71018">
        <ele>1283</ele>
        <time>2015-11-14T09:42:51Z</time>
      </trkpt>
      <trkpt lat="45.23564" lon="5.71018">
        <ele>1283</ele>
        <time>2015-11-14T09:42:53Z</time>
      </trkpt>
      <trkpt lat="45.23566" lon="5.71018">
        <ele>1282</ele>
        <time>2015-11-14T09:42:56Z</time>
      </trkpt>
      <trkpt lat="45.23569" lon="5.71018">
        <ele>1282</ele>
        <time>2015-11-14T09:43:02Z</time>
      </trkpt>
      <trkpt lat="45.23571" lon="5.71019">
        <ele>1282</ele>
        <time>2015-11-14T09:43:05Z</time>
      </trkpt>
      <trkpt lat="45.23572" lon="5.7102">
        <ele>1282</ele>
        <time>2015-11-14T09:43:08Z</time>
      </trkpt>
      <trkpt lat="45.23575" lon="5.7102">
        <ele>1282</ele>
        <time>2015-11-14T09:43:20Z</time>
      </trkpt>
      <trkpt lat="45.23577" lon="5.7102">
        <ele>1282</ele>
        <time>2015-11-14T09:43:22Z</time>
      </trkpt>
      <trkpt lat="45.23581" lon="5.71021">
        <ele>1282</ele>
        <time>2015-11-14T09:43:35Z</time>
      </trkpt>
      <trkpt lat="45.23583" lon="5.71021">
        <ele>1282</ele>
        <time>2015-11-14T09:43:38Z</time>
      </trkpt>
      <trkpt lat="45.23585" lon="5.71021">
        <ele>1282</ele>
        <time>2015-11-14T09:43:42Z</time>
      </trkpt>
      <trkpt lat="45.23587" lon="5.71021">
        <ele>1282.1</ele>
        <time>2015-11-14T09:43:46Z</time>
      </trkpt>
      <trkpt lat="45.23589" lon="5.71022">
        <ele>1283</ele>
        <time>2015-11-14T09:43:48Z</time>
      </trkpt>
      <trkpt lat="45.23591" lon="5.71024">
        <ele>1283</ele>
        <time>2015-11-14T09:43:52Z</time>
      </trkpt>
      <trkpt lat="45.23593" lon="5.71024">
        <ele>1283</ele>
        <time>2015-11-14T09:43:55Z</time>
      </trkpt>
      <trkpt lat="45.23596" lon="5.71024">
        <ele>1283</ele>
        <time>2015-11-14T09:43:58Z</time>
      </trkpt>
      <trkpt lat="45.23598" lon="5.71025">
        <ele>1283</ele>
        <time>2015-11-14T09:44:01Z</time>
      </trkpt>
      <trkpt lat="45.236" lon="5.71024">
        <ele>1283</ele>
        <time>2015-11-14T09:44:03Z</time>
      </trkpt>
      <trkpt lat="45.23603" lon="5.71024">
        <ele>1284</ele>
        <time>2015-11-14T09:44:06Z</time>
      </trkpt>
      <trkpt lat="45.23605" lon="5.71025">
        <ele>1284</ele>
        <time>2015-11-14T09:44:08Z</time>
      </trkpt>
      <trkpt lat="45.23607" lon="5.71025">
        <ele>1285</ele>
        <time>2015-11-14T09:44:11Z</time>
      </trkpt>
      <trkpt lat="45.23609" lon="5.71025">
        <ele>1285</ele>
        <time>2015-11-14T09:44:13Z</time>
      </trkpt>
      <trkpt lat="45.23612" lon="5.71026">
        <ele>1285</ele>
        <time>2015-11-14T09:44:16Z</time>
      </trkpt>
      <trkpt lat="45.23613" lon="5.71026">
        <ele>1287</ele>
        <time>2015-11-14T09:44:38Z</time>
      </trkpt>
      <trkpt lat="45.23618" lon="5.71029">
        <ele>1288</ele>
        <time>2015-11-14T09:44:52Z</time>
      </trkpt>
      <trkpt lat="45.2362" lon="5.71029">
        <ele>1289</ele>
        <time>2015-11-14T09:44:58Z</time>
      </trkpt>
      <trkpt lat="45.23621" lon="5.7103">
        <ele>1289</ele>
        <time>2015-11-14T09:45:02Z</time>
      </trkpt>
      <trkpt lat="45.23624" lon="5.7103">
        <ele>1289</ele>
        <time>2015-11-14T09:45:05Z</time>
      </trkpt>
      <trkpt lat="45.23625" lon="5.7103">
        <ele>1289</ele>
        <time>2015-11-14T09:45:08Z</time>
      </trkpt>
      <trkpt lat="45.23628" lon="5.71031">
        <ele>1290</ele>
        <time>2015-11-14T09:45:13Z</time>
      </trkpt>
      <trkpt lat="45.2363" lon="5.71031">
        <ele>1290</ele>
        <time>2015-11-14T09:45:16Z</time>
      </trkpt>
      <trkpt lat="45.23631" lon="5.7103">
        <ele>1290</ele>
        <time>2015-11-14T09:45:19Z</time>
      </trkpt>
      <trkpt lat="45.23633" lon="5.7103">
        <ele>1290</ele>
        <time>2015-11-14T09:45:21Z</time>
      </trkpt>
      <trkpt lat="45.23636" lon="5.7103">
        <ele>1290</ele>
        <time>2015-11-14T09:45:24Z</time>
      </trkpt>
      <trkpt lat="45.23638" lon="5.7103">
        <ele>1290</ele>
        <time>2015-11-14T09:45:27Z</time>
      </trkpt>
      <trkpt lat="45.2364" lon="5.7103">
        <ele>1290</ele>
        <time>2015-11-14T09:45:30Z</time>
      </trkpt>
      <trkpt lat="45.23642" lon="5.7103">
        <ele>1290</ele>
        <time>2015-11-14T09:45:32Z</time>
      </trkpt>
      <trkpt lat="45.23644" lon="5.71029">
        <ele>1290</ele>
        <time>2015-11-14T09:45:35Z</time>
      </trkpt>
      <trkpt lat="45.23647" lon="5.71028">
        <ele>1289.2</ele>
        <time>2015-11-14T09:45:38Z</time>
      </trkpt>
      <trkpt lat="45.23649" lon="5.71027">
        <ele>1290</ele>
        <time>2015-11-14T09:45:41Z</time>
      </trkpt>
      <trkpt lat="45.23653" lon="5.71024">
        <ele>1287.9</ele>
        <time>2015-11-14T09:47:12Z</time>
      </trkpt>
      <trkpt lat="45.23655" lon="5.71022">
        <ele>1287</ele>
        <time>2015-11-14T09:47:17Z</time>
      </trkpt>
      <trkpt lat="45.23657" lon="5.71021">
        <ele>1287</ele>
        <time>2015-11-14T09:47:20Z</time>
      </trkpt>
      <trkpt lat="45.23659" lon="5.71021">
        <ele>1286</ele>
        <time>2015-11-14T09:47:24Z</time>
      </trkpt>
      <trkpt lat="45.23662" lon="5.7102">
        <ele>1286</ele>
        <time>2015-11-14T09:47:26Z</time>
      </trkpt>
      <trkpt lat="45.23664" lon="5.7102">
        <ele>1286</ele>
        <time>2015-11-14T09:47:28Z</time>
      </trkpt>
      <trkpt lat="45.23667" lon="5.7102">
        <ele>1286</ele>
        <time>2015-11-14T09:47:30Z</time>
      </trkpt>
      <trkpt lat="45.23669" lon="5.71019">
        <ele>1285.8</ele>
        <time>2015-11-14T09:47:32Z</time>
      </trkpt>
      <trkpt lat="45.23671" lon="5.7102">
        <ele>1285</ele>
        <time>2015-11-14T09:47:34Z</time>
      </trkpt>
      <trkpt lat="45.23676" lon="5.7102">
        <ele>1284</ele>
        <time>2015-11-14T09:47:49Z</time>
      </trkpt>
      <trkpt lat="45.23682" lon="5.71021">
        <ele>1283</ele>
        <time>2015-11-14T09:48:02Z</time>
      </trkpt>
      <trkpt lat="45.23685" lon="5.71021">
        <ele>1283</ele>
        <time>2015-11-14T09:48:08Z</time>
      </trkpt>
      <trkpt lat="45.23687" lon="5.71022">
        <ele>1283</ele>
        <time>2015-11-14T09:48:10Z</time>
      </trkpt>
      <trkpt lat="45.23689" lon="5.71023">
        <ele>1283</ele>
        <time>2015-11-14T09:48:13Z</time>
      </trkpt>
      <trkpt lat="45.23692" lon="5.71021">
        <ele>1282</ele>
        <time>2015-11-14T09:48:28Z</time>
      </trkpt>
      <trkpt lat="45.23694" lon="5.71022">
        <ele>1282</ele>
        <time>2015-11-14T09:48:30Z</time>
      </trkpt>
      <trkpt lat="45.23696" lon="5.71022">
        <ele>1282</ele>
        <time>2015-11-14T09:48:33Z</time>
      </trkpt>
      <trkpt lat="45.23698" lon="5.71024">
        <ele>1282</ele>
        <time>2015-11-14T09:48:36Z</time>
      </trkpt>
      <trkpt lat="45.237" lon="5.71024">
        <ele>1282</ele>
        <time>2015-11-14T09:48:39Z</time>
      </trkpt>
      <trkpt lat="45.23702" lon="5.71023">
        <ele>1282</ele>
        <time>2015-11-14T09:48:42Z</time>
      </trkpt>
      <trkpt lat="45.23704" lon="5.71024">
        <ele>1283</ele>
        <time>2015-11-14T09:48:45Z</time>
      </trkpt>
      <trkpt lat="45.23706" lon="5.71024">
        <ele>1283</ele>
        <time>2015-11-14T09:48:47Z</time>
      </trkpt>
      <trkpt lat="45.23708" lon="5.71023">
        <ele>1284</ele>
        <time>2015-11-14T09:48:50Z</time>
      </trkpt>
      <trkpt lat="45.2371" lon="5.71024">
        <ele>1284</ele>
        <time>2015-11-14T09:48:53Z</time>
      </trkpt>
      <trkpt lat="45.23712" lon="5.71023">
        <ele>1285</ele>
        <time>2015-11-14T09:48:56Z</time>
      </trkpt>
      <trkpt lat="45.23714" lon="5.71023">
        <ele>1285</ele>
        <time>2015-11-14T09:48:58Z</time>
      </trkpt>
      <trkpt lat="45.23716" lon="5.71023">
        <ele>1285</ele>
        <time>2015-11-14T09:49:01Z</time>
      </trkpt>
      <trkpt lat="45.23718" lon="5.71021">
        <ele>1285</ele>
        <time>2015-11-14T09:49:03Z</time>
      </trkpt>
      <trkpt lat="45.23719" lon="5.71014">
        <ele>1287</ele>
        <time>2015-11-14T09:49:18Z</time>
      </trkpt>
      <trkpt lat="45.23722" lon="5.71012">
        <ele>1287</ele>
        <time>2015-11-14T09:49:24Z</time>
      </trkpt>
      <trkpt lat="45.23723" lon="5.71012">
        <ele>1288</ele>
        <time>2015-11-14T09:49:27Z</time>
      </trkpt>
      <trkpt lat="45.23726" lon="5.71011">
        <ele>1290.7</ele>
        <time>2015-11-14T09:49:33Z</time>
      </trkpt>
      <trkpt lat="45.23727" lon="5.71009">
        <ele>1297</ele>
        <time>2015-11-14T09:49:51Z</time>
      </trkpt>
      <trkpt lat="45.23731" lon="5.71009">
        <ele>1300</ele>
        <time>2015-11-14T09:50:51Z</time>
      </trkpt>
      <trkpt lat="45.23733" lon="5.71006">
        <ele>1298</ele>
        <time>2015-11-14T09:52:06Z</time>
      </trkpt>
      <trkpt lat="45.23735" lon="5.71003">
        <ele>1296</ele>
        <time>2015-11-14T09:52:17Z</time>
      </trkpt>
      <trkpt lat="45.23737" lon="5.71003">
        <ele>1296</ele>
        <time>2015-11-14T09:52:21Z</time>
      </trkpt>
      <trkpt lat="45.23739" lon="5.71004">
        <ele>1296</ele>
        <time>2015-11-14T09:52:24Z</time>
      </trkpt>
      <trkpt lat="45.23741" lon="5.71002">
        <ele>1296</ele>
        <time>2015-11-14T09:52:28Z</time>
      </trkpt>
      <trkpt lat="45.23743" lon="5.71002">
        <ele>1295</ele>
        <time>2015-11-14T09:52:31Z</time>
      </trkpt>
      <trkpt lat="45.23745" lon="5.71002">
        <ele>1295</ele>
        <time>2015-11-14T09:52:33Z</time>
      </trkpt>
      <trkpt lat="45.23747" lon="5.71003">
        <ele>1295</ele>
        <time>2015-11-14T09:52:36Z</time>
      </trkpt>
      <trkpt lat="45.23751" lon="5.71006">
        <ele>1295</ele>
        <time>2015-11-14T09:54:23Z</time>
      </trkpt>
      <trkpt lat="45.23755" lon="5.71007">
        <ele>1292</ele>
        <time>2015-11-14T09:55:29Z</time>
      </trkpt>
      <trkpt lat="45.23761" lon="5.71006">
        <ele>1291</ele>
        <time>2015-11-14T09:55:44Z</time>
      </trkpt>
      <trkpt lat="45.23763" lon="5.71008">
        <ele>1287</ele>
        <time>2015-11-14T09:56:58Z</time>
      </trkpt>
      <trkpt lat="45.23766" lon="5.71009">
        <ele>1287</ele>
        <time>2015-11-14T09:56:59Z</time>
      </trkpt>
      <trkpt lat="45.23769" lon="5.71008">
        <ele>1286</ele>
        <time>2015-11-14T09:57:01Z</time>
      </trkpt>
      <trkpt lat="45.23766" lon="5.71001">
        <ele>1285</ele>
        <time>2015-11-14T09:57:11Z</time>
      </trkpt>
      <trkpt lat="45.23765" lon="5.70995">
        <ele>1285</ele>
        <time>2015-11-14T09:57:52Z</time>
      </trkpt>
      <trkpt lat="45.23768" lon="5.70993">
        <ele>1287</ele>
        <time>2015-11-14T09:59:52Z</time>
      </trkpt>
      <trkpt lat="45.2377" lon="5.70993">
        <ele>1287</ele>
        <time>2015-11-14T09:59:55Z</time>
      </trkpt>
      <trkpt lat="45.23773" lon="5.70998">
        <ele>1284</ele>
        <time>2015-11-14T10:00:14Z</time>
      </trkpt>
      <trkpt lat="45.23778" lon="5.70997">
        <ele>1283</ele>
        <time>2015-11-14T10:00:30Z</time>
      </trkpt>
      <trkpt lat="45.2378" lon="5.70995">
        <ele>1283</ele>
        <time>2015-11-14T10:00:35Z</time>
      </trkpt>
      <trkpt lat="45.23781" lon="5.70992">
        <ele>1282</ele>
        <time>2015-11-14T10:00:40Z</time>
      </trkpt>
      <trkpt lat="45.23782" lon="5.70989">
        <ele>1282</ele>
        <time>2015-11-14T10:00:43Z</time>
      </trkpt>
      <trkpt lat="45.23787" lon="5.70986">
        <ele>1283.8</ele>
        <time>2015-11-14T10:01:37Z</time>
      </trkpt>
      <trkpt lat="45.23792" lon="5.70983">
        <ele>1283</ele>
        <time>2015-11-14T10:02:10Z</time>
      </trkpt>
      <trkpt lat="45.23796" lon="5.70978">
        <ele>1284</ele>
        <time>2015-11-14T10:02:39Z</time>
      </trkpt>
      <trkpt lat="45.238" lon="5.70974">
        <ele>1284</ele>
        <time>2015-11-14T10:02:44Z</time>
      </trkpt>
      <trkpt lat="45.23799" lon="5.7097">
        <ele>1285</ele>
        <time>2015-11-14T10:03:00Z</time>
      </trkpt>
      <trkpt lat="45.23798" lon="5.70966">
        <ele>1286.2</ele>
        <time>2015-11-14T10:03:23Z</time>
      </trkpt>
      <trkpt lat="45.23801" lon="5.70963">
        <ele>1291</ele>
        <time>2015-11-14T10:03:39Z</time>
      </trkpt>
      <trkpt lat="45.23803" lon="5.70967">
        <ele>1294</ele>
        <time>2015-11-14T10:06:26Z</time>
      </trkpt>
      <trkpt lat="45.23804" lon="5.70965">
        <ele>1294</ele>
        <time>2015-11-14T10:06:32Z</time>
      </trkpt>
      <trkpt lat="45.23806" lon="5.70965">
        <ele>1293</ele>
        <time>2015-11-14T10:06:36Z</time>
      </trkpt>
      <trkpt lat="45.23808" lon="5.70968">
        <ele>1292</ele>
        <time>2015-11-14T10:06:55Z</time>
      </trkpt>
      <trkpt lat="45.23805" lon="5.7097">
        <ele>1293</ele>
        <time>2015-11-14T10:08:12Z</time>
      </trkpt>
      <trkpt lat="45.23804" lon="5.70972">
        <ele>1294</ele>
        <time>2015-11-14T10:08:15Z</time>
      </trkpt>
      <trkpt lat="45.23806" lon="5.7097">
        <ele>1293.1</ele>
        <time>2015-11-14T10:08:33Z</time>
      </trkpt>
      <trkpt lat="45.23808" lon="5.70967">
        <ele>1293</ele>
        <time>2015-11-14T10:08:38Z</time>
      </trkpt>
      <trkpt lat="45.23809" lon="5.70969">
        <ele>1293</ele>
        <time>2015-11-14T10:08:41Z</time>
      </trkpt>
      <trkpt lat="45.23813" lon="5.70965">
        <ele>1291</ele>
        <time>2015-11-14T10:09:03Z</time>
      </trkpt>
      <trkpt lat="45.23816" lon="5.70958">
        <ele>1289</ele>
        <time>2015-11-14T10:09:23Z</time>
      </trkpt>
      <trkpt lat="45.23818" lon="5.70957">
        <ele>1289</ele>
        <time>2015-11-14T10:09:26Z</time>
      </trkpt>
      <trkpt lat="45.2382" lon="5.70955">
        <ele>1288.9</ele>
        <time>2015-11-14T10:09:29Z</time>
      </trkpt>
      <trkpt lat="45.23821" lon="5.70949">
        <ele>1287</ele>
        <time>2015-11-14T10:09:54Z</time>
      </trkpt>
      <trkpt lat="45.23822" lon="5.70946">
        <ele>1286</ele>
        <time>2015-11-14T10:09:57Z</time>
      </trkpt>
      <trkpt lat="45.23824" lon="5.70943">
        <ele>1285</ele>
        <time>2015-11-14T10:10:04Z</time>
      </trkpt>
      <trkpt lat="45.23826" lon="5.70941">
        <ele>1285</ele>
        <time>2015-11-14T10:10:06Z</time>
      </trkpt>
      <trkpt lat="45.23829" lon="5.70941">
        <ele>1284.1</ele>
        <time>2015-11-14T10:10:08Z</time>
      </trkpt>
      <trkpt lat="45.23831" lon="5.70938">
        <ele>1284</ele>
        <time>2015-11-14T10:10:10Z</time>
      </trkpt>
      <trkpt lat="45.23833" lon="5.70938">
        <ele>1283</ele>
        <time>2015-11-14T10:10:12Z</time>
      </trkpt>
      <trkpt lat="45.23834" lon="5.70935">
        <ele>1282</ele>
        <time>2015-11-14T10:10:16Z</time>
      </trkpt>
      <trkpt lat="45.23836" lon="5.70932">
        <ele>1281</ele>
        <time>2015-11-14T10:10:22Z</time>
      </trkpt>
      <trkpt lat="45.23838" lon="5.7093">
        <ele>1280.8</ele>
        <time>2015-11-14T10:10:25Z</time>
      </trkpt>
      <trkpt lat="45.23843" lon="5.70927">
        <ele>1278</ele>
        <time>2015-11-14T10:10:37Z</time>
      </trkpt>
      <trkpt lat="45.23845" lon="5.70928">
        <ele>1277.8</ele>
        <time>2015-11-14T10:10:39Z</time>
      </trkpt>
      <trkpt lat="45.23847" lon="5.70927">
        <ele>1275</ele>
        <time>2015-11-14T10:10:47Z</time>
      </trkpt>
      <trkpt lat="45.2385" lon="5.70926">
        <ele>1275</ele>
        <time>2015-11-14T10:10:49Z</time>
      </trkpt>
      <trkpt lat="45.23852" lon="5.70925">
        <ele>1274</ele>
        <time>2015-11-14T10:10:52Z</time>
      </trkpt>
      <trkpt lat="45.23855" lon="5.70922">
        <ele>1272</ele>
        <time>2015-11-14T10:11:03Z</time>
      </trkpt>
      <trkpt lat="45.2386" lon="5.7092">
        <ele>1268.1</ele>
        <time>2015-11-14T10:11:23Z</time>
      </trkpt>
      <trkpt lat="45.23862" lon="5.70919">
        <ele>1267</ele>
        <time>2015-11-14T10:11:28Z</time>
      </trkpt>
      <trkpt lat="45.23864" lon="5.70918">
        <ele>1267</ele>
        <time>2015-11-14T10:11:30Z</time>
      </trkpt>
      <trkpt lat="45.23866" lon="5.70918">
        <ele>1266.8</ele>
        <time>2015-11-14T10:11:32Z</time>
      </trkpt>
      <trkpt lat="45.23868" lon="5.7092">
        <ele>1266</ele>
        <time>2015-11-14T10:11:34Z</time>
      </trkpt>
      <trkpt lat="45.2387" lon="5.7092">
        <ele>1265</ele>
        <time>2015-11-14T10:11:37Z</time>
      </trkpt>
      <trkpt lat="45.23872" lon="5.70918">
        <ele>1265</ele>
        <time>2015-11-14T10:11:40Z</time>
      </trkpt>
      <trkpt lat="45.23873" lon="5.70916">
        <ele>1264.9</ele>
        <time>2015-11-14T10:11:42Z</time>
      </trkpt>
      <trkpt lat="45.23875" lon="5.70915">
        <ele>1264</ele>
        <time>2015-11-14T10:11:44Z</time>
      </trkpt>
      <trkpt lat="45.23878" lon="5.70913">
        <ele>1263.8</ele>
        <time>2015-11-14T10:11:46Z</time>
      </trkpt>
      <trkpt lat="45.2388" lon="5.70912">
        <ele>1263</ele>
        <time>2015-11-14T10:11:49Z</time>
      </trkpt>
      <trkpt lat="45.23883" lon="5.70911">
        <ele>1262.8</ele>
        <time>2015-11-14T10:11:51Z</time>
      </trkpt>
      <trkpt lat="45.23884" lon="5.70911">
        <ele>1262</ele>
        <time>2015-11-14T10:11:53Z</time>
      </trkpt>
      <trkpt lat="45.23886" lon="5.7091">
        <ele>1261</ele>
        <time>2015-11-14T10:11:56Z</time>
      </trkpt>
      <trkpt lat="45.23888" lon="5.70909">
        <ele>1260</ele>
        <time>2015-11-14T10:11:58Z</time>
      </trkpt>
      <trkpt lat="45.2389" lon="5.70908">
        <ele>1259.8</ele>
        <time>2015-11-14T10:12:00Z</time>
      </trkpt>
      <trkpt lat="45.23892" lon="5.70905">
        <ele>1258.9</ele>
        <time>2015-11-14T10:12:03Z</time>
      </trkpt>
      <trkpt lat="45.23894" lon="5.70906">
        <ele>1257</ele>
        <time>2015-11-14T10:12:06Z</time>
      </trkpt>
      <trkpt lat="45.23896" lon="5.70907">
        <ele>1255</ele>
        <time>2015-11-14T10:12:13Z</time>
      </trkpt>
      <trkpt lat="45.23898" lon="5.70905">
        <ele>1254</ele>
        <time>2015-11-14T10:12:17Z</time>
      </trkpt>
      <trkpt lat="45.239" lon="5.70905">
        <ele>1253.8</ele>
        <time>2015-11-14T10:12:19Z</time>
      </trkpt>
      <trkpt lat="45.23902" lon="5.70906">
        <ele>1253</ele>
        <time>2015-11-14T10:12:21Z</time>
      </trkpt>
      <trkpt lat="45.23904" lon="5.70912">
        <ele>1251</ele>
        <time>2015-11-14T10:12:40Z</time>
      </trkpt>
      <trkpt lat="45.23905" lon="5.70915">
        <ele>1250</ele>
        <time>2015-11-14T10:12:55Z</time>
      </trkpt>
      <trkpt lat="45.23903" lon="5.7092">
        <ele>1249.8</ele>
        <time>2015-11-14T10:14:47Z</time>
      </trkpt>
      <trkpt lat="45.23903" lon="5.70922">
        <ele>1249</ele>
        <time>2015-11-14T10:14:49Z</time>
      </trkpt>
      <trkpt lat="45.23902" lon="5.70925">
        <ele>1249</ele>
        <time>2015-11-14T10:14:52Z</time>
      </trkpt>
      <trkpt lat="45.239" lon="5.70927">
        <ele>1248</ele>
        <time>2015-11-14T10:15:00Z</time>
      </trkpt>
      <trkpt lat="45.23897" lon="5.70929">
        <ele>1248</ele>
        <time>2015-11-14T10:15:06Z</time>
      </trkpt>
      <trkpt lat="45.23894" lon="5.70929">
        <ele>1246.8</ele>
        <time>2015-11-14T10:15:13Z</time>
      </trkpt>
      <trkpt lat="45.23888" lon="5.70934">
        <ele>1246</ele>
        <time>2015-11-14T10:15:24Z</time>
      </trkpt>
      <trkpt lat="45.2389" lon="5.70944">
        <ele>1245</ele>
        <time>2015-11-14T10:15:32Z</time>
      </trkpt>
      <trkpt lat="45.23887" lon="5.70946">
        <ele>1245</ele>
        <time>2015-11-14T10:15:34Z</time>
      </trkpt>
      <trkpt lat="45.23886" lon="5.70945">
        <ele>1245</ele>
        <time>2015-11-14T10:15:37Z</time>
      </trkpt>
      <trkpt lat="45.23887" lon="5.70949">
        <ele>1244</ele>
        <time>2015-11-14T10:15:43Z</time>
      </trkpt>
      <trkpt lat="45.23886" lon="5.70952">
        <ele>1244</ele>
        <time>2015-11-14T10:15:44Z</time>
      </trkpt>
      <trkpt lat="45.23887" lon="5.70955">
        <ele>1243</ele>
        <time>2015-11-14T10:15:48Z</time>
      </trkpt>
      <trkpt lat="45.23883" lon="5.70958">
        <ele>1240</ele>
        <time>2015-11-14T10:16:06Z</time>
      </trkpt>
      <trkpt lat="45.23882" lon="5.70962">
        <ele>1239.1</ele>
        <time>2015-11-14T10:16:09Z</time>
      </trkpt>
      <trkpt lat="45.23881" lon="5.70965">
        <ele>1236.8</ele>
        <time>2015-11-14T10:16:14Z</time>
      </trkpt>
      <trkpt lat="45.23883" lon="5.70964">
        <ele>1235</ele>
        <time>2015-11-14T10:16:18Z</time>
      </trkpt>
      <trkpt lat="45.23885" lon="5.70963">
        <ele>1235</ele>
        <time>2015-11-14T10:16:21Z</time>
      </trkpt>
      <trkpt lat="45.23887" lon="5.70965">
        <ele>1233.3</ele>
        <time>2015-11-14T10:16:28Z</time>
      </trkpt>
      <trkpt lat="45.23884" lon="5.70966">
        <ele>1232</ele>
        <time>2015-11-14T10:16:32Z</time>
      </trkpt>
      <trkpt lat="45.23882" lon="5.70968">
        <ele>1231</ele>
        <time>2015-11-14T10:16:35Z</time>
      </trkpt>
      <trkpt lat="45.23885" lon="5.70972">
        <ele>1226.8</ele>
        <time>2015-11-14T10:17:17Z</time>
      </trkpt>
      <trkpt lat="45.23886" lon="5.70975">
        <ele>1225</ele>
        <time>2015-11-14T10:17:22Z</time>
      </trkpt>
      <trkpt lat="45.23885" lon="5.70977">
        <ele>1225</ele>
        <time>2015-11-14T10:17:25Z</time>
      </trkpt>
      <trkpt lat="45.23885" lon="5.70984">
        <ele>1222</ele>
        <time>2015-11-14T10:17:34Z</time>
      </trkpt>
      <trkpt lat="45.23886" lon="5.70988">
        <ele>1219.8</ele>
        <time>2015-11-14T10:17:46Z</time>
      </trkpt>
      <trkpt lat="45.23886" lon="5.70991">
        <ele>1219</ele>
        <time>2015-11-14T10:17:48Z</time>
      </trkpt>
      <trkpt lat="45.23885" lon="5.70994">
        <ele>1217.8</ele>
        <time>2015-11-14T10:17:51Z</time>
      </trkpt>
      <trkpt lat="45.23882" lon="5.70997">
        <ele>1213</ele>
        <time>2015-11-14T10:18:11Z</time>
      </trkpt>
      <trkpt lat="45.23881" lon="5.70999">
        <ele>1212</ele>
        <time>2015-11-14T10:18:20Z</time>
      </trkpt>
      <trkpt lat="45.23884" lon="5.71003">
        <ele>1207</ele>
        <time>2015-11-14T10:18:51Z</time>
      </trkpt>
      <trkpt lat="45.23887" lon="5.71004">
        <ele>1206</ele>
        <time>2015-11-14T10:18:56Z</time>
      </trkpt>
      <trkpt lat="45.23889" lon="5.71004">
        <ele>1205</ele>
        <time>2015-11-14T10:18:59Z</time>
      </trkpt>
      <trkpt lat="45.23891" lon="5.71002">
        <ele>1204.9</ele>
        <time>2015-11-14T10:19:02Z</time>
      </trkpt>
      <trkpt lat="45.23893" lon="5.71002">
        <ele>1204</ele>
        <time>2015-11-14T10:19:05Z</time>
      </trkpt>
      <trkpt lat="45.23895" lon="5.71001">
        <ele>1203</ele>
        <time>2015-11-14T10:19:08Z</time>
      </trkpt>
      <trkpt lat="45.23897" lon="5.70999">
        <ele>1202</ele>
        <time>2015-11-14T10:19:15Z</time>
      </trkpt>
      <trkpt lat="45.239" lon="5.70996">
        <ele>1201</ele>
        <time>2015-11-14T10:19:21Z</time>
      </trkpt>
      <trkpt lat="45.23903" lon="5.70995">
        <ele>1200</ele>
        <time>2015-11-14T10:19:28Z</time>
      </trkpt>
      <trkpt lat="45.23904" lon="5.70993">
        <ele>1200</ele>
        <time>2015-11-14T10:19:32Z</time>
      </trkpt>
      <trkpt lat="45.23906" lon="5.70992">
        <ele>1198</ele>
        <time>2015-11-14T10:19:46Z</time>
      </trkpt>
      <trkpt lat="45.23908" lon="5.7099">
        <ele>1198</ele>
        <time>2015-11-14T10:19:50Z</time>
      </trkpt>
      <trkpt lat="45.23912" lon="5.70986">
        <ele>1196</ele>
        <time>2015-11-14T10:20:15Z</time>
      </trkpt>
      <trkpt lat="45.23919" lon="5.70984">
        <ele>1195</ele>
        <time>2015-11-14T10:20:31Z</time>
      </trkpt>
      <trkpt lat="45.23923" lon="5.70983">
        <ele>1195</ele>
        <time>2015-11-14T10:20:36Z</time>
      </trkpt>
      <trkpt lat="45.23925" lon="5.70982">
        <ele>1195</ele>
        <time>2015-11-14T10:20:38Z</time>
      </trkpt>
      <trkpt lat="45.23927" lon="5.70987">
        <ele>1191</ele>
        <time>2015-11-14T10:21:11Z</time>
      </trkpt>
      <trkpt lat="45.23926" lon="5.70991">
        <ele>1190.8</ele>
        <time>2015-11-14T10:21:15Z</time>
      </trkpt>
      <trkpt lat="45.23925" lon="5.70993">
        <ele>1190</ele>
        <time>2015-11-14T10:21:18Z</time>
      </trkpt>
      <trkpt lat="45.23924" lon="5.70996">
        <ele>1189</ele>
        <time>2015-11-14T10:21:21Z</time>
      </trkpt>
      <trkpt lat="45.23924" lon="5.70999">
        <ele>1188</ele>
        <time>2015-11-14T10:21:24Z</time>
      </trkpt>
      <trkpt lat="45.23922" lon="5.71001">
        <ele>1188</ele>
        <time>2015-11-14T10:21:26Z</time>
      </trkpt>
      <trkpt lat="45.23921" lon="5.71001">
        <ele>1186</ele>
        <time>2015-11-14T10:21:30Z</time>
      </trkpt>
      <trkpt lat="45.23919" lon="5.71004">
        <ele>1184.9</ele>
        <time>2015-11-14T10:21:33Z</time>
      </trkpt>
      <trkpt lat="45.23917" lon="5.71004">
        <ele>1183</ele>
        <time>2015-11-14T10:21:37Z</time>
      </trkpt>
      <trkpt lat="45.23913" lon="5.71006">
        <ele>1180</ele>
        <time>2015-11-14T10:21:44Z</time>
      </trkpt>
      <trkpt lat="45.23913" lon="5.71009">
        <ele>1178.1</ele>
        <time>2015-11-14T10:21:51Z</time>
      </trkpt>
      <trkpt lat="45.23912" lon="5.71011">
        <ele>1176.8</ele>
        <time>2015-11-14T10:22:03Z</time>
      </trkpt>
      <trkpt lat="45.23913" lon="5.71014">
        <ele>1174.8</ele>
        <time>2015-11-14T10:22:06Z</time>
      </trkpt>
      <trkpt lat="45.23911" lon="5.71015">
        <ele>1174</ele>
        <time>2015-11-14T10:22:08Z</time>
      </trkpt>
      <trkpt lat="45.23907" lon="5.71017">
        <ele>1170</ele>
        <time>2015-11-14T10:22:18Z</time>
      </trkpt>
      <trkpt lat="45.23907" lon="5.7102">
        <ele>1169.9</ele>
        <time>2015-11-14T10:22:21Z</time>
      </trkpt>
      <trkpt lat="45.23906" lon="5.71022">
        <ele>1168</ele>
        <time>2015-11-14T10:22:24Z</time>
      </trkpt>
      <trkpt lat="45.23905" lon="5.71025">
        <ele>1163</ele>
        <time>2015-11-14T10:22:56Z</time>
      </trkpt>
      <trkpt lat="45.239" lon="5.71027">
        <ele>1159</ele>
        <time>2015-11-14T10:23:18Z</time>
      </trkpt>
      <trkpt lat="45.23901" lon="5.71033">
        <ele>1156</ele>
        <time>2015-11-14T10:23:35Z</time>
      </trkpt>
      <trkpt lat="45.23902" lon="5.71036">
        <ele>1156</ele>
        <time>2015-11-14T10:23:42Z</time>
      </trkpt>
      <trkpt lat="45.23899" lon="5.7104">
        <ele>1153</ele>
        <time>2015-11-14T10:24:25Z</time>
      </trkpt>
      <trkpt lat="45.23897" lon="5.71044">
        <ele>1151</ele>
        <time>2015-11-14T10:24:58Z</time>
      </trkpt>
      <trkpt lat="45.23893" lon="5.71044">
        <ele>1147.8</ele>
        <time>2015-11-14T10:25:31Z</time>
      </trkpt>
      <trkpt lat="45.23892" lon="5.71046">
        <ele>1145</ele>
        <time>2015-11-14T10:26:01Z</time>
      </trkpt>
      <trkpt lat="45.23891" lon="5.71048">
        <ele>1145</ele>
        <time>2015-11-14T10:26:13Z</time>
      </trkpt>
      <trkpt lat="45.23889" lon="5.71053">
        <ele>1142</ele>
        <time>2015-11-14T10:26:25Z</time>
      </trkpt>
      <trkpt lat="45.23888" lon="5.7106">
        <ele>1140</ele>
        <time>2015-11-14T10:26:58Z</time>
      </trkpt>
      <trkpt lat="45.23886" lon="5.71063">
        <ele>1137.8</ele>
        <time>2015-11-14T10:27:06Z</time>
      </trkpt>
      <trkpt lat="45.23883" lon="5.71063">
        <ele>1137</ele>
        <time>2015-11-14T10:27:08Z</time>
      </trkpt>
      <trkpt lat="45.23887" lon="5.71061">
        <ele>1136</ele>
        <time>2015-11-14T10:27:33Z</time>
      </trkpt>
      <trkpt lat="45.23891" lon="5.71057">
        <ele>1135</ele>
        <time>2015-11-14T10:28:31Z</time>
      </trkpt>
      <trkpt lat="45.23892" lon="5.71055">
        <ele>1135</ele>
        <time>2015-11-14T10:28:34Z</time>
      </trkpt>
      <trkpt lat="45.23894" lon="5.71056">
        <ele>1134</ele>
        <time>2015-11-14T10:28:40Z</time>
      </trkpt>
      <trkpt lat="45.23895" lon="5.71058">
        <ele>1133</ele>
        <time>2015-11-14T10:28:43Z</time>
      </trkpt>
      <trkpt lat="45.23893" lon="5.71065">
        <ele>1132</ele>
        <time>2015-11-14T10:28:52Z</time>
      </trkpt>
      <trkpt lat="45.23894" lon="5.71069">
        <ele>1130.8</ele>
        <time>2015-11-14T10:29:00Z</time>
      </trkpt>
      <trkpt lat="45.23893" lon="5.71071">
        <ele>1130</ele>
        <time>2015-11-14T10:29:04Z</time>
      </trkpt>
      <trkpt lat="45.23891" lon="5.71072">
        <ele>1128.1</ele>
        <time>2015-11-14T10:29:08Z</time>
      </trkpt>
      <trkpt lat="45.23889" lon="5.71071">
        <ele>1127</ele>
        <time>2015-11-14T10:29:13Z</time>
      </trkpt>
      <trkpt lat="45.2389" lon="5.71073">
        <ele>1121</ele>
        <time>2015-11-14T10:29:26Z</time>
      </trkpt>
      <trkpt lat="45.2389" lon="5.71078">
        <ele>1119</ele>
        <time>2015-11-14T10:29:38Z</time>
      </trkpt>
      <trkpt lat="45.23888" lon="5.71078">
        <ele>1118</ele>
        <time>2015-11-14T10:29:49Z</time>
      </trkpt>
      <trkpt lat="45.2389" lon="5.71082">
        <ele>1116.9</ele>
        <time>2015-11-14T10:30:04Z</time>
      </trkpt>
      <trkpt lat="45.23887" lon="5.71088">
        <ele>1115</ele>
        <time>2015-11-14T10:30:28Z</time>
      </trkpt>
      <trkpt lat="45.23889" lon="5.7109">
        <ele>1114</ele>
        <time>2015-11-14T10:30:37Z</time>
      </trkpt>
      <trkpt lat="45.23885" lon="5.71093">
        <ele>1111</ele>
        <time>2015-11-14T10:31:00Z</time>
      </trkpt>
      <trkpt lat="45.23885" lon="5.71098">
        <ele>1108.4</ele>
        <time>2015-11-14T10:31:15Z</time>
      </trkpt>
      <trkpt lat="45.23888" lon="5.71106">
        <ele>1103</ele>
        <time>2015-11-14T10:31:56Z</time>
      </trkpt>
      <trkpt lat="45.23889" lon="5.71109">
        <ele>1103</ele>
        <time>2015-11-14T10:32:01Z</time>
      </trkpt>
      <trkpt lat="45.23888" lon="5.71112">
        <ele>1102</ele>
        <time>2015-11-14T10:32:04Z</time>
      </trkpt>
      <trkpt lat="45.23889" lon="5.71117">
        <ele>1099</ele>
        <time>2015-11-14T10:32:15Z</time>
      </trkpt>
      <trkpt lat="45.23888" lon="5.7112">
        <ele>1098</ele>
        <time>2015-11-14T10:32:19Z</time>
      </trkpt>
      <trkpt lat="45.23887" lon="5.71123">
        <ele>1098</ele>
        <time>2015-11-14T10:32:21Z</time>
      </trkpt>
      <trkpt lat="45.23889" lon="5.71125">
        <ele>1096</ele>
        <time>2015-11-14T10:32:27Z</time>
      </trkpt>
      <trkpt lat="45.23889" lon="5.7113">
        <ele>1093</ele>
        <time>2015-11-14T10:32:40Z</time>
      </trkpt>
      <trkpt lat="45.23891" lon="5.71132">
        <ele>1091</ele>
        <time>2015-11-14T10:32:46Z</time>
      </trkpt>
      <trkpt lat="45.23891" lon="5.71135">
        <ele>1090.8</ele>
        <time>2015-11-14T10:32:48Z</time>
      </trkpt>
      <trkpt lat="45.23889" lon="5.71137">
        <ele>1089</ele>
        <time>2015-11-14T10:32:53Z</time>
      </trkpt>
      <trkpt lat="45.23889" lon="5.71139">
        <ele>1088</ele>
        <time>2015-11-14T10:32:57Z</time>
      </trkpt>
      <trkpt lat="45.23888" lon="5.71143">
        <ele>1084</ele>
        <time>2015-11-14T10:33:21Z</time>
      </trkpt>
      <trkpt lat="45.23887" lon="5.71149">
        <ele>1084</ele>
        <time>2015-11-14T10:33:45Z</time>
      </trkpt>
      <trkpt lat="45.23888" lon="5.71151">
        <ele>1083</ele>
        <time>2015-11-14T10:33:49Z</time>
      </trkpt>
      <trkpt lat="45.2389" lon="5.71154">
        <ele>1082</ele>
        <time>2015-11-14T10:34:00Z</time>
      </trkpt>
      <trkpt lat="45.23891" lon="5.71157">
        <ele>1081</ele>
        <time>2015-11-14T10:34:02Z</time>
      </trkpt>
      <trkpt lat="45.23891" lon="5.71159">
        <ele>1080</ele>
        <time>2015-11-14T10:34:05Z</time>
      </trkpt>
      <trkpt lat="45.23888" lon="5.71163">
        <ele>1075.8</ele>
        <time>2015-11-14T10:34:15Z</time>
      </trkpt>
      <trkpt lat="45.23889" lon="5.71166">
        <ele>1073.2</ele>
        <time>2015-11-14T10:34:27Z</time>
      </trkpt>
      <trkpt lat="45.23888" lon="5.71171">
        <ele>1070</ele>
        <time>2015-11-14T10:34:39Z</time>
      </trkpt>
      <trkpt lat="45.23889" lon="5.71174">
        <ele>1069</ele>
        <time>2015-11-14T10:34:42Z</time>
      </trkpt>
      <trkpt lat="45.23888" lon="5.71177">
        <ele>1067</ele>
        <time>2015-11-14T10:34:48Z</time>
      </trkpt>
      <trkpt lat="45.23886" lon="5.71178">
        <ele>1065</ele>
        <time>2015-11-14T10:35:01Z</time>
      </trkpt>
      <trkpt lat="45.23884" lon="5.71184">
        <ele>1063</ele>
        <time>2015-11-14T10:35:17Z</time>
      </trkpt>
      <trkpt lat="45.23885" lon="5.71188">
        <ele>1061</ele>
        <time>2015-11-14T10:35:31Z</time>
      </trkpt>
      <trkpt lat="45.23884" lon="5.71194">
        <ele>1058</ele>
        <time>2015-11-14T10:35:48Z</time>
      </trkpt>
      <trkpt lat="45.23885" lon="5.71197">
        <ele>1058</ele>
        <time>2015-11-14T10:35:51Z</time>
      </trkpt>
      <trkpt lat="45.23886" lon="5.71199">
        <ele>1057</ele>
        <time>2015-11-14T10:35:57Z</time>
      </trkpt>
      <trkpt lat="45.23889" lon="5.712">
        <ele>1056</ele>
        <time>2015-11-14T10:36:02Z</time>
      </trkpt>
      <trkpt lat="45.2389" lon="5.71201">
        <ele>1056</ele>
        <time>2015-11-14T10:36:06Z</time>
      </trkpt>
      <trkpt lat="45.23891" lon="5.71204">
        <ele>1054</ele>
        <time>2015-11-14T10:36:12Z</time>
      </trkpt>
      <trkpt lat="45.23893" lon="5.71209">
        <ele>1051.2</ele>
        <time>2015-11-14T10:36:25Z</time>
      </trkpt>
      <trkpt lat="45.23894" lon="5.71211">
        <ele>1051</ele>
        <time>2015-11-14T10:36:27Z</time>
      </trkpt>
      <trkpt lat="45.23895" lon="5.71213">
        <ele>1050</ele>
        <time>2015-11-14T10:36:31Z</time>
      </trkpt>
      <trkpt lat="45.23891" lon="5.7122">
        <ele>1046</ele>
        <time>2015-11-14T10:36:47Z</time>
      </trkpt>
      <trkpt lat="45.2389" lon="5.71223">
        <ele>1045</ele>
        <time>2015-11-14T10:36:50Z</time>
      </trkpt>
      <trkpt lat="45.2389" lon="5.71228">
        <ele>1045</ele>
        <time>2015-11-14T10:36:53Z</time>
      </trkpt>
      <trkpt lat="45.2389" lon="5.71231">
        <ele>1044</ele>
        <time>2015-11-14T10:36:55Z</time>
      </trkpt>
      <trkpt lat="45.23891" lon="5.71232">
        <ele>1043</ele>
        <time>2015-11-14T10:36:59Z</time>
      </trkpt>
      <trkpt lat="45.23893" lon="5.71234">
        <ele>1042</ele>
        <time>2015-11-14T10:37:02Z</time>
      </trkpt>
      <trkpt lat="45.23895" lon="5.71235">
        <ele>1041</ele>
        <time>2015-11-14T10:37:05Z</time>
      </trkpt>
      <trkpt lat="45.23894" lon="5.71237">
        <ele>1040</ele>
        <time>2015-11-14T10:37:08Z</time>
      </trkpt>
      <trkpt lat="45.23898" lon="5.71239">
        <ele>1038</ele>
        <time>2015-11-14T10:37:18Z</time>
      </trkpt>
      <trkpt lat="45.23899" lon="5.71242">
        <ele>1037</ele>
        <time>2015-11-14T10:37:22Z</time>
      </trkpt>
      <trkpt lat="45.239" lon="5.71245">
        <ele>1037</ele>
        <time>2015-11-14T10:37:24Z</time>
      </trkpt>
      <trkpt lat="45.23896" lon="5.7125">
        <ele>1035.8</ele>
        <time>2015-11-14T10:37:33Z</time>
      </trkpt>
      <trkpt lat="45.23894" lon="5.71252">
        <ele>1035</ele>
        <time>2015-11-14T10:37:36Z</time>
      </trkpt>
      <trkpt lat="45.23895" lon="5.71255">
        <ele>1034</ele>
        <time>2015-11-14T10:37:43Z</time>
      </trkpt>
      <trkpt lat="45.23894" lon="5.71258">
        <ele>1032.9</ele>
        <time>2015-11-14T10:37:46Z</time>
      </trkpt>
      <trkpt lat="45.23893" lon="5.7126">
        <ele>1031</ele>
        <time>2015-11-14T10:37:50Z</time>
      </trkpt>
      <trkpt lat="45.23893" lon="5.71264">
        <ele>1026</ele>
        <time>2015-11-14T10:38:08Z</time>
      </trkpt>
      <trkpt lat="45.23896" lon="5.7127">
        <ele>1022</ele>
        <time>2015-11-14T10:38:25Z</time>
      </trkpt>
      <trkpt lat="45.23895" lon="5.71273">
        <ele>1021</ele>
        <time>2015-11-14T10:38:27Z</time>
      </trkpt>
      <trkpt lat="45.23893" lon="5.71275">
        <ele>1020</ele>
        <time>2015-11-14T10:38:29Z</time>
      </trkpt>
      <trkpt lat="45.23892" lon="5.71279">
        <ele>1019</ele>
        <time>2015-11-14T10:38:38Z</time>
      </trkpt>
      <trkpt lat="45.23893" lon="5.71282">
        <ele>1018.8</ele>
        <time>2015-11-14T10:38:42Z</time>
      </trkpt>
      <trkpt lat="45.23898" lon="5.71283">
        <ele>1015</ele>
        <time>2015-11-14T10:38:53Z</time>
      </trkpt>
      <trkpt lat="45.23896" lon="5.71289">
        <ele>1011.8</ele>
        <time>2015-11-14T10:39:03Z</time>
      </trkpt>
      <trkpt lat="45.23894" lon="5.71289">
        <ele>1010.8</ele>
        <time>2015-11-14T10:39:04Z</time>
      </trkpt>
      <trkpt lat="45.23892" lon="5.71291">
        <ele>1010</ele>
        <time>2015-11-14T10:39:06Z</time>
      </trkpt>
      <trkpt lat="45.23896" lon="5.71292">
        <ele>1006</ele>
        <time>2015-11-14T10:39:19Z</time>
      </trkpt>
      <trkpt lat="45.23897" lon="5.71295">
        <ele>1006</ele>
        <time>2015-11-14T10:39:22Z</time>
      </trkpt>
      <trkpt lat="45.23898" lon="5.71297">
        <ele>1005</ele>
        <time>2015-11-14T10:39:24Z</time>
      </trkpt>
      <trkpt lat="45.239" lon="5.71299">
        <ele>1005</ele>
        <time>2015-11-14T10:39:27Z</time>
      </trkpt>
      <trkpt lat="45.23901" lon="5.71302">
        <ele>1004.8</ele>
        <time>2015-11-14T10:39:30Z</time>
      </trkpt>
      <trkpt lat="45.239" lon="5.71304">
        <ele>1003.8</ele>
        <time>2015-11-14T10:39:32Z</time>
      </trkpt>
      <trkpt lat="45.23898" lon="5.71306">
        <ele>1003</ele>
        <time>2015-11-14T10:39:35Z</time>
      </trkpt>
      <trkpt lat="45.23893" lon="5.71306">
        <ele>1000</ele>
        <time>2015-11-14T10:39:42Z</time>
      </trkpt>
      <trkpt lat="45.23892" lon="5.71313">
        <ele>999</ele>
        <time>2015-11-14T10:39:54Z</time>
      </trkpt>
      <trkpt lat="45.23891" lon="5.71316">
        <ele>999</ele>
        <time>2015-11-14T10:39:57Z</time>
      </trkpt>
      <trkpt lat="45.23893" lon="5.71322">
        <ele>997</ele>
        <time>2015-11-14T10:40:10Z</time>
      </trkpt>
      <trkpt lat="45.23895" lon="5.71324">
        <ele>997</ele>
        <time>2015-11-14T10:40:13Z</time>
      </trkpt>
      <trkpt lat="45.23897" lon="5.71328">
        <ele>994</ele>
        <time>2015-11-14T10:40:27Z</time>
      </trkpt>
      <trkpt lat="45.23899" lon="5.71337">
        <ele>988</ele>
        <time>2015-11-14T10:40:44Z</time>
      </trkpt>
      <trkpt lat="45.23897" lon="5.71339">
        <ele>987.8</ele>
        <time>2015-11-14T10:40:45Z</time>
      </trkpt>
      <trkpt lat="45.23894" lon="5.71341">
        <ele>987</ele>
        <time>2015-11-14T10:40:47Z</time>
      </trkpt>
      <trkpt lat="45.23891" lon="5.71345">
        <ele>983.8</ele>
        <time>2015-11-14T10:40:54Z</time>
      </trkpt>
      <trkpt lat="45.23893" lon="5.71344">
        <ele>977</ele>
        <time>2015-11-14T10:41:26Z</time>
      </trkpt>
      <trkpt lat="45.23893" lon="5.71351">
        <ele>973</ele>
        <time>2015-11-14T10:41:55Z</time>
      </trkpt>
      <trkpt lat="45.23893" lon="5.71357">
        <ele>972</ele>
        <time>2015-11-14T10:42:06Z</time>
      </trkpt>
      <trkpt lat="45.23895" lon="5.71356">
        <ele>971</ele>
        <time>2015-11-14T10:42:09Z</time>
      </trkpt>
      <trkpt lat="45.23898" lon="5.71358">
        <ele>970</ele>
        <time>2015-11-14T10:42:13Z</time>
      </trkpt>
      <trkpt lat="45.23898" lon="5.7136">
        <ele>970</ele>
        <time>2015-11-14T10:42:15Z</time>
      </trkpt>
      <trkpt lat="45.23896" lon="5.71362">
        <ele>970</ele>
        <time>2015-11-14T10:42:18Z</time>
      </trkpt>
      <trkpt lat="45.23897" lon="5.7137">
        <ele>969</ele>
        <time>2015-11-14T10:42:29Z</time>
      </trkpt>
      <trkpt lat="45.23901" lon="5.71374">
        <ele>966.8</ele>
        <time>2015-11-14T10:42:40Z</time>
      </trkpt>
      <trkpt lat="45.239" lon="5.71378">
        <ele>966</ele>
        <time>2015-11-14T10:42:43Z</time>
      </trkpt>
      <trkpt lat="45.23899" lon="5.71381">
        <ele>965</ele>
        <time>2015-11-14T10:42:46Z</time>
      </trkpt>
      <trkpt lat="45.23899" lon="5.71388">
        <ele>963</ele>
        <time>2015-11-14T10:42:55Z</time>
      </trkpt>
      <trkpt lat="45.23897" lon="5.71391">
        <ele>962</ele>
        <time>2015-11-14T10:42:58Z</time>
      </trkpt>
      <trkpt lat="45.23897" lon="5.71394">
        <ele>962</ele>
        <time>2015-11-14T10:43:01Z</time>
      </trkpt>
      <trkpt lat="45.23898" lon="5.71397">
        <ele>961.9</ele>
        <time>2015-11-14T10:43:03Z</time>
      </trkpt>
      <trkpt lat="45.239" lon="5.714">
        <ele>960</ele>
        <time>2015-11-14T10:43:08Z</time>
      </trkpt>
      <trkpt lat="45.23897" lon="5.71403">
        <ele>958</ele>
        <time>2015-11-14T10:43:13Z</time>
      </trkpt>
      <trkpt lat="45.23894" lon="5.71405">
        <ele>957</ele>
        <time>2015-11-14T10:43:21Z</time>
      </trkpt>
      <trkpt lat="45.23895" lon="5.71407">
        <ele>955</ele>
        <time>2015-11-14T10:43:25Z</time>
      </trkpt>
      <trkpt lat="45.23897" lon="5.71407">
        <ele>950.7</ele>
        <time>2015-11-14T10:43:32Z</time>
      </trkpt>
      <trkpt lat="45.23895" lon="5.71409">
        <ele>948.8</ele>
        <time>2015-11-14T10:43:36Z</time>
      </trkpt>
      <trkpt lat="45.23892" lon="5.71404">
        <ele>946.2</ele>
        <time>2015-11-14T10:43:44Z</time>
      </trkpt>
      <trkpt lat="45.23891" lon="5.71402">
        <ele>946</ele>
        <time>2015-11-14T10:43:46Z</time>
      </trkpt>
      <trkpt lat="45.23889" lon="5.714">
        <ele>946</ele>
        <time>2015-11-14T10:43:48Z</time>
      </trkpt>
      <trkpt lat="45.23888" lon="5.71399">
        <ele>946</ele>
        <time>2015-11-14T10:43:50Z</time>
      </trkpt>
      <trkpt lat="45.23885" lon="5.71399">
        <ele>945</ele>
        <time>2015-11-14T10:43:52Z</time>
      </trkpt>
      <trkpt lat="45.23883" lon="5.71398">
        <ele>945</ele>
        <time>2015-11-14T10:43:54Z</time>
      </trkpt>
      <trkpt lat="45.23881" lon="5.71399">
        <ele>944</ele>
        <time>2015-11-14T10:43:58Z</time>
      </trkpt>
      <trkpt lat="45.2388" lon="5.71401">
        <ele>943</ele>
        <time>2015-11-14T10:44:01Z</time>
      </trkpt>
      <trkpt lat="45.23878" lon="5.71403">
        <ele>943</ele>
        <time>2015-11-14T10:44:04Z</time>
      </trkpt>
      <trkpt lat="45.23877" lon="5.71405">
        <ele>942.1</ele>
        <time>2015-11-14T10:44:06Z</time>
      </trkpt>
      <trkpt lat="45.23875" lon="5.71408">
        <ele>941.8</ele>
        <time>2015-11-14T10:44:09Z</time>
      </trkpt>
      <trkpt lat="45.23874" lon="5.71409">
        <ele>941</ele>
        <time>2015-11-14T10:44:11Z</time>
      </trkpt>
      <trkpt lat="45.23872" lon="5.71411">
        <ele>940.8</ele>
        <time>2015-11-14T10:44:13Z</time>
      </trkpt>
      <trkpt lat="45.2387" lon="5.71413">
        <ele>940</ele>
        <time>2015-11-14T10:44:16Z</time>
      </trkpt>
      <trkpt lat="45.23868" lon="5.71415">
        <ele>940</ele>
        <time>2015-11-14T10:44:18Z</time>
      </trkpt>
      <trkpt lat="45.23867" lon="5.71417">
        <ele>940</ele>
        <time>2015-11-14T10:44:20Z</time>
      </trkpt>
      <trkpt lat="45.23865" lon="5.71419">
        <ele>939</ele>
        <time>2015-11-14T10:44:23Z</time>
      </trkpt>
      <trkpt lat="45.23863" lon="5.71421">
        <ele>939</ele>
        <time>2015-11-14T10:44:25Z</time>
      </trkpt>
      <trkpt lat="45.23861" lon="5.71423">
        <ele>939</ele>
        <time>2015-11-14T10:44:27Z</time>
      </trkpt>
      <trkpt lat="45.23859" lon="5.71425">
        <ele>938.8</ele>
        <time>2015-11-14T10:44:29Z</time>
      </trkpt>
      <trkpt lat="45.23857" lon="5.71428">
        <ele>938</ele>
        <time>2015-11-14T10:44:31Z</time>
      </trkpt>
      <trkpt lat="45.23855" lon="5.71429">
        <ele>938</ele>
        <time>2015-11-14T10:44:33Z</time>
      </trkpt>
      <trkpt lat="45.23853" lon="5.71431">
        <ele>937</ele>
        <time>2015-11-14T10:44:35Z</time>
      </trkpt>
      <trkpt lat="45.23852" lon="5.71433">
        <ele>937</ele>
        <time>2015-11-14T10:44:37Z</time>
      </trkpt>
      <trkpt lat="45.2385" lon="5.71434">
        <ele>937</ele>
        <time>2015-11-14T10:44:40Z</time>
      </trkpt>
      <trkpt lat="45.23847" lon="5.71436">
        <ele>936.8</ele>
        <time>2015-11-14T10:44:42Z</time>
      </trkpt>
      <trkpt lat="45.23846" lon="5.71439">
        <ele>935.8</ele>
        <time>2015-11-14T10:44:46Z</time>
      </trkpt>
      <trkpt lat="45.23843" lon="5.71441">
        <ele>935</ele>
        <time>2015-11-14T10:44:48Z</time>
      </trkpt>
      <trkpt lat="45.23841" lon="5.71443">
        <ele>935</ele>
        <time>2015-11-14T10:44:50Z</time>
      </trkpt>
      <trkpt lat="45.23839" lon="5.71445">
        <ele>934.8</ele>
        <time>2015-11-14T10:44:52Z</time>
      </trkpt>
      <trkpt lat="45.23838" lon="5.71448">
        <ele>934</ele>
        <time>2015-11-14T10:44:54Z</time>
      </trkpt>
      <trkpt lat="45.23835" lon="5.71451">
        <ele>934</ele>
        <time>2015-11-14T10:44:56Z</time>
      </trkpt>
      <trkpt lat="45.23834" lon="5.71453">
        <ele>934</ele>
        <time>2015-11-14T10:44:58Z</time>
      </trkpt>
      <trkpt lat="45.23832" lon="5.71457">
        <ele>934</ele>
        <time>2015-11-14T10:45:00Z</time>
      </trkpt>
      <trkpt lat="45.2383" lon="5.7146">
        <ele>933</ele>
        <time>2015-11-14T10:45:02Z</time>
      </trkpt>
      <trkpt lat="45.23828" lon="5.71463">
        <ele>932.8</ele>
        <time>2015-11-14T10:45:04Z</time>
      </trkpt>
      <trkpt lat="45.23827" lon="5.71466">
        <ele>931</ele>
        <time>2015-11-14T10:45:07Z</time>
      </trkpt>
      <trkpt lat="45.23826" lon="5.71468">
        <ele>930</ele>
        <time>2015-11-14T10:45:09Z</time>
      </trkpt>
      <trkpt lat="45.23825" lon="5.7147">
        <ele>930</ele>
        <time>2015-11-14T10:45:11Z</time>
      </trkpt>
      <trkpt lat="45.23824" lon="5.71473">
        <ele>930</ele>
        <time>2015-11-14T10:45:13Z</time>
      </trkpt>
      <trkpt lat="45.23822" lon="5.71475">
        <ele>930</ele>
        <time>2015-11-14T10:45:15Z</time>
      </trkpt>
      <trkpt lat="45.2382" lon="5.71477">
        <ele>929.1</ele>
        <time>2015-11-14T10:45:17Z</time>
      </trkpt>
      <trkpt lat="45.23819" lon="5.71481">
        <ele>929</ele>
        <time>2015-11-14T10:45:20Z</time>
      </trkpt>
      <trkpt lat="45.23819" lon="5.71484">
        <ele>928</ele>
        <time>2015-11-14T10:45:22Z</time>
      </trkpt>
      <trkpt lat="45.23817" lon="5.71487">
        <ele>927</ele>
        <time>2015-11-14T10:45:24Z</time>
      </trkpt>
      <trkpt lat="45.23817" lon="5.71489">
        <ele>927</ele>
        <time>2015-11-14T10:45:26Z</time>
      </trkpt>
      <trkpt lat="45.23816" lon="5.71492">
        <ele>926</ele>
        <time>2015-11-14T10:45:28Z</time>
      </trkpt>
      <trkpt lat="45.23812" lon="5.71496">
        <ele>925</ele>
        <time>2015-11-14T10:45:31Z</time>
      </trkpt>
      <trkpt lat="45.23812" lon="5.715">
        <ele>924</ele>
        <time>2015-11-14T10:45:34Z</time>
      </trkpt>
      <trkpt lat="45.2381" lon="5.71503">
        <ele>923.1</ele>
        <time>2015-11-14T10:45:36Z</time>
      </trkpt>
      <trkpt lat="45.23808" lon="5.71504">
        <ele>922</ele>
        <time>2015-11-14T10:45:39Z</time>
      </trkpt>
      <trkpt lat="45.23806" lon="5.71506">
        <ele>922</ele>
        <time>2015-11-14T10:45:41Z</time>
      </trkpt>
      <trkpt lat="45.23804" lon="5.71509">
        <ele>921</ele>
        <time>2015-11-14T10:45:43Z</time>
      </trkpt>
      <trkpt lat="45.23802" lon="5.7151">
        <ele>921</ele>
        <time>2015-11-14T10:45:46Z</time>
      </trkpt>
      <trkpt lat="45.23801" lon="5.71513">
        <ele>921</ele>
        <time>2015-11-14T10:45:48Z</time>
      </trkpt>
      <trkpt lat="45.23799" lon="5.71515">
        <ele>920</ele>
        <time>2015-11-14T10:45:51Z</time>
      </trkpt>
      <trkpt lat="45.23797" lon="5.71516">
        <ele>917.8</ele>
        <time>2015-11-14T10:45:56Z</time>
      </trkpt>
      <trkpt lat="45.23795" lon="5.71518">
        <ele>917</ele>
        <time>2015-11-14T10:45:57Z</time>
      </trkpt>
      <trkpt lat="45.23793" lon="5.71521">
        <ele>916.8</ele>
        <time>2015-11-14T10:45:59Z</time>
      </trkpt>
      <trkpt lat="45.23791" lon="5.71523">
        <ele>916</ele>
        <time>2015-11-14T10:46:01Z</time>
      </trkpt>
      <trkpt lat="45.23789" lon="5.71526">
        <ele>914.8</ele>
        <time>2015-11-14T10:46:03Z</time>
      </trkpt>
      <trkpt lat="45.23787" lon="5.71527">
        <ele>913.8</ele>
        <time>2015-11-14T10:46:06Z</time>
      </trkpt>
      <trkpt lat="45.23785" lon="5.71527">
        <ele>913</ele>
        <time>2015-11-14T10:46:08Z</time>
      </trkpt>
      <trkpt lat="45.23783" lon="5.71528">
        <ele>911.1</ele>
        <time>2015-11-14T10:46:12Z</time>
      </trkpt>
      <trkpt lat="45.23781" lon="5.71527">
        <ele>908.8</ele>
        <time>2015-11-14T10:46:16Z</time>
      </trkpt>
      <trkpt lat="45.23779" lon="5.71529">
        <ele>901.8</ele>
        <time>2015-11-14T10:46:28Z</time>
      </trkpt>
      <trkpt lat="45.23778" lon="5.71531">
        <ele>897.9</ele>
        <time>2015-11-14T10:46:34Z</time>
      </trkpt>
      <trkpt lat="45.23777" lon="5.71533">
        <ele>896.8</ele>
        <time>2015-11-14T10:46:37Z</time>
      </trkpt>
      <trkpt lat="45.23776" lon="5.71536">
        <ele>895.8</ele>
        <time>2015-11-14T10:46:40Z</time>
      </trkpt>
      <trkpt lat="45.23774" lon="5.71537">
        <ele>893</ele>
        <time>2015-11-14T10:46:45Z</time>
      </trkpt>
      <trkpt lat="45.23772" lon="5.71539">
        <ele>892</ele>
        <time>2015-11-14T10:46:49Z</time>
      </trkpt>
      <trkpt lat="45.23771" lon="5.71541">
        <ele>888.8</ele>
        <time>2015-11-14T10:46:57Z</time>
      </trkpt>
      <trkpt lat="45.2377" lon="5.71543">
        <ele>887</ele>
        <time>2015-11-14T10:47:03Z</time>
      </trkpt>
      <trkpt lat="45.23768" lon="5.71544">
        <ele>886.8</ele>
        <time>2015-11-14T10:47:05Z</time>
      </trkpt>
      <trkpt lat="45.23767" lon="5.71546">
        <ele>886</ele>
        <time>2015-11-14T10:47:07Z</time>
      </trkpt>
      <trkpt lat="45.23765" lon="5.71547">
        <ele>885.9</ele>
        <time>2015-11-14T10:47:09Z</time>
      </trkpt>
      <trkpt lat="45.2376" lon="5.71549">
        <ele>882</ele>
        <time>2015-11-14T10:47:24Z</time>
      </trkpt>
      <trkpt lat="45.23759" lon="5.71552">
        <ele>880</ele>
        <time>2015-11-14T10:47:39Z</time>
      </trkpt>
      <trkpt lat="45.23754" lon="5.71557">
        <ele>878</ele>
        <time>2015-11-14T10:47:53Z</time>
      </trkpt>
      <trkpt lat="45.23751" lon="5.71559">
        <ele>877.8</ele>
        <time>2015-11-14T10:47:56Z</time>
      </trkpt>
      <trkpt lat="45.23749" lon="5.7156">
        <ele>877</ele>
        <time>2015-11-14T10:47:59Z</time>
      </trkpt>
      <trkpt lat="45.23748" lon="5.71562">
        <ele>877</ele>
        <time>2015-11-14T10:48:02Z</time>
      </trkpt>
      <trkpt lat="45.23746" lon="5.71564">
        <ele>877</ele>
        <time>2015-11-14T10:48:04Z</time>
      </trkpt>
      <trkpt lat="45.23744" lon="5.71566">
        <ele>877</ele>
        <time>2015-11-14T10:48:06Z</time>
      </trkpt>
      <trkpt lat="45.23741" lon="5.71568">
        <ele>876.1</ele>
        <time>2015-11-14T10:48:08Z</time>
      </trkpt>
      <trkpt lat="45.23739" lon="5.71569">
        <ele>876</ele>
        <time>2015-11-14T10:48:10Z</time>
      </trkpt>
      <trkpt lat="45.23737" lon="5.71571">
        <ele>876</ele>
        <time>2015-11-14T10:48:12Z</time>
      </trkpt>
      <trkpt lat="45.23734" lon="5.71572">
        <ele>876</ele>
        <time>2015-11-14T10:48:15Z</time>
      </trkpt>
      <trkpt lat="45.23732" lon="5.71575">
        <ele>876</ele>
        <time>2015-11-14T10:48:18Z</time>
      </trkpt>
      <trkpt lat="45.23731" lon="5.71577">
        <ele>876</ele>
        <time>2015-11-14T10:48:20Z</time>
      </trkpt>
      <trkpt lat="45.23728" lon="5.71579">
        <ele>876</ele>
        <time>2015-11-14T10:48:22Z</time>
      </trkpt>
      <trkpt lat="45.23726" lon="5.71581">
        <ele>876</ele>
        <time>2015-11-14T10:48:24Z</time>
      </trkpt>
      <trkpt lat="45.23724" lon="5.71582">
        <ele>875</ele>
        <time>2015-11-14T10:48:26Z</time>
      </trkpt>
      <trkpt lat="45.23721" lon="5.71584">
        <ele>875</ele>
        <time>2015-11-14T10:48:28Z</time>
      </trkpt>
      <trkpt lat="45.2372" lon="5.71586">
        <ele>875</ele>
        <time>2015-11-14T10:48:30Z</time>
      </trkpt>
      <trkpt lat="45.23718" lon="5.71588">
        <ele>875</ele>
        <time>2015-11-14T10:48:32Z</time>
      </trkpt>
      <trkpt lat="45.23717" lon="5.71591">
        <ele>875</ele>
        <time>2015-11-14T10:48:34Z</time>
      </trkpt>
      <trkpt lat="45.23715" lon="5.71594">
        <ele>874.8</ele>
        <time>2015-11-14T10:48:36Z</time>
      </trkpt>
      <trkpt lat="45.23713" lon="5.71596">
        <ele>874</ele>
        <time>2015-11-14T10:48:37Z</time>
      </trkpt>
      <trkpt lat="45.23711" lon="5.71599">
        <ele>874</ele>
        <time>2015-11-14T10:48:39Z</time>
      </trkpt>
      <trkpt lat="45.23709" lon="5.716">
        <ele>874</ele>
        <time>2015-11-14T10:48:41Z</time>
      </trkpt>
      <trkpt lat="45.23704" lon="5.71611">
        <ele>871.1</ele>
        <time>2015-11-14T10:48:53Z</time>
      </trkpt>
      <trkpt lat="45.23701" lon="5.71613">
        <ele>871</ele>
        <time>2015-11-14T10:48:55Z</time>
      </trkpt>
      <trkpt lat="45.23694" lon="5.71623">
        <ele>868.8</ele>
        <time>2015-11-14T10:49:01Z</time>
      </trkpt>
      <trkpt lat="45.23691" lon="5.71624">
        <ele>867.9</ele>
        <time>2015-11-14T10:49:03Z</time>
      </trkpt>
      <trkpt lat="45.2369" lon="5.71627">
        <ele>867</ele>
        <time>2015-11-14T10:49:05Z</time>
      </trkpt>
      <trkpt lat="45.23688" lon="5.71629">
        <ele>866.8</ele>
        <time>2015-11-14T10:49:07Z</time>
      </trkpt>
      <trkpt lat="45.23687" lon="5.71631">
        <ele>866</ele>
        <time>2015-11-14T10:49:08Z</time>
      </trkpt>
      <trkpt lat="45.23684" lon="5.71633">
        <ele>865</ele>
        <time>2015-11-14T10:49:10Z</time>
      </trkpt>
      <trkpt lat="45.23682" lon="5.71635">
        <ele>864.8</ele>
        <time>2015-11-14T10:49:12Z</time>
      </trkpt>
      <trkpt lat="45.2368" lon="5.71634">
        <ele>864</ele>
        <time>2015-11-14T10:49:15Z</time>
      </trkpt>
      <trkpt lat="45.23679" lon="5.71637">
        <ele>862</ele>
        <time>2015-11-14T10:49:18Z</time>
      </trkpt>
      <trkpt lat="45.23677" lon="5.71639">
        <ele>861</ele>
        <time>2015-11-14T10:49:20Z</time>
      </trkpt>
      <trkpt lat="45.23675" lon="5.71641">
        <ele>861</ele>
        <time>2015-11-14T10:49:22Z</time>
      </trkpt>
      <trkpt lat="45.23673" lon="5.71642">
        <ele>861</ele>
        <time>2015-11-14T10:49:24Z</time>
      </trkpt>
      <trkpt lat="45.23671" lon="5.71645">
        <ele>860</ele>
        <time>2015-11-14T10:49:26Z</time>
      </trkpt>
      <trkpt lat="45.23669" lon="5.71646">
        <ele>860</ele>
        <time>2015-11-14T10:49:28Z</time>
      </trkpt>
      <trkpt lat="45.23666" lon="5.71648">
        <ele>859</ele>
        <time>2015-11-14T10:49:30Z</time>
      </trkpt>
      <trkpt lat="45.23664" lon="5.7165">
        <ele>859</ele>
        <time>2015-11-14T10:49:32Z</time>
      </trkpt>
      <trkpt lat="45.23662" lon="5.71651">
        <ele>858</ele>
        <time>2015-11-14T10:49:34Z</time>
      </trkpt>
      <trkpt lat="45.2366" lon="5.71652">
        <ele>857</ele>
        <time>2015-11-14T10:49:36Z</time>
      </trkpt>
      <trkpt lat="45.23658" lon="5.71654">
        <ele>856.8</ele>
        <time>2015-11-14T10:49:38Z</time>
      </trkpt>
      <trkpt lat="45.23657" lon="5.71652">
        <ele>854.8</ele>
        <time>2015-11-14T10:49:40Z</time>
      </trkpt>
      <trkpt lat="45.23656" lon="5.7165">
        <ele>853</ele>
        <time>2015-11-14T10:49:42Z</time>
      </trkpt>
      <trkpt lat="45.23654" lon="5.71652">
        <ele>851</ele>
        <time>2015-11-14T10:49:47Z</time>
      </trkpt>
      <trkpt lat="45.23651" lon="5.71653">
        <ele>851</ele>
        <time>2015-11-14T10:49:49Z</time>
      </trkpt>
      <trkpt lat="45.23649" lon="5.71654">
        <ele>850.8</ele>
        <time>2015-11-14T10:49:51Z</time>
      </trkpt>
      <trkpt lat="45.23646" lon="5.71656">
        <ele>850</ele>
        <time>2015-11-14T10:49:53Z</time>
      </trkpt>
      <trkpt lat="45.23644" lon="5.71656">
        <ele>849.8</ele>
        <time>2015-11-14T10:49:55Z</time>
      </trkpt>
      <trkpt lat="45.23642" lon="5.71658">
        <ele>849</ele>
        <time>2015-11-14T10:49:57Z</time>
      </trkpt>
      <trkpt lat="45.23639" lon="5.71658">
        <ele>848</ele>
        <time>2015-11-14T10:49:59Z</time>
      </trkpt>
      <trkpt lat="45.23637" lon="5.7166">
        <ele>848</ele>
        <time>2015-11-14T10:50:01Z</time>
      </trkpt>
      <trkpt lat="45.23634" lon="5.71661">
        <ele>847.8</ele>
        <time>2015-11-14T10:50:03Z</time>
      </trkpt>
      <trkpt lat="45.23631" lon="5.71662">
        <ele>847</ele>
        <time>2015-11-14T10:50:06Z</time>
      </trkpt>
      <trkpt lat="45.23629" lon="5.71663">
        <ele>847</ele>
        <time>2015-11-14T10:50:08Z</time>
      </trkpt>
      <trkpt lat="45.23626" lon="5.71664">
        <ele>846.9</ele>
        <time>2015-11-14T10:50:10Z</time>
      </trkpt>
      <trkpt lat="45.23623" lon="5.71666">
        <ele>846</ele>
        <time>2015-11-14T10:50:12Z</time>
      </trkpt>
      <trkpt lat="45.2362" lon="5.71668">
        <ele>846</ele>
        <time>2015-11-14T10:50:14Z</time>
      </trkpt>
      <trkpt lat="45.23618" lon="5.71669">
        <ele>845</ele>
        <time>2015-11-14T10:50:16Z</time>
      </trkpt>
      <trkpt lat="45.23615" lon="5.71672">
        <ele>845</ele>
        <time>2015-11-14T10:50:18Z</time>
      </trkpt>
      <trkpt lat="45.23613" lon="5.71674">
        <ele>844</ele>
        <time>2015-11-14T10:50:20Z</time>
      </trkpt>
      <trkpt lat="45.2361" lon="5.71675">
        <ele>843</ele>
        <time>2015-11-14T10:50:22Z</time>
      </trkpt>
      <trkpt lat="45.23608" lon="5.71677">
        <ele>843</ele>
        <time>2015-11-14T10:50:24Z</time>
      </trkpt>
      <trkpt lat="45.23606" lon="5.71679">
        <ele>842</ele>
        <time>2015-11-14T10:50:26Z</time>
      </trkpt>
      <trkpt lat="45.23604" lon="5.71679">
        <ele>842</ele>
        <time>2015-11-14T10:50:28Z</time>
      </trkpt>
      <trkpt lat="45.23602" lon="5.71679">
        <ele>841.8</ele>
        <time>2015-11-14T10:50:30Z</time>
      </trkpt>
      <trkpt lat="45.23599" lon="5.7168">
        <ele>841</ele>
        <time>2015-11-14T10:50:32Z</time>
      </trkpt>
      <trkpt lat="45.23596" lon="5.71681">
        <ele>841</ele>
        <time>2015-11-14T10:50:34Z</time>
      </trkpt>
      <trkpt lat="45.23593" lon="5.71681">
        <ele>839.8</ele>
        <time>2015-11-14T10:50:36Z</time>
      </trkpt>
      <trkpt lat="45.23591" lon="5.71681">
        <ele>839</ele>
        <time>2015-11-14T10:50:38Z</time>
      </trkpt>
      <trkpt lat="45.23589" lon="5.7168">
        <ele>839</ele>
        <time>2015-11-14T10:50:40Z</time>
      </trkpt>
      <trkpt lat="45.23586" lon="5.7168">
        <ele>838</ele>
        <time>2015-11-14T10:50:42Z</time>
      </trkpt>
      <trkpt lat="45.23583" lon="5.71679">
        <ele>837</ele>
        <time>2015-11-14T10:50:44Z</time>
      </trkpt>
      <trkpt lat="45.23581" lon="5.7168">
        <ele>836.8</ele>
        <time>2015-11-14T10:50:46Z</time>
      </trkpt>
      <trkpt lat="45.23579" lon="5.71682">
        <ele>836</ele>
        <time>2015-11-14T10:50:48Z</time>
      </trkpt>
      <trkpt lat="45.23577" lon="5.71684">
        <ele>835</ele>
        <time>2015-11-14T10:50:51Z</time>
      </trkpt>
      <trkpt lat="45.23576" lon="5.71685">
        <ele>834</ele>
        <time>2015-11-14T10:50:54Z</time>
      </trkpt>
      <trkpt lat="45.23573" lon="5.71687">
        <ele>834</ele>
        <time>2015-11-14T10:50:56Z</time>
      </trkpt>
      <trkpt lat="45.23571" lon="5.71687">
        <ele>831.9</ele>
        <time>2015-11-14T10:50:58Z</time>
      </trkpt>
      <trkpt lat="45.23569" lon="5.71688">
        <ele>831</ele>
        <time>2015-11-14T10:51:00Z</time>
      </trkpt>
      <trkpt lat="45.23566" lon="5.71689">
        <ele>829</ele>
        <time>2015-11-14T10:51:03Z</time>
      </trkpt>
      <trkpt lat="45.23564" lon="5.71692">
        <ele>827</ele>
        <time>2015-11-14T10:51:06Z</time>
      </trkpt>
      <trkpt lat="45.23563" lon="5.71694">
        <ele>825</ele>
        <time>2015-11-14T10:51:09Z</time>
      </trkpt>
      <trkpt lat="45.23566" lon="5.71695">
        <ele>821.8</ele>
        <time>2015-11-14T10:51:24Z</time>
      </trkpt>
      <trkpt lat="45.23567" lon="5.71693">
        <ele>819.8</ele>
        <time>2015-11-14T10:51:26Z</time>
      </trkpt>
      <trkpt lat="45.2357" lon="5.71694">
        <ele>819</ele>
        <time>2015-11-14T10:51:28Z</time>
      </trkpt>
      <trkpt lat="45.23572" lon="5.71695">
        <ele>818</ele>
        <time>2015-11-14T10:51:30Z</time>
      </trkpt>
      <trkpt lat="45.23574" lon="5.71697">
        <ele>818</ele>
        <time>2015-11-14T10:51:32Z</time>
      </trkpt>
      <trkpt lat="45.23576" lon="5.71699">
        <ele>818</ele>
        <time>2015-11-14T10:51:34Z</time>
      </trkpt>
      <trkpt lat="45.23578" lon="5.71701">
        <ele>817.9</ele>
        <time>2015-11-14T10:51:36Z</time>
      </trkpt>
      <trkpt lat="45.23581" lon="5.71703">
        <ele>817</ele>
        <time>2015-11-14T10:51:38Z</time>
      </trkpt>
      <trkpt lat="45.23583" lon="5.71705">
        <ele>816</ele>
        <time>2015-11-14T10:51:40Z</time>
      </trkpt>
      <trkpt lat="45.23585" lon="5.71707">
        <ele>816</ele>
        <time>2015-11-14T10:51:42Z</time>
      </trkpt>
      <trkpt lat="45.23588" lon="5.7171">
        <ele>815.8</ele>
        <time>2015-11-14T10:51:44Z</time>
      </trkpt>
      <trkpt lat="45.2359" lon="5.71713">
        <ele>815</ele>
        <time>2015-11-14T10:51:46Z</time>
      </trkpt>
      <trkpt lat="45.23592" lon="5.71715">
        <ele>814.8</ele>
        <time>2015-11-14T10:51:48Z</time>
      </trkpt>
      <trkpt lat="45.23595" lon="5.71716">
        <ele>814</ele>
        <time>2015-11-14T10:51:50Z</time>
      </trkpt>
      <trkpt lat="45.23598" lon="5.71718">
        <ele>813.8</ele>
        <time>2015-11-14T10:51:52Z</time>
      </trkpt>
      <trkpt lat="45.23601" lon="5.7172">
        <ele>812.8</ele>
        <time>2015-11-14T10:51:54Z</time>
      </trkpt>
      <trkpt lat="45.23603" lon="5.71722">
        <ele>812</ele>
        <time>2015-11-14T10:51:56Z</time>
      </trkpt>
      <trkpt lat="45.23606" lon="5.71724">
        <ele>811</ele>
        <time>2015-11-14T10:51:58Z</time>
      </trkpt>
      <trkpt lat="45.23609" lon="5.71726">
        <ele>811</ele>
        <time>2015-11-14T10:52:00Z</time>
      </trkpt>
      <trkpt lat="45.23611" lon="5.71729">
        <ele>810</ele>
        <time>2015-11-14T10:52:02Z</time>
      </trkpt>
      <trkpt lat="45.23612" lon="5.71732">
        <ele>810</ele>
        <time>2015-11-14T10:52:03Z</time>
      </trkpt>
      <trkpt lat="45.23612" lon="5.71737">
        <ele>808.9</ele>
        <time>2015-11-14T10:52:05Z</time>
      </trkpt>
      <trkpt lat="45.23611" lon="5.71739">
        <ele>808.1</ele>
        <time>2015-11-14T10:52:06Z</time>
      </trkpt>
      <trkpt lat="45.2361" lon="5.71742">
        <ele>807</ele>
        <time>2015-11-14T10:52:07Z</time>
      </trkpt>
      <trkpt lat="45.23607" lon="5.71745">
        <ele>807</ele>
        <time>2015-11-14T10:52:09Z</time>
      </trkpt>
      <trkpt lat="45.23604" lon="5.71747">
        <ele>806.8</ele>
        <time>2015-11-14T10:52:11Z</time>
      </trkpt>
      <trkpt lat="45.23602" lon="5.7175">
        <ele>806</ele>
        <time>2015-11-14T10:52:13Z</time>
      </trkpt>
      <trkpt lat="45.236" lon="5.71751">
        <ele>805.1</ele>
        <time>2015-11-14T10:52:15Z</time>
      </trkpt>
      <trkpt lat="45.23599" lon="5.71753">
        <ele>804.8</ele>
        <time>2015-11-14T10:52:17Z</time>
      </trkpt>
      <trkpt lat="45.23597" lon="5.71754">
        <ele>803.8</ele>
        <time>2015-11-14T10:52:19Z</time>
      </trkpt>
      <trkpt lat="45.23594" lon="5.71754">
        <ele>803</ele>
        <time>2015-11-14T10:52:22Z</time>
      </trkpt>
      <trkpt lat="45.23593" lon="5.71756">
        <ele>802.1</ele>
        <time>2015-11-14T10:52:24Z</time>
      </trkpt>
      <trkpt lat="45.23591" lon="5.71759">
        <ele>801</ele>
        <time>2015-11-14T10:52:27Z</time>
      </trkpt>
      <trkpt lat="45.23588" lon="5.71762">
        <ele>801</ele>
        <time>2015-11-14T10:52:29Z</time>
      </trkpt>
      <trkpt lat="45.23586" lon="5.71765">
        <ele>800</ele>
        <time>2015-11-14T10:52:31Z</time>
      </trkpt>
      <trkpt lat="45.23583" lon="5.71765">
        <ele>800</ele>
        <time>2015-11-14T10:52:33Z</time>
      </trkpt>
      <trkpt lat="45.23581" lon="5.71765">
        <ele>799</ele>
        <time>2015-11-14T10:52:37Z</time>
      </trkpt>
      <trkpt lat="45.23579" lon="5.71766">
        <ele>799</ele>
        <time>2015-11-14T10:52:39Z</time>
      </trkpt>
      <trkpt lat="45.23577" lon="5.71769">
        <ele>798</ele>
        <time>2015-11-14T10:52:41Z</time>
      </trkpt>
      <trkpt lat="45.23576" lon="5.71771">
        <ele>797</ele>
        <time>2015-11-14T10:52:43Z</time>
      </trkpt>
      <trkpt lat="45.23574" lon="5.71773">
        <ele>797</ele>
        <time>2015-11-14T10:52:45Z</time>
      </trkpt>
      <trkpt lat="45.23569" lon="5.71781">
        <ele>795</ele>
        <time>2015-11-14T10:52:51Z</time>
      </trkpt>
      <trkpt lat="45.23567" lon="5.71783">
        <ele>794.8</ele>
        <time>2015-11-14T10:52:55Z</time>
      </trkpt>
      <trkpt lat="45.2356" lon="5.71793">
        <ele>793</ele>
        <time>2015-11-14T10:53:01Z</time>
      </trkpt>
      <trkpt lat="45.23554" lon="5.71803">
        <ele>791.8</ele>
        <time>2015-11-14T10:53:06Z</time>
      </trkpt>
      <trkpt lat="45.23547" lon="5.71813">
        <ele>788</ele>
        <time>2015-11-14T10:53:13Z</time>
      </trkpt>
      <trkpt lat="45.23539" lon="5.71822">
        <ele>785.9</ele>
        <time>2015-11-14T10:53:20Z</time>
      </trkpt>
      <trkpt lat="45.2353" lon="5.71829">
        <ele>783.8</ele>
        <time>2015-11-14T10:53:27Z</time>
      </trkpt>
      <trkpt lat="45.23521" lon="5.71837">
        <ele>781</ele>
        <time>2015-11-14T10:53:32Z</time>
      </trkpt>
      <trkpt lat="45.23513" lon="5.71841">
        <ele>778.1</ele>
        <time>2015-11-14T10:53:38Z</time>
      </trkpt>
      <trkpt lat="45.23503" lon="5.71843">
        <ele>776</ele>
        <time>2015-11-14T10:53:43Z</time>
      </trkpt>
      <trkpt lat="45.23498" lon="5.71841">
        <ele>774.2</ele>
        <time>2015-11-14T10:53:46Z</time>
      </trkpt>
      <trkpt lat="45.23496" lon="5.71839">
        <ele>774</ele>
        <time>2015-11-14T10:53:47Z</time>
      </trkpt>
      <trkpt lat="45.23494" lon="5.71837">
        <ele>773</ele>
        <time>2015-11-14T10:53:49Z</time>
      </trkpt>
      <trkpt lat="45.23493" lon="5.71835">
        <ele>773</ele>
        <time>2015-11-14T10:53:51Z</time>
      </trkpt>
      <trkpt lat="45.2349" lon="5.71833">
        <ele>772</ele>
        <time>2015-11-14T10:53:53Z</time>
      </trkpt>
      <trkpt lat="45.23488" lon="5.71832">
        <ele>771.8</ele>
        <time>2015-11-14T10:53:55Z</time>
      </trkpt>
      <trkpt lat="45.23484" lon="5.71832">
        <ele>770</ele>
        <time>2015-11-14T10:53:59Z</time>
      </trkpt>
      <trkpt lat="45.23482" lon="5.71834">
        <ele>768.9</ele>
        <time>2015-11-14T10:54:02Z</time>
      </trkpt>
      <trkpt lat="45.23481" lon="5.71837">
        <ele>768</ele>
        <time>2015-11-14T10:54:04Z</time>
      </trkpt>
      <trkpt lat="45.2348" lon="5.7184">
        <ele>767.8</ele>
        <time>2015-11-14T10:54:07Z</time>
      </trkpt>
      <trkpt lat="45.23479" lon="5.71843">
        <ele>767</ele>
        <time>2015-11-14T10:54:09Z</time>
      </trkpt>
      <trkpt lat="45.23478" lon="5.71846">
        <ele>766.9</ele>
        <time>2015-11-14T10:54:11Z</time>
      </trkpt>
      <trkpt lat="45.23476" lon="5.71859">
        <ele>763.1</ele>
        <time>2015-11-14T10:54:21Z</time>
      </trkpt>
      <trkpt lat="45.23472" lon="5.71872">
        <ele>759</ele>
        <time>2015-11-14T10:54:29Z</time>
      </trkpt>
      <trkpt lat="45.23471" lon="5.71875">
        <ele>758</ele>
        <time>2015-11-14T10:54:31Z</time>
      </trkpt>
      <trkpt lat="45.23469" lon="5.71877">
        <ele>757.8</ele>
        <time>2015-11-14T10:54:33Z</time>
      </trkpt>
      <trkpt lat="45.23462" lon="5.71885">
        <ele>755</ele>
        <time>2015-11-14T10:54:40Z</time>
      </trkpt>
      <trkpt lat="45.23455" lon="5.71896">
        <ele>753</ele>
        <time>2015-11-14T10:54:47Z</time>
      </trkpt>
      <trkpt lat="45.23448" lon="5.71906">
        <ele>750.8</ele>
        <time>2015-11-14T10:54:51Z</time>
      </trkpt>
      <trkpt lat="45.23442" lon="5.71915">
        <ele>749</ele>
        <time>2015-11-14T10:54:57Z</time>
      </trkpt>
      <trkpt lat="45.23434" lon="5.71925">
        <ele>747</ele>
        <time>2015-11-14T10:55:03Z</time>
      </trkpt>
      <trkpt lat="45.23428" lon="5.71935">
        <ele>742.6</ele>
        <time>2015-11-14T10:55:11Z</time>
      </trkpt>
      <trkpt lat="45.23419" lon="5.7194">
        <ele>738</ele>
        <time>2015-11-14T10:55:17Z</time>
      </trkpt>
      <trkpt lat="45.23413" lon="5.71936">
        <ele>728.8</ele>
        <time>2015-11-14T10:55:47Z</time>
      </trkpt>
      <trkpt lat="45.2341" lon="5.71935">
        <ele>728</ele>
        <time>2015-11-14T10:55:49Z</time>
      </trkpt>
      <trkpt lat="45.23408" lon="5.71934">
        <ele>727</ele>
        <time>2015-11-14T10:55:51Z</time>
      </trkpt>
      <trkpt lat="45.23405" lon="5.71931">
        <ele>725</ele>
        <time>2015-11-14T10:55:55Z</time>
      </trkpt>
      <trkpt lat="45.23403" lon="5.71929">
        <ele>722</ele>
        <time>2015-11-14T10:56:05Z</time>
      </trkpt>
      <trkpt lat="45.234" lon="5.71929">
        <ele>721</ele>
        <time>2015-11-14T10:56:08Z</time>
      </trkpt>
      <trkpt lat="45.23397" lon="5.71929">
        <ele>721</ele>
        <time>2015-11-14T10:56:11Z</time>
      </trkpt>
      <trkpt lat="45.23395" lon="5.7193">
        <ele>720</ele>
        <time>2015-11-14T10:56:13Z</time>
      </trkpt>
      <trkpt lat="45.23393" lon="5.7193">
        <ele>720</ele>
        <time>2015-11-14T10:56:15Z</time>
      </trkpt>
      <trkpt lat="45.2339" lon="5.71931">
        <ele>719</ele>
        <time>2015-11-14T10:56:17Z</time>
      </trkpt>
      <trkpt lat="45.23388" lon="5.71931">
        <ele>719</ele>
        <time>2015-11-14T10:56:19Z</time>
      </trkpt>
      <trkpt lat="45.23385" lon="5.71932">
        <ele>718.9</ele>
        <time>2015-11-14T10:56:21Z</time>
      </trkpt>
      <trkpt lat="45.23383" lon="5.71933">
        <ele>718</ele>
        <time>2015-11-14T10:56:23Z</time>
      </trkpt>
      <trkpt lat="45.23381" lon="5.71933">
        <ele>718</ele>
        <time>2015-11-14T10:56:24Z</time>
      </trkpt>
      <trkpt lat="45.23379" lon="5.71934">
        <ele>718</ele>
        <time>2015-11-14T10:56:25Z</time>
      </trkpt>
      <trkpt lat="45.23377" lon="5.71935">
        <ele>717.8</ele>
        <time>2015-11-14T10:56:26Z</time>
      </trkpt>
      <trkpt lat="45.23375" lon="5.71936">
        <ele>717</ele>
        <time>2015-11-14T10:56:27Z</time>
      </trkpt>
      <trkpt lat="45.23373" lon="5.71937">
        <ele>717</ele>
        <time>2015-11-14T10:56:28Z</time>
      </trkpt>
      <trkpt lat="45.2337" lon="5.71938">
        <ele>716.8</ele>
        <time>2015-11-14T10:56:29Z</time>
      </trkpt>
      <trkpt lat="45.23367" lon="5.7194">
        <ele>716</ele>
        <time>2015-11-14T10:56:30Z</time>
      </trkpt>
      <trkpt lat="45.23364" lon="5.71941">
        <ele>716</ele>
        <time>2015-11-14T10:56:31Z</time>
      </trkpt>
      <trkpt lat="45.23362" lon="5.71941">
        <ele>716</ele>
        <time>2015-11-14T10:56:32Z</time>
      </trkpt>
      <trkpt lat="45.2336" lon="5.71941">
        <ele>715.8</ele>
        <time>2015-11-14T10:56:33Z</time>
      </trkpt>
      <trkpt lat="45.23357" lon="5.71942">
        <ele>715</ele>
        <time>2015-11-14T10:56:34Z</time>
      </trkpt>
      <trkpt lat="45.23354" lon="5.71942">
        <ele>715</ele>
        <time>2015-11-14T10:56:35Z</time>
      </trkpt>
      <trkpt lat="45.23352" lon="5.71942">
        <ele>715</ele>
        <time>2015-11-14T10:56:36Z</time>
      </trkpt>
      <trkpt lat="45.2335" lon="5.71943">
        <ele>715</ele>
        <time>2015-11-14T10:56:37Z</time>
      </trkpt>
      <trkpt lat="45.23347" lon="5.71943">
        <ele>714.9</ele>
        <time>2015-11-14T10:56:38Z</time>
      </trkpt>
      <trkpt lat="45.23345" lon="5.71944">
        <ele>714.2</ele>
        <time>2015-11-14T10:56:39Z</time>
      </trkpt>
      <trkpt lat="45.23342" lon="5.71944">
        <ele>714</ele>
        <time>2015-11-14T10:56:40Z</time>
      </trkpt>
      <trkpt lat="45.2334" lon="5.71944">
        <ele>714</ele>
        <time>2015-11-14T10:56:41Z</time>
      </trkpt>
      <trkpt lat="45.23335" lon="5.71944">
        <ele>714</ele>
        <time>2015-11-14T10:56:43Z</time>
      </trkpt>
      <trkpt lat="45.23331" lon="5.71943">
        <ele>714</ele>
        <time>2015-11-14T10:56:45Z</time>
      </trkpt>
      <trkpt lat="45.23322" lon="5.71942">
        <ele>713</ele>
        <time>2015-11-14T10:56:49Z</time>
      </trkpt>
      <trkpt lat="45.23319" lon="5.71943">
        <ele>713</ele>
        <time>2015-11-14T10:56:50Z</time>
      </trkpt>
      <trkpt lat="45.23314" lon="5.71943">
        <ele>713</ele>
        <time>2015-11-14T10:56:52Z</time>
      </trkpt>
      <trkpt lat="45.23312" lon="5.71944">
        <ele>713</ele>
        <time>2015-11-14T10:56:53Z</time>
      </trkpt>
      <trkpt lat="45.23309" lon="5.71944">
        <ele>713</ele>
        <time>2015-11-14T10:56:54Z</time>
      </trkpt>
      <trkpt lat="45.23295" lon="5.71942">
        <ele>711.2</ele>
        <time>2015-11-14T10:56:59Z</time>
      </trkpt>
      <trkpt lat="45.23285" lon="5.7194">
        <ele>710</ele>
        <time>2015-11-14T10:57:03Z</time>
      </trkpt>
      <trkpt lat="45.23283" lon="5.71939">
        <ele>709.9</ele>
        <time>2015-11-14T10:57:04Z</time>
      </trkpt>
      <trkpt lat="45.2328" lon="5.71939">
        <ele>709.2</ele>
        <time>2015-11-14T10:57:05Z</time>
      </trkpt>
      <trkpt lat="45.23278" lon="5.7194">
        <ele>709</ele>
        <time>2015-11-14T10:57:06Z</time>
      </trkpt>
      <trkpt lat="45.23275" lon="5.7194">
        <ele>709</ele>
        <time>2015-11-14T10:57:07Z</time>
      </trkpt>
      <trkpt lat="45.23273" lon="5.7194">
        <ele>709</ele>
        <time>2015-11-14T10:57:08Z</time>
      </trkpt>
      <trkpt lat="45.23271" lon="5.7194">
        <ele>709</ele>
        <time>2015-11-14T10:57:09Z</time>
      </trkpt>
      <trkpt lat="45.23268" lon="5.71939">
        <ele>708.8</ele>
        <time>2015-11-14T10:57:10Z</time>
      </trkpt>
      <trkpt lat="45.23265" lon="5.7194">
        <ele>708</ele>
        <time>2015-11-14T10:57:11Z</time>
      </trkpt>
      <trkpt lat="45.23262" lon="5.7194">
        <ele>708</ele>
        <time>2015-11-14T10:57:12Z</time>
      </trkpt>
      <trkpt lat="45.23256" lon="5.71941">
        <ele>707.2</ele>
        <time>2015-11-14T10:57:14Z</time>
      </trkpt>
      <trkpt lat="45.23247" lon="5.71942">
        <ele>706</ele>
        <time>2015-11-14T10:57:17Z</time>
      </trkpt>
      <trkpt lat="45.23244" lon="5.71941">
        <ele>706</ele>
        <time>2015-11-14T10:57:18Z</time>
      </trkpt>
      <trkpt lat="45.23235" lon="5.7194">
        <ele>705.8</ele>
        <time>2015-11-14T10:57:21Z</time>
      </trkpt>
      <trkpt lat="45.23229" lon="5.7194">
        <ele>705</ele>
        <time>2015-11-14T10:57:23Z</time>
      </trkpt>
      <trkpt lat="45.23226" lon="5.71941">
        <ele>705</ele>
        <time>2015-11-14T10:57:24Z</time>
      </trkpt>
      <trkpt lat="45.23223" lon="5.71942">
        <ele>704.8</ele>
        <time>2015-11-14T10:57:25Z</time>
      </trkpt>
      <trkpt lat="45.23221" lon="5.71943">
        <ele>704</ele>
        <time>2015-11-14T10:57:26Z</time>
      </trkpt>
      <trkpt lat="45.23218" lon="5.71944">
        <ele>704</ele>
        <time>2015-11-14T10:57:27Z</time>
      </trkpt>
      <trkpt lat="45.23215" lon="5.71946">
        <ele>703.8</ele>
        <time>2015-11-14T10:57:28Z</time>
      </trkpt>
      <trkpt lat="45.23213" lon="5.71947">
        <ele>703</ele>
        <time>2015-11-14T10:57:29Z</time>
      </trkpt>
      <trkpt lat="45.2321" lon="5.71949">
        <ele>703</ele>
        <time>2015-11-14T10:57:30Z</time>
      </trkpt>
      <trkpt lat="45.232" lon="5.71953">
        <ele>701</ele>
        <time>2015-11-14T10:57:34Z</time>
      </trkpt>
      <trkpt lat="45.23197" lon="5.71955">
        <ele>701</ele>
        <time>2015-11-14T10:57:35Z</time>
      </trkpt>
      <trkpt lat="45.23195" lon="5.71956">
        <ele>701</ele>
        <time>2015-11-14T10:57:36Z</time>
      </trkpt>
      <trkpt lat="45.23193" lon="5.71956">
        <ele>700.9</ele>
        <time>2015-11-14T10:57:37Z</time>
      </trkpt>
      <trkpt lat="45.2319" lon="5.71957">
        <ele>700.1</ele>
        <time>2015-11-14T10:57:38Z</time>
      </trkpt>
      <trkpt lat="45.23187" lon="5.71958">
        <ele>700</ele>
        <time>2015-11-14T10:57:39Z</time>
      </trkpt>
      <trkpt lat="45.23184" lon="5.71959">
        <ele>699.8</ele>
        <time>2015-11-14T10:57:40Z</time>
      </trkpt>
      <trkpt lat="45.23182" lon="5.7196">
        <ele>699</ele>
        <time>2015-11-14T10:57:41Z</time>
      </trkpt>
      <trkpt lat="45.23179" lon="5.7196">
        <ele>699</ele>
        <time>2015-11-14T10:57:42Z</time>
      </trkpt>
      <trkpt lat="45.23177" lon="5.71961">
        <ele>698.8</ele>
        <time>2015-11-14T10:57:43Z</time>
      </trkpt>
      <trkpt lat="45.23175" lon="5.71962">
        <ele>698</ele>
        <time>2015-11-14T10:57:44Z</time>
      </trkpt>
      <trkpt lat="45.23172" lon="5.71963">
        <ele>697.8</ele>
        <time>2015-11-14T10:57:45Z</time>
      </trkpt>
      <trkpt lat="45.23169" lon="5.71964">
        <ele>697</ele>
        <time>2015-11-14T10:57:46Z</time>
      </trkpt>
      <trkpt lat="45.23166" lon="5.71965">
        <ele>697</ele>
        <time>2015-11-14T10:57:47Z</time>
      </trkpt>
      <trkpt lat="45.23158" lon="5.71968">
        <ele>696</ele>
        <time>2015-11-14T10:57:50Z</time>
      </trkpt>
      <trkpt lat="45.23155" lon="5.71969">
        <ele>694.8</ele>
        <time>2015-11-14T10:57:51Z</time>
      </trkpt>
      <trkpt lat="45.23153" lon="5.7197">
        <ele>694</ele>
        <time>2015-11-14T10:57:52Z</time>
      </trkpt>
      <trkpt lat="45.2315" lon="5.7197">
        <ele>694</ele>
        <time>2015-11-14T10:57:53Z</time>
      </trkpt>
      <trkpt lat="45.23147" lon="5.7197">
        <ele>693.8</ele>
        <time>2015-11-14T10:57:54Z</time>
      </trkpt>
      <trkpt lat="45.23144" lon="5.71971">
        <ele>693</ele>
        <time>2015-11-14T10:57:55Z</time>
      </trkpt>
      <trkpt lat="45.23141" lon="5.71971">
        <ele>693</ele>
        <time>2015-11-14T10:57:56Z</time>
      </trkpt>
      <trkpt lat="45.23138" lon="5.7197">
        <ele>693</ele>
        <time>2015-11-14T10:57:57Z</time>
      </trkpt>
      <trkpt lat="45.23135" lon="5.71971">
        <ele>691</ele>
        <time>2015-11-14T10:57:58Z</time>
      </trkpt>
      <trkpt lat="45.23132" lon="5.71971">
        <ele>691</ele>
        <time>2015-11-14T10:57:59Z</time>
      </trkpt>
      <trkpt lat="45.2313" lon="5.7197">
        <ele>690.8</ele>
        <time>2015-11-14T10:58:00Z</time>
      </trkpt>
      <trkpt lat="45.23127" lon="5.7197">
        <ele>690</ele>
        <time>2015-11-14T10:58:01Z</time>
      </trkpt>
      <trkpt lat="45.23124" lon="5.7197">
        <ele>689.8</ele>
        <time>2015-11-14T10:58:02Z</time>
      </trkpt>
      <trkpt lat="45.23121" lon="5.71969">
        <ele>689</ele>
        <time>2015-11-14T10:58:03Z</time>
      </trkpt>
      <trkpt lat="45.23118" lon="5.71969">
        <ele>689</ele>
        <time>2015-11-14T10:58:04Z</time>
      </trkpt>
      <trkpt lat="45.23116" lon="5.71969">
        <ele>688.9</ele>
        <time>2015-11-14T10:58:05Z</time>
      </trkpt>
      <trkpt lat="45.23113" lon="5.71968">
        <ele>688.1</ele>
        <time>2015-11-14T10:58:06Z</time>
      </trkpt>
      <trkpt lat="45.2311" lon="5.71969">
        <ele>687.8</ele>
        <time>2015-11-14T10:58:07Z</time>
      </trkpt>
      <trkpt lat="45.23108" lon="5.71969">
        <ele>687</ele>
        <time>2015-11-14T10:58:08Z</time>
      </trkpt>
      <trkpt lat="45.23105" lon="5.71969">
        <ele>686.8</ele>
        <time>2015-11-14T10:58:09Z</time>
      </trkpt>
      <trkpt lat="45.23102" lon="5.71969">
        <ele>686</ele>
        <time>2015-11-14T10:58:10Z</time>
      </trkpt>
      <trkpt lat="45.231" lon="5.71969">
        <ele>686</ele>
        <time>2015-11-14T10:58:11Z</time>
      </trkpt>
      <trkpt lat="45.23097" lon="5.71969">
        <ele>686</ele>
        <time>2015-11-14T10:58:12Z</time>
      </trkpt>
      <trkpt lat="45.23094" lon="5.71969">
        <ele>685.8</ele>
        <time>2015-11-14T10:58:13Z</time>
      </trkpt>
      <trkpt lat="45.23091" lon="5.7197">
        <ele>685</ele>
        <time>2015-11-14T10:58:14Z</time>
      </trkpt>
      <trkpt lat="45.23088" lon="5.71969">
        <ele>685</ele>
        <time>2015-11-14T10:58:15Z</time>
      </trkpt>
      <trkpt lat="45.23086" lon="5.71968">
        <ele>685</ele>
        <time>2015-11-14T10:58:16Z</time>
      </trkpt>
      <trkpt lat="45.23083" lon="5.71968">
        <ele>684</ele>
        <time>2015-11-14T10:58:17Z</time>
      </trkpt>
      <trkpt lat="45.23078" lon="5.71966">
        <ele>683</ele>
        <time>2015-11-14T10:58:19Z</time>
      </trkpt>
      <trkpt lat="45.23073" lon="5.71966">
        <ele>683</ele>
        <time>2015-11-14T10:58:21Z</time>
      </trkpt>
      <trkpt lat="45.23071" lon="5.71966">
        <ele>682</ele>
        <time>2015-11-14T10:58:22Z</time>
      </trkpt>
      <trkpt lat="45.23059" lon="5.71966">
        <ele>681</ele>
        <time>2015-11-14T10:58:26Z</time>
      </trkpt>
      <trkpt lat="45.23057" lon="5.71965">
        <ele>680.8</ele>
        <time>2015-11-14T10:58:27Z</time>
      </trkpt>
      <trkpt lat="45.23054" lon="5.71965">
        <ele>680</ele>
        <time>2015-11-14T10:58:28Z</time>
      </trkpt>
      <trkpt lat="45.23052" lon="5.71964">
        <ele>679.9</ele>
        <time>2015-11-14T10:58:29Z</time>
      </trkpt>
      <trkpt lat="45.23049" lon="5.71963">
        <ele>679</ele>
        <time>2015-11-14T10:58:30Z</time>
      </trkpt>
      <trkpt lat="45.23047" lon="5.71962">
        <ele>679</ele>
        <time>2015-11-14T10:58:31Z</time>
      </trkpt>
      <trkpt lat="45.23044" lon="5.71961">
        <ele>678.8</ele>
        <time>2015-11-14T10:58:32Z</time>
      </trkpt>
      <trkpt lat="45.23042" lon="5.7196">
        <ele>678</ele>
        <time>2015-11-14T10:58:33Z</time>
      </trkpt>
      <trkpt lat="45.23039" lon="5.71958">
        <ele>678</ele>
        <time>2015-11-14T10:58:34Z</time>
      </trkpt>
      <trkpt lat="45.23036" lon="5.71956">
        <ele>678</ele>
        <time>2015-11-14T10:58:35Z</time>
      </trkpt>
      <trkpt lat="45.23034" lon="5.71954">
        <ele>677</ele>
        <time>2015-11-14T10:58:36Z</time>
      </trkpt>
      <trkpt lat="45.23032" lon="5.71952">
        <ele>677</ele>
        <time>2015-11-14T10:58:37Z</time>
      </trkpt>
      <trkpt lat="45.2303" lon="5.71949">
        <ele>677</ele>
        <time>2015-11-14T10:58:39Z</time>
      </trkpt>
      <trkpt lat="45.23028" lon="5.71945">
        <ele>676</ele>
        <time>2015-11-14T10:58:41Z</time>
      </trkpt>
      <trkpt lat="45.23026" lon="5.71942">
        <ele>676</ele>
        <time>2015-11-14T10:58:43Z</time>
      </trkpt>
      <trkpt lat="45.23025" lon="5.71938">
        <ele>675.1</ele>
        <time>2015-11-14T10:58:45Z</time>
      </trkpt>
      <trkpt lat="45.23024" lon="5.71935">
        <ele>674</ele>
        <time>2015-11-14T10:58:47Z</time>
      </trkpt>
      <trkpt lat="45.23023" lon="5.71932">
        <ele>674</ele>
        <time>2015-11-14T10:58:51Z</time>
      </trkpt>
      <trkpt lat="45.23025" lon="5.71933">
        <ele>674</ele>
        <time>2015-11-14T10:58:56Z</time>
      </trkpt>
      <trkpt lat="45.23022" lon="5.71927">
        <ele>673</ele>
        <time>2015-11-14T10:59:05Z</time>
      </trkpt>
      <trkpt lat="45.2302" lon="5.71925">
        <ele>674</ele>
        <time>2015-11-14T10:59:15Z</time>
      </trkpt>
      <trkpt lat="45.23018" lon="5.71924">
        <ele>673.9</ele>
        <time>2015-11-14T10:59:17Z</time>
      </trkpt>
      <trkpt lat="45.23015" lon="5.71922">
        <ele>673</ele>
        <time>2015-11-14T10:59:19Z</time>
      </trkpt>
      <trkpt lat="45.23013" lon="5.71921">
        <ele>673</ele>
        <time>2015-11-14T10:59:20Z</time>
      </trkpt>
      <trkpt lat="45.23012" lon="5.7192">
        <ele>673</ele>
        <time>2015-11-14T10:59:21Z</time>
      </trkpt>
      <trkpt lat="45.2301" lon="5.71919">
        <ele>673</ele>
        <time>2015-11-14T10:59:22Z</time>
      </trkpt>
      <trkpt lat="45.23008" lon="5.71916">
        <ele>673</ele>
        <time>2015-11-14T10:59:24Z</time>
      </trkpt>
      <trkpt lat="45.23007" lon="5.71914">
        <ele>673</ele>
        <time>2015-11-14T10:59:25Z</time>
      </trkpt>
      <trkpt lat="45.23004" lon="5.71913">
        <ele>673</ele>
        <time>2015-11-14T10:59:26Z</time>
      </trkpt>
      <trkpt lat="45.23001" lon="5.71912">
        <ele>673</ele>
        <time>2015-11-14T10:59:27Z</time>
      </trkpt>
      <trkpt lat="45.22998" lon="5.7191">
        <ele>673</ele>
        <time>2015-11-14T10:59:28Z</time>
      </trkpt>
      <trkpt lat="45.22995" lon="5.71907">
        <ele>672.8</ele>
        <time>2015-11-14T10:59:29Z</time>
      </trkpt>
      <trkpt lat="45.22992" lon="5.71906">
        <ele>672</ele>
        <time>2015-11-14T10:59:30Z</time>
      </trkpt>
      <trkpt lat="45.22989" lon="5.71904">
        <ele>672</ele>
        <time>2015-11-14T10:59:31Z</time>
      </trkpt>
      <trkpt lat="45.22986" lon="5.71904">
        <ele>672</ele>
        <time>2015-11-14T10:59:32Z</time>
      </trkpt>
      <trkpt lat="45.22983" lon="5.71903">
        <ele>672</ele>
        <time>2015-11-14T10:59:33Z</time>
      </trkpt>
      <trkpt lat="45.22974" lon="5.71902">
        <ele>672</ele>
        <time>2015-11-14T10:59:36Z</time>
      </trkpt>
      <trkpt lat="45.22964" lon="5.71901">
        <ele>671</ele>
        <time>2015-11-14T10:59:39Z</time>
      </trkpt>
      <trkpt lat="45.22953" lon="5.71899">
        <ele>670</ele>
        <time>2015-11-14T10:59:43Z</time>
      </trkpt>
      <trkpt lat="45.22942" lon="5.71899">
        <ele>668</ele>
        <time>2015-11-14T10:59:47Z</time>
      </trkpt>
      <trkpt lat="45.22931" lon="5.71896">
        <ele>667</ele>
        <time>2015-11-14T10:59:51Z</time>
      </trkpt>
      <trkpt lat="45.22925" lon="5.71893">
        <ele>665.8</ele>
        <time>2015-11-14T10:59:54Z</time>
      </trkpt>
      <trkpt lat="45.22923" lon="5.71893">
        <ele>665</ele>
        <time>2015-11-14T10:59:55Z</time>
      </trkpt>
      <trkpt lat="45.22921" lon="5.71892">
        <ele>665</ele>
        <time>2015-11-14T10:59:56Z</time>
      </trkpt>
      <trkpt lat="45.22919" lon="5.71891">
        <ele>665</ele>
        <time>2015-11-14T10:59:57Z</time>
      </trkpt>
      <trkpt lat="45.22916" lon="5.7189">
        <ele>664.8</ele>
        <time>2015-11-14T10:59:58Z</time>
      </trkpt>
      <trkpt lat="45.22914" lon="5.71889">
        <ele>664</ele>
        <time>2015-11-14T10:59:59Z</time>
      </trkpt>
      <trkpt lat="45.22911" lon="5.71889">
        <ele>664</ele>
        <time>2015-11-14T11:00:00Z</time>
      </trkpt>
      <trkpt lat="45.22906" lon="5.71888">
        <ele>663</ele>
        <time>2015-11-14T11:00:02Z</time>
      </trkpt>
      <trkpt lat="45.22903" lon="5.71888">
        <ele>662</ele>
        <time>2015-11-14T11:00:03Z</time>
      </trkpt>
      <trkpt lat="45.22901" lon="5.71887">
        <ele>661.8</ele>
        <time>2015-11-14T11:00:04Z</time>
      </trkpt>
      <trkpt lat="45.22899" lon="5.71887">
        <ele>661</ele>
        <time>2015-11-14T11:00:05Z</time>
      </trkpt>
      <trkpt lat="45.22896" lon="5.71887">
        <ele>661</ele>
        <time>2015-11-14T11:00:06Z</time>
      </trkpt>
      <trkpt lat="45.22893" lon="5.71886">
        <ele>660.8</ele>
        <time>2015-11-14T11:00:07Z</time>
      </trkpt>
      <trkpt lat="45.22891" lon="5.71886">
        <ele>660</ele>
        <time>2015-11-14T11:00:08Z</time>
      </trkpt>
      <trkpt lat="45.22888" lon="5.71885">
        <ele>660</ele>
        <time>2015-11-14T11:00:09Z</time>
      </trkpt>
      <trkpt lat="45.22886" lon="5.71884">
        <ele>660</ele>
        <time>2015-11-14T11:00:10Z</time>
      </trkpt>
      <trkpt lat="45.22884" lon="5.71884">
        <ele>659.8</ele>
        <time>2015-11-14T11:00:11Z</time>
      </trkpt>
      <trkpt lat="45.22881" lon="5.71883">
        <ele>659</ele>
        <time>2015-11-14T11:00:12Z</time>
      </trkpt>
      <trkpt lat="45.22879" lon="5.71882">
        <ele>659</ele>
        <time>2015-11-14T11:00:13Z</time>
      </trkpt>
      <trkpt lat="45.22876" lon="5.71881">
        <ele>658.8</ele>
        <time>2015-11-14T11:00:14Z</time>
      </trkpt>
      <trkpt lat="45.22874" lon="5.7188">
        <ele>658</ele>
        <time>2015-11-14T11:00:15Z</time>
      </trkpt>
      <trkpt lat="45.22871" lon="5.7188">
        <ele>658</ele>
        <time>2015-11-14T11:00:16Z</time>
      </trkpt>
      <trkpt lat="45.22869" lon="5.71879">
        <ele>657.9</ele>
        <time>2015-11-14T11:00:17Z</time>
      </trkpt>
      <trkpt lat="45.22866" lon="5.71879">
        <ele>656</ele>
        <time>2015-11-14T11:00:19Z</time>
      </trkpt>
      <trkpt lat="45.22863" lon="5.71878">
        <ele>656</ele>
        <time>2015-11-14T11:00:21Z</time>
      </trkpt>
      <trkpt lat="45.22861" lon="5.71877">
        <ele>655.8</ele>
        <time>2015-11-14T11:00:22Z</time>
      </trkpt>
      <trkpt lat="45.22858" lon="5.71876">
        <ele>655</ele>
        <time>2015-11-14T11:00:24Z</time>
      </trkpt>
      <trkpt lat="45.22856" lon="5.71875">
        <ele>655</ele>
        <time>2015-11-14T11:00:25Z</time>
      </trkpt>
      <trkpt lat="45.22854" lon="5.71875">
        <ele>655</ele>
        <time>2015-11-14T11:00:26Z</time>
      </trkpt>
      <trkpt lat="45.22852" lon="5.71874">
        <ele>655</ele>
        <time>2015-11-14T11:00:27Z</time>
      </trkpt>
      <trkpt lat="45.22843" lon="5.71874">
        <ele>652.8</ele>
        <time>2015-11-14T11:00:31Z</time>
      </trkpt>
      <trkpt lat="45.2284" lon="5.71874">
        <ele>652</ele>
        <time>2015-11-14T11:00:32Z</time>
      </trkpt>
      <trkpt lat="45.22838" lon="5.71874">
        <ele>652</ele>
        <time>2015-11-14T11:00:33Z</time>
      </trkpt>
      <trkpt lat="45.22835" lon="5.71873">
        <ele>652</ele>
        <time>2015-11-14T11:00:34Z</time>
      </trkpt>
      <trkpt lat="45.22832" lon="5.71873">
        <ele>651</ele>
        <time>2015-11-14T11:00:35Z</time>
      </trkpt>
      <trkpt lat="45.22829" lon="5.71872">
        <ele>651</ele>
        <time>2015-11-14T11:00:36Z</time>
      </trkpt>
      <trkpt lat="45.22827" lon="5.71872">
        <ele>651</ele>
        <time>2015-11-14T11:00:37Z</time>
      </trkpt>
      <trkpt lat="45.22824" lon="5.71871">
        <ele>650.8</ele>
        <time>2015-11-14T11:00:38Z</time>
      </trkpt>
      <trkpt lat="45.22822" lon="5.71871">
        <ele>650</ele>
        <time>2015-11-14T11:00:39Z</time>
      </trkpt>
      <trkpt lat="45.22819" lon="5.7187">
        <ele>650</ele>
        <time>2015-11-14T11:00:40Z</time>
      </trkpt>
      <trkpt lat="45.22817" lon="5.71868">
        <ele>650</ele>
        <time>2015-11-14T11:00:41Z</time>
      </trkpt>
      <trkpt lat="45.22814" lon="5.71866">
        <ele>650</ele>
        <time>2015-11-14T11:00:42Z</time>
      </trkpt>
      <trkpt lat="45.22812" lon="5.71864">
        <ele>649.8</ele>
        <time>2015-11-14T11:00:43Z</time>
      </trkpt>
      <trkpt lat="45.22804" lon="5.71858">
        <ele>648.8</ele>
        <time>2015-11-14T11:00:46Z</time>
      </trkpt>
      <trkpt lat="45.22801" lon="5.71857">
        <ele>648</ele>
        <time>2015-11-14T11:00:47Z</time>
      </trkpt>
      <trkpt lat="45.22799" lon="5.71856">
        <ele>648</ele>
        <time>2015-11-14T11:00:48Z</time>
      </trkpt>
      <trkpt lat="45.22796" lon="5.71855">
        <ele>648</ele>
        <time>2015-11-14T11:00:49Z</time>
      </trkpt>
      <trkpt lat="45.22787" lon="5.7185">
        <ele>647</ele>
        <time>2015-11-14T11:00:52Z</time>
      </trkpt>
      <trkpt lat="45.22784" lon="5.7185">
        <ele>646</ele>
        <time>2015-11-14T11:00:53Z</time>
      </trkpt>
      <trkpt lat="45.22781" lon="5.7185">
        <ele>646</ele>
        <time>2015-11-14T11:00:54Z</time>
      </trkpt>
      <trkpt lat="45.22778" lon="5.7185">
        <ele>645.8</ele>
        <time>2015-11-14T11:00:55Z</time>
      </trkpt>
      <trkpt lat="45.22774" lon="5.7185">
        <ele>645</ele>
        <time>2015-11-14T11:00:56Z</time>
      </trkpt>
      <trkpt lat="45.22772" lon="5.7185">
        <ele>645</ele>
        <time>2015-11-14T11:00:57Z</time>
      </trkpt>
      <trkpt lat="45.22769" lon="5.7185">
        <ele>644.8</ele>
        <time>2015-11-14T11:00:58Z</time>
      </trkpt>
      <trkpt lat="45.22767" lon="5.71849">
        <ele>644</ele>
        <time>2015-11-14T11:00:59Z</time>
      </trkpt>
      <trkpt lat="45.2276" lon="5.7184">
        <ele>640</ele>
        <time>2015-11-14T11:01:08Z</time>
      </trkpt>
      <trkpt lat="45.22759" lon="5.71838">
        <ele>640</ele>
        <time>2015-11-14T11:01:10Z</time>
      </trkpt>
      <trkpt lat="45.22757" lon="5.71837">
        <ele>639.8</ele>
        <time>2015-11-14T11:01:12Z</time>
      </trkpt>
      <trkpt lat="45.22755" lon="5.71835">
        <ele>639</ele>
        <time>2015-11-14T11:01:14Z</time>
      </trkpt>
      <trkpt lat="45.22752" lon="5.71833">
        <ele>638.8</ele>
        <time>2015-11-14T11:01:16Z</time>
      </trkpt>
      <trkpt lat="45.2275" lon="5.71832">
        <ele>638</ele>
        <time>2015-11-14T11:01:17Z</time>
      </trkpt>
      <trkpt lat="45.22747" lon="5.71831">
        <ele>638</ele>
        <time>2015-11-14T11:01:18Z</time>
      </trkpt>
      <trkpt lat="45.22745" lon="5.7183">
        <ele>638</ele>
        <time>2015-11-14T11:01:19Z</time>
      </trkpt>
      <trkpt lat="45.22743" lon="5.71828">
        <ele>638</ele>
        <time>2015-11-14T11:01:20Z</time>
      </trkpt>
      <trkpt lat="45.2274" lon="5.71827">
        <ele>637</ele>
        <time>2015-11-14T11:01:22Z</time>
      </trkpt>
      <trkpt lat="45.22737" lon="5.71826">
        <ele>636.9</ele>
        <time>2015-11-14T11:01:24Z</time>
      </trkpt>
      <trkpt lat="45.22734" lon="5.71825">
        <ele>636</ele>
        <time>2015-11-14T11:01:26Z</time>
      </trkpt>
      <trkpt lat="45.22731" lon="5.71827">
        <ele>635.8</ele>
        <time>2015-11-14T11:01:28Z</time>
      </trkpt>
      <trkpt lat="45.22729" lon="5.7183">
        <ele>635</ele>
        <time>2015-11-14T11:01:30Z</time>
      </trkpt>
      <trkpt lat="45.22726" lon="5.71834">
        <ele>634.2</ele>
        <time>2015-11-14T11:01:32Z</time>
      </trkpt>
      <trkpt lat="45.22725" lon="5.71837">
        <ele>633.8</ele>
        <time>2015-11-14T11:01:33Z</time>
      </trkpt>
      <trkpt lat="45.22725" lon="5.7184">
        <ele>633</ele>
        <time>2015-11-14T11:01:34Z</time>
      </trkpt>
      <trkpt lat="45.22724" lon="5.71843">
        <ele>633</ele>
        <time>2015-11-14T11:01:35Z</time>
      </trkpt>
      <trkpt lat="45.22724" lon="5.71846">
        <ele>632.8</ele>
        <time>2015-11-14T11:01:36Z</time>
      </trkpt>
      <trkpt lat="45.22723" lon="5.71849">
        <ele>632</ele>
        <time>2015-11-14T11:01:37Z</time>
      </trkpt>
      <trkpt lat="45.22722" lon="5.71852">
        <ele>631.8</ele>
        <time>2015-11-14T11:01:38Z</time>
      </trkpt>
      <trkpt lat="45.22721" lon="5.71855">
        <ele>631</ele>
        <time>2015-11-14T11:01:39Z</time>
      </trkpt>
      <trkpt lat="45.2272" lon="5.71859">
        <ele>631</ele>
        <time>2015-11-14T11:01:40Z</time>
      </trkpt>
      <trkpt lat="45.22719" lon="5.71864">
        <ele>630.8</ele>
        <time>2015-11-14T11:01:41Z</time>
      </trkpt>
      <trkpt lat="45.22719" lon="5.71868">
        <ele>630</ele>
        <time>2015-11-14T11:01:42Z</time>
      </trkpt>
      <trkpt lat="45.22718" lon="5.71871">
        <ele>629.9</ele>
        <time>2015-11-14T11:01:43Z</time>
      </trkpt>
      <trkpt lat="45.22718" lon="5.71875">
        <ele>629.1</ele>
        <time>2015-11-14T11:01:44Z</time>
      </trkpt>
      <trkpt lat="45.22717" lon="5.71879">
        <ele>628.1</ele>
        <time>2015-11-14T11:01:45Z</time>
      </trkpt>
      <trkpt lat="45.22716" lon="5.71883">
        <ele>628</ele>
        <time>2015-11-14T11:01:46Z</time>
      </trkpt>
      <trkpt lat="45.22715" lon="5.71887">
        <ele>628</ele>
        <time>2015-11-14T11:01:47Z</time>
      </trkpt>
      <trkpt lat="45.22714" lon="5.7189">
        <ele>627.8</ele>
        <time>2015-11-14T11:01:48Z</time>
      </trkpt>
      <trkpt lat="45.22713" lon="5.71894">
        <ele>627</ele>
        <time>2015-11-14T11:01:49Z</time>
      </trkpt>
      <trkpt lat="45.22712" lon="5.71897">
        <ele>626.8</ele>
        <time>2015-11-14T11:01:50Z</time>
      </trkpt>
      <trkpt lat="45.22711" lon="5.719">
        <ele>626</ele>
        <time>2015-11-14T11:01:51Z</time>
      </trkpt>
      <trkpt lat="45.2271" lon="5.71906">
        <ele>626</ele>
        <time>2015-11-14T11:01:53Z</time>
      </trkpt>
      <trkpt lat="45.22707" lon="5.71911">
        <ele>625.8</ele>
        <time>2015-11-14T11:01:55Z</time>
      </trkpt>
      <trkpt lat="45.22703" lon="5.71924">
        <ele>623</ele>
        <time>2015-11-14T11:02:00Z</time>
      </trkpt>
      <trkpt lat="45.22697" lon="5.71938">
        <ele>621.5</ele>
        <time>2015-11-14T11:02:05Z</time>
      </trkpt>
      <trkpt lat="45.22696" lon="5.7194">
        <ele>621</ele>
        <time>2015-11-14T11:02:06Z</time>
      </trkpt>
      <trkpt lat="45.22694" lon="5.71943">
        <ele>620</ele>
        <time>2015-11-14T11:02:07Z</time>
      </trkpt>
      <trkpt lat="45.22692" lon="5.71945">
        <ele>619.8</ele>
        <time>2015-11-14T11:02:08Z</time>
      </trkpt>
      <trkpt lat="45.22689" lon="5.71947">
        <ele>618.8</ele>
        <time>2015-11-14T11:02:09Z</time>
      </trkpt>
      <trkpt lat="45.22687" lon="5.71948">
        <ele>618</ele>
        <time>2015-11-14T11:02:10Z</time>
      </trkpt>
      <trkpt lat="45.22685" lon="5.7195">
        <ele>617.8</ele>
        <time>2015-11-14T11:02:11Z</time>
      </trkpt>
      <trkpt lat="45.22683" lon="5.71952">
        <ele>617</ele>
        <time>2015-11-14T11:02:12Z</time>
      </trkpt>
      <trkpt lat="45.22681" lon="5.71953">
        <ele>617</ele>
        <time>2015-11-14T11:02:13Z</time>
      </trkpt>
      <trkpt lat="45.22679" lon="5.71955">
        <ele>617</ele>
        <time>2015-11-14T11:02:14Z</time>
      </trkpt>
      <trkpt lat="45.22677" lon="5.71957">
        <ele>616.8</ele>
        <time>2015-11-14T11:02:15Z</time>
      </trkpt>
      <trkpt lat="45.22675" lon="5.7196">
        <ele>616</ele>
        <time>2015-11-14T11:02:16Z</time>
      </trkpt>
      <trkpt lat="45.22672" lon="5.71963">
        <ele>616</ele>
        <time>2015-11-14T11:02:17Z</time>
      </trkpt>
      <trkpt lat="45.22663" lon="5.71973">
        <ele>614.9</ele>
        <time>2015-11-14T11:02:22Z</time>
      </trkpt>
      <trkpt lat="45.22655" lon="5.71981">
        <ele>613</ele>
        <time>2015-11-14T11:02:25Z</time>
      </trkpt>
      <trkpt lat="45.22646" lon="5.71988">
        <ele>609.9</ele>
        <time>2015-11-14T11:02:30Z</time>
      </trkpt>
      <trkpt lat="45.22637" lon="5.71997">
        <ele>607.8</ele>
        <time>2015-11-14T11:02:34Z</time>
      </trkpt>
      <trkpt lat="45.2263" lon="5.72009">
        <ele>605.8</ele>
        <time>2015-11-14T11:02:39Z</time>
      </trkpt>
      <trkpt lat="45.22628" lon="5.72009">
        <ele>604.8</ele>
        <time>2015-11-14T11:02:40Z</time>
      </trkpt>
      <trkpt lat="45.22626" lon="5.72008">
        <ele>603.9</ele>
        <time>2015-11-14T11:02:41Z</time>
      </trkpt>
      <trkpt lat="45.22622" lon="5.72006">
        <ele>602</ele>
        <time>2015-11-14T11:02:44Z</time>
      </trkpt>
      <trkpt lat="45.22619" lon="5.72006">
        <ele>601.8</ele>
        <time>2015-11-14T11:02:46Z</time>
      </trkpt>
      <trkpt lat="45.22617" lon="5.72004">
        <ele>600</ele>
        <time>2015-11-14T11:02:48Z</time>
      </trkpt>
      <trkpt lat="45.22615" lon="5.72003">
        <ele>600</ele>
        <time>2015-11-14T11:02:49Z</time>
      </trkpt>
      <trkpt lat="45.22612" lon="5.72002">
        <ele>598</ele>
        <time>2015-11-14T11:02:50Z</time>
      </trkpt>
      <trkpt lat="45.2261" lon="5.72001">
        <ele>597.8</ele>
        <time>2015-11-14T11:02:51Z</time>
      </trkpt>
      <trkpt lat="45.22607" lon="5.72">
        <ele>597</ele>
        <time>2015-11-14T11:02:52Z</time>
      </trkpt>
      <trkpt lat="45.22604" lon="5.71999">
        <ele>596.8</ele>
        <time>2015-11-14T11:02:53Z</time>
      </trkpt>
      <trkpt lat="45.22601" lon="5.71998">
        <ele>596</ele>
        <time>2015-11-14T11:02:54Z</time>
      </trkpt>
      <trkpt lat="45.22599" lon="5.71998">
        <ele>596</ele>
        <time>2015-11-14T11:02:55Z</time>
      </trkpt>
      <trkpt lat="45.22596" lon="5.71997">
        <ele>595.8</ele>
        <time>2015-11-14T11:02:56Z</time>
      </trkpt>
      <trkpt lat="45.22593" lon="5.71996">
        <ele>595</ele>
        <time>2015-11-14T11:02:57Z</time>
      </trkpt>
      <trkpt lat="45.2259" lon="5.71995">
        <ele>594.8</ele>
        <time>2015-11-14T11:02:58Z</time>
      </trkpt>
      <trkpt lat="45.22588" lon="5.71994">
        <ele>594</ele>
        <time>2015-11-14T11:02:59Z</time>
      </trkpt>
      <trkpt lat="45.22585" lon="5.71993">
        <ele>594</ele>
        <time>2015-11-14T11:03:00Z</time>
      </trkpt>
      <trkpt lat="45.22583" lon="5.71992">
        <ele>594</ele>
        <time>2015-11-14T11:03:01Z</time>
      </trkpt>
      <trkpt lat="45.22581" lon="5.71991">
        <ele>593</ele>
        <time>2015-11-14T11:03:02Z</time>
      </trkpt>
      <trkpt lat="45.22578" lon="5.7199">
        <ele>593</ele>
        <time>2015-11-14T11:03:03Z</time>
      </trkpt>
      <trkpt lat="45.22576" lon="5.71988">
        <ele>593</ele>
        <time>2015-11-14T11:03:04Z</time>
      </trkpt>
      <trkpt lat="45.22573" lon="5.71987">
        <ele>592.8</ele>
        <time>2015-11-14T11:03:05Z</time>
      </trkpt>
      <trkpt lat="45.2257" lon="5.71986">
        <ele>592</ele>
        <time>2015-11-14T11:03:06Z</time>
      </trkpt>
      <trkpt lat="45.22567" lon="5.71985">
        <ele>592</ele>
        <time>2015-11-14T11:03:07Z</time>
      </trkpt>
      <trkpt lat="45.22565" lon="5.71985">
        <ele>591.8</ele>
        <time>2015-11-14T11:03:08Z</time>
      </trkpt>
      <trkpt lat="45.22562" lon="5.71984">
        <ele>591</ele>
        <time>2015-11-14T11:03:09Z</time>
      </trkpt>
      <trkpt lat="45.22559" lon="5.71983">
        <ele>591</ele>
        <time>2015-11-14T11:03:10Z</time>
      </trkpt>
      <trkpt lat="45.22557" lon="5.71983">
        <ele>591</ele>
        <time>2015-11-14T11:03:11Z</time>
      </trkpt>
      <trkpt lat="45.22554" lon="5.71982">
        <ele>590.8</ele>
        <time>2015-11-14T11:03:12Z</time>
      </trkpt>
      <trkpt lat="45.22552" lon="5.7198">
        <ele>590</ele>
        <time>2015-11-14T11:03:13Z</time>
      </trkpt>
      <trkpt lat="45.22549" lon="5.71978">
        <ele>590</ele>
        <time>2015-11-14T11:03:14Z</time>
      </trkpt>
      <trkpt lat="45.22546" lon="5.71976">
        <ele>590</ele>
        <time>2015-11-14T11:03:15Z</time>
      </trkpt>
      <trkpt lat="45.22544" lon="5.71974">
        <ele>589.8</ele>
        <time>2015-11-14T11:03:16Z</time>
      </trkpt>
      <trkpt lat="45.22541" lon="5.71972">
        <ele>589</ele>
        <time>2015-11-14T11:03:17Z</time>
      </trkpt>
      <trkpt lat="45.22539" lon="5.71969">
        <ele>589</ele>
        <time>2015-11-14T11:03:18Z</time>
      </trkpt>
      <trkpt lat="45.22537" lon="5.71966">
        <ele>588.9</ele>
        <time>2015-11-14T11:03:19Z</time>
      </trkpt>
      <trkpt lat="45.22534" lon="5.71964">
        <ele>588.3</ele>
        <time>2015-11-14T11:03:20Z</time>
      </trkpt>
      <trkpt lat="45.22531" lon="5.71962">
        <ele>588</ele>
        <time>2015-11-14T11:03:21Z</time>
      </trkpt>
      <trkpt lat="45.22529" lon="5.71959">
        <ele>588</ele>
        <time>2015-11-14T11:03:22Z</time>
      </trkpt>
      <trkpt lat="45.22526" lon="5.71957">
        <ele>587.9</ele>
        <time>2015-11-14T11:03:23Z</time>
      </trkpt>
      <trkpt lat="45.22524" lon="5.71953">
        <ele>587.4</ele>
        <time>2015-11-14T11:03:24Z</time>
      </trkpt>
      <trkpt lat="45.22509" lon="5.71939">
        <ele>585.1</ele>
        <time>2015-11-14T11:03:30Z</time>
      </trkpt>
      <trkpt lat="45.22507" lon="5.71937">
        <ele>585</ele>
        <time>2015-11-14T11:03:31Z</time>
      </trkpt>
      <trkpt lat="45.22504" lon="5.71933">
        <ele>584.8</ele>
        <time>2015-11-14T11:03:32Z</time>
      </trkpt>
      <trkpt lat="45.22502" lon="5.71931">
        <ele>584</ele>
        <time>2015-11-14T11:03:33Z</time>
      </trkpt>
      <trkpt lat="45.225" lon="5.71928">
        <ele>584</ele>
        <time>2015-11-14T11:03:34Z</time>
      </trkpt>
      <trkpt lat="45.22497" lon="5.71926">
        <ele>583.8</ele>
        <time>2015-11-14T11:03:35Z</time>
      </trkpt>
      <trkpt lat="45.22495" lon="5.71924">
        <ele>583</ele>
        <time>2015-11-14T11:03:36Z</time>
      </trkpt>
      <trkpt lat="45.22493" lon="5.71921">
        <ele>583</ele>
        <time>2015-11-14T11:03:37Z</time>
      </trkpt>
      <trkpt lat="45.2249" lon="5.71918">
        <ele>583</ele>
        <time>2015-11-14T11:03:38Z</time>
      </trkpt>
      <trkpt lat="45.22488" lon="5.71915">
        <ele>583</ele>
        <time>2015-11-14T11:03:39Z</time>
      </trkpt>
      <trkpt lat="45.22485" lon="5.71913">
        <ele>582.1</ele>
        <time>2015-11-14T11:03:40Z</time>
      </trkpt>
      <trkpt lat="45.22483" lon="5.71911">
        <ele>582</ele>
        <time>2015-11-14T11:03:41Z</time>
      </trkpt>
      <trkpt lat="45.2248" lon="5.71909">
        <ele>582</ele>
        <time>2015-11-14T11:03:42Z</time>
      </trkpt>
      <trkpt lat="45.22477" lon="5.71906">
        <ele>581.8</ele>
        <time>2015-11-14T11:03:43Z</time>
      </trkpt>
      <trkpt lat="45.22475" lon="5.71904">
        <ele>581</ele>
        <time>2015-11-14T11:03:44Z</time>
      </trkpt>
      <trkpt lat="45.22472" lon="5.71902">
        <ele>581</ele>
        <time>2015-11-14T11:03:45Z</time>
      </trkpt>
      <trkpt lat="45.2247" lon="5.71901">
        <ele>581</ele>
        <time>2015-11-14T11:03:46Z</time>
      </trkpt>
      <trkpt lat="45.22467" lon="5.71899">
        <ele>580</ele>
        <time>2015-11-14T11:03:47Z</time>
      </trkpt>
      <trkpt lat="45.22464" lon="5.71898">
        <ele>580</ele>
        <time>2015-11-14T11:03:48Z</time>
      </trkpt>
      <trkpt lat="45.22462" lon="5.71896">
        <ele>579.8</ele>
        <time>2015-11-14T11:03:49Z</time>
      </trkpt>
      <trkpt lat="45.22459" lon="5.71893">
        <ele>579</ele>
        <time>2015-11-14T11:03:50Z</time>
      </trkpt>
      <trkpt lat="45.22456" lon="5.71891">
        <ele>578.8</ele>
        <time>2015-11-14T11:03:51Z</time>
      </trkpt>
      <trkpt lat="45.22453" lon="5.71889">
        <ele>578</ele>
        <time>2015-11-14T11:03:52Z</time>
      </trkpt>
      <trkpt lat="45.2245" lon="5.71887">
        <ele>578</ele>
        <time>2015-11-14T11:03:53Z</time>
      </trkpt>
      <trkpt lat="45.22447" lon="5.71885">
        <ele>578</ele>
        <time>2015-11-14T11:03:54Z</time>
      </trkpt>
      <trkpt lat="45.22444" lon="5.71883">
        <ele>577.8</ele>
        <time>2015-11-14T11:03:55Z</time>
      </trkpt>
      <trkpt lat="45.22441" lon="5.71882">
        <ele>577</ele>
        <time>2015-11-14T11:03:56Z</time>
      </trkpt>
      <trkpt lat="45.22439" lon="5.7188">
        <ele>577</ele>
        <time>2015-11-14T11:03:57Z</time>
      </trkpt>
      <trkpt lat="45.22436" lon="5.71878">
        <ele>577</ele>
        <time>2015-11-14T11:03:58Z</time>
      </trkpt>
      <trkpt lat="45.22433" lon="5.71876">
        <ele>577</ele>
        <time>2015-11-14T11:03:59Z</time>
      </trkpt>
      <trkpt lat="45.22431" lon="5.71875">
        <ele>576.8</ele>
        <time>2015-11-14T11:04:00Z</time>
      </trkpt>
      <trkpt lat="45.22428" lon="5.71874">
        <ele>576</ele>
        <time>2015-11-14T11:04:01Z</time>
      </trkpt>
      <trkpt lat="45.22425" lon="5.71872">
        <ele>576</ele>
        <time>2015-11-14T11:04:02Z</time>
      </trkpt>
      <trkpt lat="45.22422" lon="5.71871">
        <ele>575.9</ele>
        <time>2015-11-14T11:04:03Z</time>
      </trkpt>
      <trkpt lat="45.22419" lon="5.71869">
        <ele>575</ele>
        <time>2015-11-14T11:04:04Z</time>
      </trkpt>
      <trkpt lat="45.22416" lon="5.71868">
        <ele>575</ele>
        <time>2015-11-14T11:04:05Z</time>
      </trkpt>
      <trkpt lat="45.22413" lon="5.71866">
        <ele>574.8</ele>
        <time>2015-11-14T11:04:06Z</time>
      </trkpt>
      <trkpt lat="45.2241" lon="5.71864">
        <ele>574</ele>
        <time>2015-11-14T11:04:07Z</time>
      </trkpt>
      <trkpt lat="45.22407" lon="5.71863">
        <ele>574</ele>
        <time>2015-11-14T11:04:08Z</time>
      </trkpt>
      <trkpt lat="45.22405" lon="5.71861">
        <ele>573.8</ele>
        <time>2015-11-14T11:04:09Z</time>
      </trkpt>
      <trkpt lat="45.22402" lon="5.7186">
        <ele>573</ele>
        <time>2015-11-14T11:04:10Z</time>
      </trkpt>
      <trkpt lat="45.22399" lon="5.71858">
        <ele>573</ele>
        <time>2015-11-14T11:04:11Z</time>
      </trkpt>
      <trkpt lat="45.22396" lon="5.71856">
        <ele>573</ele>
        <time>2015-11-14T11:04:12Z</time>
      </trkpt>
      <trkpt lat="45.22393" lon="5.71854">
        <ele>573</ele>
        <time>2015-11-14T11:04:13Z</time>
      </trkpt>
      <trkpt lat="45.22391" lon="5.71852">
        <ele>572</ele>
        <time>2015-11-14T11:04:14Z</time>
      </trkpt>
      <trkpt lat="45.22388" lon="5.7185">
        <ele>572</ele>
        <time>2015-11-14T11:04:15Z</time>
      </trkpt>
      <trkpt lat="45.22385" lon="5.71848">
        <ele>571.9</ele>
        <time>2015-11-14T11:04:16Z</time>
      </trkpt>
      <trkpt lat="45.22383" lon="5.71847">
        <ele>571.1</ele>
        <time>2015-11-14T11:04:17Z</time>
      </trkpt>
      <trkpt lat="45.2238" lon="5.71845">
        <ele>571</ele>
        <time>2015-11-14T11:04:18Z</time>
      </trkpt>
      <trkpt lat="45.22377" lon="5.71844">
        <ele>571</ele>
        <time>2015-11-14T11:04:19Z</time>
      </trkpt>
      <trkpt lat="45.22374" lon="5.71842">
        <ele>570.8</ele>
        <time>2015-11-14T11:04:20Z</time>
      </trkpt>
      <trkpt lat="45.22371" lon="5.7184">
        <ele>570</ele>
        <time>2015-11-14T11:04:21Z</time>
      </trkpt>
      <trkpt lat="45.22368" lon="5.71838">
        <ele>570</ele>
        <time>2015-11-14T11:04:22Z</time>
      </trkpt>
      <trkpt lat="45.22364" lon="5.71836">
        <ele>569.8</ele>
        <time>2015-11-14T11:04:23Z</time>
      </trkpt>
      <trkpt lat="45.22361" lon="5.71835">
        <ele>569</ele>
        <time>2015-11-14T11:04:24Z</time>
      </trkpt>
      <trkpt lat="45.22358" lon="5.71833">
        <ele>569</ele>
        <time>2015-11-14T11:04:25Z</time>
      </trkpt>
      <trkpt lat="45.22354" lon="5.7183">
        <ele>569</ele>
        <time>2015-11-14T11:04:26Z</time>
      </trkpt>
      <trkpt lat="45.22345" lon="5.71824">
        <ele>568</ele>
        <time>2015-11-14T11:04:29Z</time>
      </trkpt>
      <trkpt lat="45.22336" lon="5.71816">
        <ele>567</ele>
        <time>2015-11-14T11:04:32Z</time>
      </trkpt>
      <trkpt lat="45.22328" lon="5.71809">
        <ele>566</ele>
        <time>2015-11-14T11:04:35Z</time>
      </trkpt>
      <trkpt lat="45.22319" lon="5.718">
        <ele>565</ele>
        <time>2015-11-14T11:04:39Z</time>
      </trkpt>
      <trkpt lat="45.22312" lon="5.71789">
        <ele>563</ele>
        <time>2015-11-14T11:04:45Z</time>
      </trkpt>
      <trkpt lat="45.22305" lon="5.71782">
        <ele>561.8</ele>
        <time>2015-11-14T11:04:51Z</time>
      </trkpt>
      <trkpt lat="45.22305" lon="5.71779">
        <ele>561</ele>
        <time>2015-11-14T11:04:52Z</time>
      </trkpt>
      <trkpt lat="45.22304" lon="5.71776">
        <ele>560.8</ele>
        <time>2015-11-14T11:04:53Z</time>
      </trkpt>
      <trkpt lat="45.22303" lon="5.71772">
        <ele>559.1</ele>
        <time>2015-11-14T11:04:55Z</time>
      </trkpt>
      <trkpt lat="45.22294" lon="5.71768">
        <ele>559</ele>
        <time>2015-11-14T11:04:59Z</time>
      </trkpt>
      <trkpt lat="45.22284" lon="5.71765">
        <ele>558</ele>
        <time>2015-11-14T11:05:02Z</time>
      </trkpt>
      <trkpt lat="45.22274" lon="5.7176">
        <ele>558</ele>
        <time>2015-11-14T11:05:05Z</time>
      </trkpt>
      <trkpt lat="45.22265" lon="5.71754">
        <ele>557</ele>
        <time>2015-11-14T11:05:08Z</time>
      </trkpt>
      <trkpt lat="45.22257" lon="5.71747">
        <ele>556</ele>
        <time>2015-11-14T11:05:11Z</time>
      </trkpt>
      <trkpt lat="45.22248" lon="5.71737">
        <ele>555.1</ele>
        <time>2015-11-14T11:05:14Z</time>
      </trkpt>
      <trkpt lat="45.22238" lon="5.7173">
        <ele>555</ele>
        <time>2015-11-14T11:05:17Z</time>
      </trkpt>
      <trkpt lat="45.22229" lon="5.71724">
        <ele>554</ele>
        <time>2015-11-14T11:05:20Z</time>
      </trkpt>
      <trkpt lat="45.22221" lon="5.71716">
        <ele>553</ele>
        <time>2015-11-14T11:05:23Z</time>
      </trkpt>
      <trkpt lat="45.22213" lon="5.71711">
        <ele>551.8</ele>
        <time>2015-11-14T11:05:26Z</time>
      </trkpt>
      <trkpt lat="45.22203" lon="5.71705">
        <ele>551</ele>
        <time>2015-11-14T11:05:29Z</time>
      </trkpt>
      <trkpt lat="45.22194" lon="5.71698">
        <ele>550</ele>
        <time>2015-11-14T11:05:32Z</time>
      </trkpt>
      <trkpt lat="45.22183" lon="5.7169">
        <ele>548.8</ele>
        <time>2015-11-14T11:05:36Z</time>
      </trkpt>
      <trkpt lat="45.22174" lon="5.71683">
        <ele>548</ele>
        <time>2015-11-14T11:05:39Z</time>
      </trkpt>
      <trkpt lat="45.22165" lon="5.71677">
        <ele>547</ele>
        <time>2015-11-14T11:05:42Z</time>
      </trkpt>
      <trkpt lat="45.22155" lon="5.71668">
        <ele>546</ele>
        <time>2015-11-14T11:05:46Z</time>
      </trkpt>
      <trkpt lat="45.22147" lon="5.71661">
        <ele>545</ele>
        <time>2015-11-14T11:05:49Z</time>
      </trkpt>
      <trkpt lat="45.22138" lon="5.71652">
        <ele>544.2</ele>
        <time>2015-11-14T11:05:52Z</time>
      </trkpt>
      <trkpt lat="45.22129" lon="5.71646">
        <ele>544</ele>
        <time>2015-11-14T11:05:55Z</time>
      </trkpt>
      <trkpt lat="45.2212" lon="5.71635">
        <ele>542.9</ele>
        <time>2015-11-14T11:05:59Z</time>
      </trkpt>
      <trkpt lat="45.22113" lon="5.71623">
        <ele>541.8</ele>
        <time>2015-11-14T11:06:03Z</time>
      </trkpt>
      <trkpt lat="45.22107" lon="5.71609">
        <ele>540.8</ele>
        <time>2015-11-14T11:06:06Z</time>
      </trkpt>
      <trkpt lat="45.221" lon="5.71598">
        <ele>539.1</ele>
        <time>2015-11-14T11:06:09Z</time>
      </trkpt>
      <trkpt lat="45.22096" lon="5.71586">
        <ele>538</ele>
        <time>2015-11-14T11:06:12Z</time>
      </trkpt>
      <trkpt lat="45.22091" lon="5.7157">
        <ele>537</ele>
        <time>2015-11-14T11:06:15Z</time>
      </trkpt>
      <trkpt lat="45.22086" lon="5.71555">
        <ele>537</ele>
        <time>2015-11-14T11:06:18Z</time>
      </trkpt>
      <trkpt lat="45.2208" lon="5.71543">
        <ele>536</ele>
        <time>2015-11-14T11:06:21Z</time>
      </trkpt>
      <trkpt lat="45.22074" lon="5.71531">
        <ele>535.2</ele>
        <time>2015-11-14T11:06:25Z</time>
      </trkpt>
      <trkpt lat="45.22066" lon="5.71521">
        <ele>533.9</ele>
        <time>2015-11-14T11:06:29Z</time>
      </trkpt>
      <trkpt lat="45.22056" lon="5.71518">
        <ele>532</ele>
        <time>2015-11-14T11:06:32Z</time>
      </trkpt>
      <trkpt lat="45.22046" lon="5.71518">
        <ele>532</ele>
        <time>2015-11-14T11:06:35Z</time>
      </trkpt>
      <trkpt lat="45.22035" lon="5.71521">
        <ele>531</ele>
        <time>2015-11-14T11:06:38Z</time>
      </trkpt>
      <trkpt lat="45.22024" lon="5.71525">
        <ele>530</ele>
        <time>2015-11-14T11:06:41Z</time>
      </trkpt>
      <trkpt lat="45.22013" lon="5.71527">
        <ele>528.8</ele>
        <time>2015-11-14T11:06:44Z</time>
      </trkpt>
      <trkpt lat="45.22002" lon="5.71526">
        <ele>528</ele>
        <time>2015-11-14T11:06:47Z</time>
      </trkpt>
      <trkpt lat="45.21991" lon="5.7152">
        <ele>527</ele>
        <time>2015-11-14T11:06:50Z</time>
      </trkpt>
      <trkpt lat="45.21982" lon="5.71514">
        <ele>527</ele>
        <time>2015-11-14T11:06:53Z</time>
      </trkpt>
      <trkpt lat="45.21974" lon="5.71509">
        <ele>526</ele>
        <time>2015-11-14T11:06:56Z</time>
      </trkpt>
      <trkpt lat="45.21964" lon="5.71503">
        <ele>524.8</ele>
        <time>2015-11-14T11:06:59Z</time>
      </trkpt>
      <trkpt lat="45.21956" lon="5.71496">
        <ele>523.8</ele>
        <time>2015-11-14T11:07:02Z</time>
      </trkpt>
      <trkpt lat="45.21948" lon="5.71488">
        <ele>522.8</ele>
        <time>2015-11-14T11:07:05Z</time>
      </trkpt>
      <trkpt lat="45.21941" lon="5.71476">
        <ele>522</ele>
        <time>2015-11-14T11:07:08Z</time>
      </trkpt>
      <trkpt lat="45.21933" lon="5.71467">
        <ele>521</ele>
        <time>2015-11-14T11:07:11Z</time>
      </trkpt>
      <trkpt lat="45.21926" lon="5.71457">
        <ele>520</ele>
        <time>2015-11-14T11:07:14Z</time>
      </trkpt>
      <trkpt lat="45.21918" lon="5.71449">
        <ele>520</ele>
        <time>2015-11-14T11:07:17Z</time>
      </trkpt>
      <trkpt lat="45.2191" lon="5.71439">
        <ele>520</ele>
        <time>2015-11-14T11:07:20Z</time>
      </trkpt>
      <trkpt lat="45.21901" lon="5.7143">
        <ele>519.1</ele>
        <time>2015-11-14T11:07:23Z</time>
      </trkpt>
      <trkpt lat="45.21893" lon="5.7142">
        <ele>519</ele>
        <time>2015-11-14T11:07:26Z</time>
      </trkpt>
      <trkpt lat="45.21884" lon="5.71411">
        <ele>519</ele>
        <time>2015-11-14T11:07:29Z</time>
      </trkpt>
      <trkpt lat="45.21876" lon="5.71402">
        <ele>519</ele>
        <time>2015-11-14T11:07:32Z</time>
      </trkpt>
      <trkpt lat="45.21867" lon="5.71392">
        <ele>518</ele>
        <time>2015-11-14T11:07:35Z</time>
      </trkpt>
      <trkpt lat="45.21859" lon="5.71383">
        <ele>518</ele>
        <time>2015-11-14T11:07:38Z</time>
      </trkpt>
      <trkpt lat="45.21848" lon="5.71378">
        <ele>515.8</ele>
        <time>2015-11-14T11:07:42Z</time>
      </trkpt>
      <trkpt lat="45.21837" lon="5.71374">
        <ele>513</ele>
        <time>2015-11-14T11:07:46Z</time>
      </trkpt>
      <trkpt lat="45.21827" lon="5.7137">
        <ele>511</ele>
        <time>2015-11-14T11:07:49Z</time>
      </trkpt>
      <trkpt lat="45.21816" lon="5.71363">
        <ele>510</ele>
        <time>2015-11-14T11:07:52Z</time>
      </trkpt>
      <trkpt lat="45.21806" lon="5.71356">
        <ele>509.8</ele>
        <time>2015-11-14T11:07:55Z</time>
      </trkpt>
      <trkpt lat="45.21795" lon="5.71348">
        <ele>509</ele>
        <time>2015-11-14T11:07:58Z</time>
      </trkpt>
      <trkpt lat="45.21785" lon="5.7134">
        <ele>509</ele>
        <time>2015-11-14T11:08:01Z</time>
      </trkpt>
      <trkpt lat="45.21776" lon="5.71332">
        <ele>508</ele>
        <time>2015-11-14T11:08:04Z</time>
      </trkpt>
      <trkpt lat="45.21766" lon="5.71324">
        <ele>508</ele>
        <time>2015-11-14T11:08:07Z</time>
      </trkpt>
      <trkpt lat="45.21747" lon="5.71315">
        <ele>503.8</ele>
        <time>2015-11-14T11:08:14Z</time>
      </trkpt>
      <trkpt lat="45.21738" lon="5.71309">
        <ele>501.8</ele>
        <time>2015-11-14T11:08:18Z</time>
      </trkpt>
      <trkpt lat="45.2173" lon="5.71301">
        <ele>501</ele>
        <time>2015-11-14T11:08:21Z</time>
      </trkpt>
      <trkpt lat="45.21718" lon="5.71291">
        <ele>500</ele>
        <time>2015-11-14T11:08:24Z</time>
      </trkpt>
      <trkpt lat="45.21707" lon="5.71284">
        <ele>499</ele>
        <time>2015-11-14T11:08:27Z</time>
      </trkpt>
      <trkpt lat="45.21699" lon="5.71275">
        <ele>497.9</ele>
        <time>2015-11-14T11:08:30Z</time>
      </trkpt>
      <trkpt lat="45.21689" lon="5.71268">
        <ele>496</ele>
        <time>2015-11-14T11:08:33Z</time>
      </trkpt>
      <trkpt lat="45.21681" lon="5.71259">
        <ele>495</ele>
        <time>2015-11-14T11:08:36Z</time>
      </trkpt>
      <trkpt lat="45.21675" lon="5.71249">
        <ele>494</ele>
        <time>2015-11-14T11:08:39Z</time>
      </trkpt>
      <trkpt lat="45.21665" lon="5.71238">
        <ele>493</ele>
        <time>2015-11-14T11:08:42Z</time>
      </trkpt>
      <trkpt lat="45.21654" lon="5.71227">
        <ele>492.8</ele>
        <time>2015-11-14T11:08:45Z</time>
      </trkpt>
      <trkpt lat="45.21645" lon="5.7122">
        <ele>491.9</ele>
        <time>2015-11-14T11:08:48Z</time>
      </trkpt>
      <trkpt lat="45.21637" lon="5.71212">
        <ele>489</ele>
        <time>2015-11-14T11:08:51Z</time>
      </trkpt>
      <trkpt lat="45.2163" lon="5.71202">
        <ele>488</ele>
        <time>2015-11-14T11:08:54Z</time>
      </trkpt>
      <trkpt lat="45.21622" lon="5.71194">
        <ele>487</ele>
        <time>2015-11-14T11:08:57Z</time>
      </trkpt>
      <trkpt lat="45.21613" lon="5.71183">
        <ele>485.8</ele>
        <time>2015-11-14T11:09:00Z</time>
      </trkpt>
      <trkpt lat="45.21607" lon="5.71171">
        <ele>484.1</ele>
        <time>2015-11-14T11:09:03Z</time>
      </trkpt>
      <trkpt lat="45.216" lon="5.71159">
        <ele>483</ele>
        <time>2015-11-14T11:09:06Z</time>
      </trkpt>
      <trkpt lat="45.21591" lon="5.7115">
        <ele>482</ele>
        <time>2015-11-14T11:09:09Z</time>
      </trkpt>
      <trkpt lat="45.21582" lon="5.7114">
        <ele>481</ele>
        <time>2015-11-14T11:09:12Z</time>
      </trkpt>
      <trkpt lat="45.21573" lon="5.71131">
        <ele>480.8</ele>
        <time>2015-11-14T11:09:15Z</time>
      </trkpt>
      <trkpt lat="45.21566" lon="5.71121">
        <ele>479.8</ele>
        <time>2015-11-14T11:09:18Z</time>
      </trkpt>
      <trkpt lat="45.21557" lon="5.71112">
        <ele>479</ele>
        <time>2015-11-14T11:09:21Z</time>
      </trkpt>
      <trkpt lat="45.21546" lon="5.71101">
        <ele>478</ele>
        <time>2015-11-14T11:09:24Z</time>
      </trkpt>
      <trkpt lat="45.21538" lon="5.71094">
        <ele>478</ele>
        <time>2015-11-14T11:09:26Z</time>
      </trkpt>
      <trkpt lat="45.2153" lon="5.71088">
        <ele>477.9</ele>
        <time>2015-11-14T11:09:28Z</time>
      </trkpt>
      <trkpt lat="45.21519" lon="5.7108">
        <ele>477</ele>
        <time>2015-11-14T11:09:31Z</time>
      </trkpt>
      <trkpt lat="45.21508" lon="5.71072">
        <ele>476</ele>
        <time>2015-11-14T11:09:34Z</time>
      </trkpt>
      <trkpt lat="45.215" lon="5.71065">
        <ele>475.1</ele>
        <time>2015-11-14T11:09:37Z</time>
      </trkpt>
      <trkpt lat="45.2149" lon="5.71056">
        <ele>473</ele>
        <time>2015-11-14T11:09:41Z</time>
      </trkpt>
      <trkpt lat="45.21483" lon="5.71051">
        <ele>472.1</ele>
        <time>2015-11-14T11:09:43Z</time>
      </trkpt>
      <trkpt lat="45.21474" lon="5.71041">
        <ele>471</ele>
        <time>2015-11-14T11:09:46Z</time>
      </trkpt>
      <trkpt lat="45.21466" lon="5.71026">
        <ele>469.8</ele>
        <time>2015-11-14T11:09:49Z</time>
      </trkpt>
      <trkpt lat="45.21459" lon="5.71013">
        <ele>467.8</ele>
        <time>2015-11-14T11:09:52Z</time>
      </trkpt>
      <trkpt lat="45.21458" lon="5.71008">
        <ele>466.9</ele>
        <time>2015-11-14T11:09:53Z</time>
      </trkpt>
      <trkpt lat="45.21457" lon="5.71005">
        <ele>466.4</ele>
        <time>2015-11-14T11:09:54Z</time>
      </trkpt>
      <trkpt lat="45.21455" lon="5.71002">
        <ele>466</ele>
        <time>2015-11-14T11:09:55Z</time>
      </trkpt>
      <trkpt lat="45.21453" lon="5.70999">
        <ele>465</ele>
        <time>2015-11-14T11:09:56Z</time>
      </trkpt>
      <trkpt lat="45.2145" lon="5.70996">
        <ele>465</ele>
        <time>2015-11-14T11:09:57Z</time>
      </trkpt>
      <trkpt lat="45.21447" lon="5.70992">
        <ele>464.9</ele>
        <time>2015-11-14T11:09:58Z</time>
      </trkpt>
      <trkpt lat="45.21445" lon="5.70989">
        <ele>464.1</ele>
        <time>2015-11-14T11:09:59Z</time>
      </trkpt>
      <trkpt lat="45.21443" lon="5.70984">
        <ele>464</ele>
        <time>2015-11-14T11:10:00Z</time>
      </trkpt>
      <trkpt lat="45.21441" lon="5.7098">
        <ele>464</ele>
        <time>2015-11-14T11:10:01Z</time>
      </trkpt>
      <trkpt lat="45.21438" lon="5.70977">
        <ele>463.9</ele>
        <time>2015-11-14T11:10:02Z</time>
      </trkpt>
      <trkpt lat="45.21436" lon="5.70974">
        <ele>463.1</ele>
        <time>2015-11-14T11:10:03Z</time>
      </trkpt>
      <trkpt lat="45.21433" lon="5.7097">
        <ele>462.8</ele>
        <time>2015-11-14T11:10:04Z</time>
      </trkpt>
      <trkpt lat="45.21432" lon="5.70968">
        <ele>461.8</ele>
        <time>2015-11-14T11:10:05Z</time>
      </trkpt>
      <trkpt lat="45.2143" lon="5.70965">
        <ele>460.8</ele>
        <time>2015-11-14T11:10:06Z</time>
      </trkpt>
      <trkpt lat="45.21427" lon="5.7096">
        <ele>459</ele>
        <time>2015-11-14T11:10:08Z</time>
      </trkpt>
      <trkpt lat="45.21423" lon="5.70957">
        <ele>459</ele>
        <time>2015-11-14T11:10:09Z</time>
      </trkpt>
      <trkpt lat="45.2142" lon="5.70954">
        <ele>458.8</ele>
        <time>2015-11-14T11:10:10Z</time>
      </trkpt>
      <trkpt lat="45.21416" lon="5.70952">
        <ele>457.9</ele>
        <time>2015-11-14T11:10:11Z</time>
      </trkpt>
      <trkpt lat="45.21413" lon="5.70951">
        <ele>456.8</ele>
        <time>2015-11-14T11:10:12Z</time>
      </trkpt>
      <trkpt lat="45.21412" lon="5.70954">
        <ele>455.8</ele>
        <time>2015-11-14T11:10:13Z</time>
      </trkpt>
      <trkpt lat="45.2141" lon="5.70965">
        <ele>453</ele>
        <time>2015-11-14T11:10:15Z</time>
      </trkpt>
      <trkpt lat="45.2141" lon="5.70972">
        <ele>452.8</ele>
        <time>2015-11-14T11:10:16Z</time>
      </trkpt>
      <trkpt lat="45.2141" lon="5.70976">
        <ele>452</ele>
        <time>2015-11-14T11:10:17Z</time>
      </trkpt>
      <trkpt lat="45.21409" lon="5.70981">
        <ele>451.2</ele>
        <time>2015-11-14T11:10:19Z</time>
      </trkpt>
      <trkpt lat="45.21408" lon="5.70984">
        <ele>451</ele>
        <time>2015-11-14T11:10:21Z</time>
      </trkpt>
    </trkseg>
  </trk>
</gpx>